[[{"header":{"parameterUnit":"m.s-1","parameterCategory":1,"la1":31.0,"la2":29.5877,"lo1":-88.7671,"lo2":-86.6584,"dy":0.0162,"dx":0.0185,"nx":115,"ny":88,"refTime":"2023-07-04T12:00:00:Z","depth":0,"parameterNumber":2,"parameterNumberName":"U-component_of_WINDS"},"data":[0.0,0.0,0.0,0.0,0.0,0.0,0.0,0.0,0.0,0.0,0.0,0.0,0.0,0.0,0.0,0.0,0.0,0.0,0.0,0.0,0.0,0.0,0.0,0.0,0.0,0.0,0.0,0.0,0.0,0.0,0.0,0.0,0.0,0.0,0.0,0.0,0.0,0.0,0.0,0.0,0.0,0.0,0.0,0.0,0.0,0.0,0.0,0.0,0.0,0.0,0.0,0.0,0.0,0.0,0.0,0.0,0.0,0.0,0.0,0.0,0.0,0.0,0.0,0.0,0.0,0.0,0.0,0.0,0.0,0.0,0.0,0.0,0.0,0.0,0.0,0.0,0.0,0.0,0.0,0.0,0.0,0.0,0.0,0.0,0.0,0.0,0.0,0.0,0.0,0.0,0.0,0.0,0.0,0.0,0.0,0.0,0.0,0.0,0.0,0.0,0.0,0.0,0.0,0.0,0.0,0.0,0.0,0.0,0.0,0.0,0.0,0.0,0.0,0.0,0.0,0.0,0.0,0.0,0.0,0.0,0.0,0.0,0.0,0.0,0.0,0.0,0.0,0.0,0.0,0.0,0.0,0.0,0.0,0.0,0.0,0.0,0.0,0.0,0.0,0.0,0.0,0.0,0.0,0.0,0.0,0.0,0.0,0.0,0.0,0.0,0.0,0.0,0.0,0.0,0.0,0.0,0.0,0.0,0.0,0.0,0.0,0.0,0.0,0.0,0.0,0.0,0.0,0.0,0.0,0.0,0.0,0.0,0.0,0.0,0.0,0.0,0.0,0.0,0.0,0.0,0.0,0.0,0.0,0.0,0.0,0.0,0.0,0.0,0.0,0.0,0.0,0.0,0.0,0.0,0.0,0.0,0.0,0.0,0.0,0.0,0.0,0.0,0.0,0.0,0.0,0.0,0.0,0.0,0.0,0.0,0.0,0.0,0.0,0.0,0.0,0.0,0.0,0.0,0.0,0.0,0.0,0.0,0.0,0.0,0.0,0.0,0.0,0.0,0.0,0.0,0.0,0.0,0.0,0.0,0.0,0.0,0.0,0.0,0.0,0.0,0.0,0.0,0.0,0.0,0.0,0.0,0.0,0.0,0.0,0.0,0.0,0.0,0.0,0.0,0.0,0.0,0.0,0.0,0.0,0.0,0.0,0.0,0.0,0.0,0.0,0.0,0.0,0.0,0.0,0.0,0.0,0.0,0.0,0.0,0.0,0.0,0.0,0.0,0.0,0.0,0.0,0.0,0.0,0.0,0.0,0.0,0.0,0.0,0.0,0.0,0.0,0.0,0.0,0.0,0.0,0.0,0.0,0.0,0.0,0.0,0.0,0.0,0.0,0.0,0.0,0.0,0.0,0.0,0.0,0.0,0.0,0.0,0.0,0.0,0.0,0.0,0.0,0.0,0.0,0.0,0.0,0.0,0.0,0.0,0.0,0.0,0.0,0.0,0.0,0.0,0.0,0.0,0.0,0.0,0.0,0.0,0.0,0.0,0.0,0.0,0.0,0.0,0.0,0.0,0.0,0.0,0.0,0.0,0.0,0.0,0.0,0.0,0.0,0.0,0.0,0.0,0.0,0.0,0.0,0.0,0.0,0.0,0.0,0.0,0.0,0.0,0.0,0.0,0.0,0.0,0.0,0.0,0.0,0.0,0.0,0.0,0.0,0.0,0.0,0.0,0.0,0.0,0.0,0.0,0.0,0.0,0.0,0.0,0.0,0.0,0.0,0.0,0.0,0.0,0.0,0.0,0.0,0.0,0.0,0.0,0.0,0.0,0.0,0.0,0.0,0.0,0.0,0.0,0.0,0.0,0.0,0.0,0.0,0.0,0.0,0.0,0.0,0.0,0.0,0.0,0.0,0.0,0.0,0.0,0.0,0.0,0.0,0.0,0.0,0.0,0.0,0.0,0.0,0.0,0.0,0.0,0.0,0.0,0.0,0.0,0.0,0.0,0.0,0.0,0.0,0.0,0.0,0.0,0.0,0.0,0.0,0.0,0.0,0.0,0.0,0.0,0.0,0.0,0.0,0.0,0.0,0.0,0.0,0.0,0.0,0.0,0.0,0.0,0.0,0.0,0.0,0.0,0.0,0.0,0.0,0.0,0.0,0.0,0.0,0.0,0.0,0.0,0.0,0.0,0.0,0.0,0.0,0.0,0.0,0.0,0.0,0.0,0.0,0.0,0.0,0.0,0.0,0.0,0.0,0.0,0.0,0.0,0.0,0.0,0.0,0.0,0.0,0.0,0.0,0.0,0.0,0.0,0.0,0.0,0.0,0.0,0.0,0.0,0.0,0.0,0.0,0.0,0.0,0.0,0.0,0.0,0.0,0.0,0.0,0.0,0.0,0.0,0.0,0.0,0.0,0.0,0.0,0.0,0.0,0.0,0.0,0.0,0.0,0.0,0.0,0.0,0.0,0.0,0.0,0.0,0.0,0.0,0.0,0.0,0.0,0.0,0.0,0.0,0.0,0.0,0.0,0.0,0.0,0.0,0.0,0.0,0.0,0.0,0.0,0.0,0.0,0.0,0.0,0.0,0.0,0.0,0.0,0.0,0.0,0.0,0.0,0.0,0.0,0.0,0.0,0.0,0.0,0.0,0.0,0.0,0.0,0.0,0.0,0.0,0.0,0.0,0.0,0.0,0.0,0.0,0.0,0.0,0.0,0.0,0.0,0.0,0.0,0.0,0.0,0.0,0.0,0.0,0.0,0.0,0.0,0.0,0.0,0.0,0.0,0.0,0.0,0.0,0.0,0.0,0.0,0.0,0.0,0.0,0.0,0.0,0.0,0.0,0.0,0.0,0.0,0.0,0.0,0.0,0.0,0.0,0.0,0.0,0.0,0.0,0.0,0.0,0.0,0.0,0.0,0.0,0.0,0.0,0.0,0.0,0.0,0.0,0.0,0.0,0.0,0.0,0.0,0.0,0.0,0.0,0.0,0.0,0.0,0.0,0.0,0.0,0.0,0.0,0.0,0.0,0.0,0.0,0.0,0.0,0.0,0.0,0.0,0.0,0.0,0.0,0.0,0.0,0.0,0.0,0.0,0.0,0.0,0.0,0.0,0.0,0.0,0.0,0.0,0.0,0.0,0.0,0.0,0.0,0.0,0.0,0.0,0.0,0.0,0.0,0.0,0.0,0.0,0.0,0.0,0.0,0.0,0.0,0.0,0.0,0.0,0.0,0.0,0.0,0.0,0.0,0.0,0.0,0.0,0.0,0.0,0.0,0.0,0.0,0.0,0.0,0.0,0.0,0.0,0.0,0.0,0.0,0.0,0.0,0.0,0.0,0.0,0.0,0.0,0.0,0.0,0.0,0.0,0.0,0.0,0.0,0.0,0.0,0.0,0.0,0.0,0.0,0.0,0.0,0.0,0.0,0.0,0.0,0.0,0.0,0.0,0.0,0.0,0.0,0.0,0.0,0.0,0.0,0.0,0.0,0.0,0.0,0.0,0.0,0.0,0.0,0.0,0.0,0.0,0.0,0.0,0.0,0.0,0.0,0.0,0.0,0.0,0.0,0.0,0.0,0.0,0.0,0.0,0.0,0.0,0.0,0.0,0.0,0.0,0.0,0.0,0.0,0.0,0.0,0.0,0.0,0.0,0.0,0.0,0.0,0.0,0.0,0.0,0.0,0.0,0.0,0.0,0.0,0.0,0.0,0.0,0.0,0.0,0.0,0.0,0.0,0.0,0.0,0.0,0.0,0.0,0.0,0.0,0.0,0.0,0.0,0.0,0.0,0.0,0.0,0.0,0.0,0.0,0.0,0.0,0.0,0.0,0.0,0.0,0.0,0.0,0.0,0.0,0.0,0.0,0.0,0.0,0.0,0.0,0.0,0.0,0.0,0.0,0.0,0.0,0.0,0.0,0.0,0.0,0.0,0.0,0.0,0.0,0.0,0.0,0.0,0.0,0.0,0.0,0.0,0.0,0.0,0.0,0.0,0.0,0.0,0.0,0.0,0.0,0.0,0.0,0.0,0.0,0.0,0.0,0.0,0.0,0.0,0.0,0.0,0.0,0.0,0.0,0.0,0.0,0.0,0.0,0.0,0.0,0.0,0.0,0.0,0.0,0.0,0.0,0.0,0.0,0.0,0.0,0.0,0.0,0.0,0.0,0.0,0.0,0.0,0.0,0.0,0.0,0.0,0.0,0.0,0.0,0.0,0.0,0.0,0.0,0.0,0.0,0.0,0.0,0.0,0.0,0.0,0.0,0.0,0.0,0.0,0.0,0.0,0.0,0.0,0.0,0.0,-2.4086,0.0,0.0,0.0,-2.2146,0.0,0.0,0.0,0.0,0.0,0.0,0.0,0.0,0.0,0.0,0.0,0.0,0.0,0.0,0.0,0.0,0.0,0.0,0.0,0.0,0.0,0.0,0.0,0.0,0.0,0.0,0.0,0.0,0.0,0.0,0.0,0.0,0.0,0.0,0.0,0.0,0.0,0.0,0.0,0.0,0.0,0.0,0.0,0.0,0.0,0.0,0.0,0.0,0.0,0.0,0.0,0.0,0.0,0.0,0.0,0.0,0.0,0.0,0.0,0.0,0.0,0.0,0.0,0.0,0.0,0.0,0.0,0.0,0.0,0.0,0.0,0.0,0.0,0.0,0.0,0.0,0.0,0.0,0.0,0.0,0.0,0.0,0.0,0.0,0.0,0.0,0.0,0.0,0.0,0.0,0.0,0.0,0.0,0.0,0.0,0.0,0.0,0.0,0.0,0.0,0.0,0.0,0.0,0.0,0.0,0.0,0.0,0.0,0.0,0.0,-2.5465,-2.4474,-2.5771,-2.5448,-2.3249,0.0,0.0,0.0,0.0,0.0,0.0,0.0,0.0,0.0,0.0,0.0,0.0,0.0,0.0,0.0,0.0,0.0,0.0,0.0,0.0,0.0,0.0,0.0,0.0,0.0,0.0,0.0,0.0,0.0,0.0,0.0,0.0,0.0,0.0,0.0,0.0,0.0,0.0,0.0,0.0,0.0,0.0,0.0,0.0,0.0,0.0,0.0,0.0,0.0,0.0,0.0,0.0,0.0,0.0,0.0,0.0,0.0,0.0,0.0,0.0,0.0,0.0,0.0,0.0,0.0,0.0,0.0,0.0,0.0,0.0,0.0,0.0,0.0,0.0,0.0,0.0,0.0,0.0,0.0,0.0,0.0,0.0,0.0,0.0,0.0,0.0,0.0,0.0,0.0,0.0,0.0,0.0,0.0,0.0,0.0,0.0,0.0,0.0,0.0,0.0,0.0,0.0,0.0,0.0,0.0,0.0,0.0,0.0,0.0,0.0,0.0,0.0,-2.8778,-2.8454,-2.5364,0.0,0.0,0.0,0.0,0.0,0.0,0.0,0.0,0.0,0.0,0.0,0.0,0.0,0.0,0.0,0.0,0.0,0.0,0.0,0.0,0.0,0.0,0.0,0.0,0.0,0.0,0.0,0.0,0.0,0.0,0.0,0.0,0.0,0.0,0.0,0.0,0.0,0.0,0.0,0.0,0.0,0.0,0.0,0.0,0.0,0.0,0.0,0.0,0.0,0.0,0.0,0.0,0.0,0.0,0.0,0.0,0.0,0.0,0.0,0.0,0.0,0.0,0.0,0.0,0.0,0.0,0.0,0.0,0.0,0.0,0.0,0.0,0.0,0.0,0.0,0.0,0.0,0.0,0.0,0.0,0.0,0.0,0.0,0.0,0.0,0.0,0.0,0.0,0.0,0.0,0.0,0.0,0.0,0.0,0.0,0.0,0.0,0.0,0.0,0.0,0.0,0.0,0.0,0.0,0.0,0.0,0.0,0.0,0.0,0.0,-2.8451,-3.2294,-3.2044,0.0,-2.9757,0.0,0.0,0.0,0.0,0.0,0.0,0.0,0.0,0.0,0.0,0.0,0.0,0.0,0.0,0.0,0.0,0.0,0.0,0.0,0.0,0.0,0.0,0.0,0.0,0.0,0.0,0.0,0.0,0.0,0.0,0.0,0.0,0.0,0.0,0.0,0.0,0.0,0.0,0.0,0.0,0.0,0.0,0.0,0.0,0.0,0.0,0.0,0.0,0.0,0.0,0.0,0.0,0.0,0.0,0.0,0.0,0.0,0.0,0.0,0.0,0.0,0.0,0.0,0.0,0.0,0.0,0.0,0.0,0.0,0.0,0.0,0.0,0.0,0.0,0.0,0.0,0.0,0.0,0.0,0.0,0.0,0.0,0.0,0.0,0.0,0.0,0.0,0.0,0.0,0.0,0.0,0.0,0.0,0.0,0.0,0.0,0.0,0.0,0.0,0.0,0.0,0.0,0.0,0.0,0.0,0.0,0.0,0.0,0.0,0.0,-3.2009,-3.4471,-3.3587,-3.2579,0.0,0.0,0.0,0.0,0.0,0.0,0.0,0.0,0.0,0.0,0.0,0.0,0.0,0.0,0.0,0.0,0.0,0.0,0.0,0.0,0.0,0.0,0.0,0.0,0.0,0.0,0.0,0.0,0.0,0.0,0.0,0.0,0.0,0.0,0.0,0.0,0.0,0.0,0.0,0.0,0.0,0.0,0.0,0.0,0.0,0.0,0.0,0.0,0.0,0.0,0.0,0.0,0.0,0.0,0.0,0.0,0.0,0.0,0.0,0.0,0.0,0.0,0.0,0.0,0.0,0.0,0.0,0.0,0.0,0.0,0.0,0.0,0.0,0.0,0.0,0.0,0.0,0.0,0.0,0.0,0.0,0.0,0.0,0.0,0.0,0.0,0.0,0.0,0.0,0.0,0.0,0.0,0.0,0.0,0.0,0.0,0.0,0.0,0.0,0.0,0.0,0.0,0.0,0.0,0.0,0.0,0.0,0.0,0.0,0.0,-3.4191,-3.5591,-3.7067,-3.6012,-3.4576,-3.2943,0.0,0.0,0.0,0.0,0.0,0.0,0.0,0.0,0.0,0.0,0.0,0.0,0.0,0.0,0.0,0.0,0.0,0.0,0.0,0.0,0.0,0.0,0.0,0.0,0.0,0.0,0.0,0.0,0.0,0.0,0.0,0.0,0.0,0.0,0.0,0.0,0.0,0.0,0.0,0.0,0.0,0.0,0.0,0.0,0.0,0.0,0.0,0.0,0.0,0.0,0.0,0.0,0.0,0.0,0.0,0.0,0.0,0.0,0.0,0.0,0.0,0.0,0.0,0.0,0.0,0.0,0.0,0.0,0.0,0.0,0.0,0.0,0.0,0.0,0.0,0.0,0.0,0.0,0.0,0.0,0.0,0.0,0.0,0.0,0.0,0.0,0.0,0.0,0.0,0.0,0.0,0.0,0.0,0.0,0.0,0.0,0.0,0.0,0.0,0.0,0.0,0.0,0.0,0.0,0.0,0.0,0.0,0.0,-3.8497,-3.7853,-3.878,-4.1609,-4.0254,-3.786,0.0,0.0,0.0,0.0,0.0,0.0,0.0,0.0,0.0,0.0,0.0,0.0,0.0,0.0,0.0,0.0,0.0,0.0,0.0,0.0,0.0,0.0,0.0,0.0,0.0,0.0,0.0,0.0,0.0,0.0,0.0,0.0,0.0,0.0,0.0,0.0,0.0,0.0,0.0,0.0,0.0,0.0,0.0,0.0,0.0,0.0,0.0,0.0,0.0,0.0,0.0,0.0,0.0,0.0,0.0,0.0,0.0,0.0,0.0,0.0,0.0,0.0,0.0,0.0,0.0,0.0,0.0,0.0,0.0,0.0,0.0,0.0,0.0,0.0,0.0,0.0,0.0,0.0,0.0,0.0,0.0,0.0,0.0,0.0,0.0,0.0,0.0,0.0,0.0,0.0,0.0,0.0,0.0,0.0,0.0,0.0,0.0,0.0,0.0,0.0,0.0,0.0,0.0,0.0,0.0,0.0,0.0,0.0,0.0,-3.7337,-3.9334,-4.1644,-4.4153,-4.0861,-3.7972,0.0,0.0,0.0,0.0,0.0,0.0,0.0,0.0,0.0,0.0,0.0,0.0,0.0,0.0,0.0,0.0,0.0,0.0,0.0,0.0,0.0,0.0,0.0,0.0,0.0,0.0,0.0,0.0,0.0,0.0,0.0,0.0,0.0,0.0,0.0,0.0,0.0,0.0,0.0,0.0,0.0,0.0,0.0,0.0,0.0,0.0,0.0,0.0,0.0,0.0,0.0,0.0,0.0,0.0,0.0,0.0,0.0,0.0,0.0,0.0,0.0,0.0,0.0,0.0,0.0,0.0,0.0,0.0,0.0,0.0,0.0,0.0,0.0,0.0,0.0,0.0,0.0,0.0,0.0,0.0,0.0,0.0,0.0,0.0,0.0,0.0,0.0,0.0,0.0,0.0,0.0,0.0,0.0,0.0,0.0,0.0,0.0,0.0,0.0,0.0,0.0,0.0,0.0,0.0,0.0,0.0,0.0,0.0,0.0,-3.8662,0.0,-4.4471,-4.5137,-4.1648,-3.8202,0.0,0.0,0.0,0.0,0.0,0.0,0.0,0.0,0.0,0.0,0.0,0.0,0.0,0.0,0.0,0.0,0.0,0.0,0.0,0.0,0.0,0.0,0.0,0.0,0.0,0.0,0.0,0.0,0.0,0.0,0.0,0.0,0.0,0.0,0.0,0.0,0.0,0.0,0.0,0.0,0.0,0.0,0.0,0.0,0.0,0.0,0.0,0.0,0.0,0.0,0.0,0.0,0.0,0.0,0.0,0.0,0.0,0.0,0.0,0.0,0.0,0.0,0.0,0.0,0.0,0.0,0.0,0.0,0.0,0.0,0.0,0.0,0.0,0.0,0.0,0.0,0.0,0.0,0.0,0.0,0.0,0.0,0.0,0.0,0.0,0.0,0.0,0.0,0.0,0.0,0.0,0.0,0.0,0.0,0.0,0.0,0.0,0.0,0.0,0.0,0.0,0.0,0.0,0.0,0.0,0.0,0.0,0.0,-3.6615,-4.3136,-4.6523,-4.6989,-4.4626,-4.2831,-3.8708,0.0,0.0,0.0,0.0,0.0,0.0,0.0,0.0,0.0,0.0,0.0,0.0,0.0,0.0,0.0,0.0,0.0,0.0,0.0,0.0,0.0,0.0,0.0,0.0,0.0,0.0,0.0,0.0,0.0,0.0,0.0,0.0,0.0,0.0,0.0,0.0,0.0,0.0,0.0,0.0,0.0,0.0,0.0,0.0,0.0,0.0,0.0,0.0,0.0,0.0,0.0,0.0,0.0,0.0,0.0,0.0,0.0,0.0,0.0,0.0,0.0,0.0,0.0,0.0,0.0,0.0,0.0,0.0,0.0,0.0,0.0,0.0,0.0,0.0,0.0,0.0,0.0,0.0,0.0,0.0,0.0,0.0,0.0,0.0,0.0,0.0,0.0,0.0,0.0,0.0,0.0,0.0,0.0,0.0,0.0,0.0,0.0,0.0,0.0,0.0,0.0,0.0,0.0,0.0,0.0,0.0,0.0,0.0,0.0,-4.166,-4.4686,-4.6417,-4.6474,-4.2167,-3.867,0.0,0.0,0.0,0.0,0.0,0.0,0.0,0.0,0.0,0.0,0.0,0.0,0.0,0.0,0.0,0.0,0.0,0.0,0.0,0.0,0.0,0.0,0.0,0.0,0.0,0.0,0.0,0.0,0.0,0.0,0.0,0.0,0.0,0.0,0.0,0.0,0.0,0.0,0.0,0.0,0.0,0.0,0.0,0.0,0.0,0.0,0.0,0.0,0.0,0.0,0.0,0.0,0.0,0.0,0.0,0.0,0.0,0.0,0.0,0.0,0.0,0.0,0.0,0.0,0.0,0.0,0.0,0.0,0.0,0.0,0.0,0.0,0.0,0.0,0.0,0.0,0.0,0.0,0.0,0.0,0.0,0.0,0.0,0.0,0.0,0.0,0.0,0.0,0.0,0.0,0.0,0.0,0.0,0.0,0.0,0.0,0.0,0.0,0.0,0.0,0.0,0.0,0.0,0.0,0.0,0.0,0.0,0.0,0.0,-4.3305,-4.6247,-4.7757,-4.7573,-4.2956,-3.9525,-3.7451,0.0,0.0,0.0,0.0,0.0,0.0,0.0,0.0,0.0,0.0,0.0,0.0,0.0,0.0,0.0,0.0,0.0,0.0,0.0,0.0,0.0,0.0,0.0,0.0,0.0,0.0,0.0,0.0,0.0,0.0,0.0,0.0,0.0,0.0,0.0,0.0,0.0,0.0,0.0,0.0,0.0,0.0,0.0,0.0,0.0,0.0,0.0,0.0,0.0,0.0,0.0,0.0,0.0,0.0,0.0,0.0,0.0,0.0,0.0,0.0,0.0,0.0,0.0,0.0,0.0,0.0,0.0,0.0,0.0,0.0,0.0,0.0,0.0,0.0,0.0,0.0,0.0,0.0,0.0,0.0,0.0,0.0,0.0,0.0,0.0,0.0,0.0,0.0,0.0,0.0,0.0,0.0,0.0,0.0,0.0,0.0,0.0,0.0,0.0,0.0,0.0,0.0,0.0,0.0,0.0,0.0,0.0,0.0,-4.7135,-5.0364,-5.0638,-4.7823,-4.4963,-4.1174,0.0,0.0,0.0,0.0,0.0,0.0,0.0,0.0,0.0,0.0,0.0,0.0,0.0,0.0,0.0,0.0,0.0,0.0,0.0,0.0,0.0,0.0,0.0,0.0,0.0,0.0,0.0,0.0,0.0,0.0,0.0,0.0,0.0,0.0,0.0,0.0,0.0,0.0,0.0,0.0,0.0,0.0,0.0,0.0,0.0,0.0,0.0,0.0,0.0,0.0,0.0,0.0,0.0,0.0,0.0,0.0,0.0,0.0,0.0,0.0,0.0,0.0,0.0,0.0,0.0,0.0,0.0,0.0,0.0,0.0,0.0,0.0,0.0,0.0,0.0,0.0,0.0,0.0,0.0,0.0,0.0,0.0,0.0,0.0,0.0,0.0,0.0,0.0,0.0,0.0,0.0,0.0,0.0,0.0,0.0,0.0,0.0,0.0,0.0,0.0,0.0,0.0,0.0,0.0,0.0,0.0,0.0,0.0,0.0,-4.6883,-5.0081,-5.1312,-5.0146,-4.5774,-4.2322,0.0,0.0,0.0,0.0,0.0,0.0,0.0,0.0,0.0,0.0,0.0,0.0,0.0,0.0,0.0,0.0,0.0,0.0,0.0,0.0,0.0,0.0,0.0,0.0,0.0,0.0,0.0,0.0,0.0,0.0,0.0,0.0,0.0,0.0,0.0,0.0,0.0,0.0,0.0,0.0,0.0,0.0,0.0,0.0,0.0,0.0,0.0,0.0,0.0,0.0,0.0,0.0,0.0,0.0,0.0,0.0,0.0,0.0,0.0,0.0,0.0,0.0,0.0,0.0,0.0,0.0,0.0,0.0,0.0,0.0,0.0,0.0,0.0,0.0,0.0,0.0,0.0,0.0,0.0,0.0,0.0,0.0,0.0,0.0,0.0,0.0,0.0,0.0,0.0,0.0,0.0,0.0,0.0,0.0,0.0,0.0,0.0,0.0,0.0,0.0,0.0,0.0,0.0,0.0,0.0,0.0,0.0,0.0,-4.6028,-4.7679,-5.015,-5.1547,-5.1782,-4.7759,-4.4401,0.0,0.0,0.0,0.0,0.0,0.0,0.0,0.0,0.0,0.0,0.0,0.0,0.0,0.0,0.0,0.0,0.0,0.0,0.0,0.0,0.0,0.0,0.0,0.0,0.0,0.0,0.0,0.0,0.0,0.0,0.0,0.0,0.0,0.0,0.0,0.0,0.0,0.0,0.0,0.0,0.0,0.0,0.0,0.0,0.0,0.0,0.0,0.0,0.0,0.0,0.0,0.0,0.0,0.0,0.0,0.0,0.0,0.0,0.0,0.0,0.0,0.0,0.0,0.0,0.0,0.0,0.0,0.0,0.0,0.0,0.0,0.0,0.0,0.0,0.0,0.0,0.0,0.0,0.0,0.0,0.0,0.0,0.0,0.0,0.0,0.0,0.0,0.0,0.0,0.0,0.0,0.0,0.0,0.0,0.0,0.0,0.0,0.0,0.0,0.0,0.0,0.0,0.0,0.0,0.0,0.0,0.0,0.0,-4.5822,-4.8816,-5.0171,-5.1309,-5.2227,-4.9856,-4.6709,0.0,0.0,0.0,0.0,0.0,0.0,0.0,0.0,0.0,0.0,0.0,0.0,0.0,0.0,0.0,0.0,0.0,0.0,0.0,0.0,0.0,0.0,0.0,0.0,0.0,0.0,0.0,0.0,0.0,0.0,0.0,0.0,0.0,0.0,0.0,0.0,0.0,0.0,0.0,0.0,0.0,0.0,0.0,0.0,0.0,0.0,0.0,0.0,0.0,0.0,0.0,0.0,0.0,0.0,0.0,0.0,0.0,0.0,0.0,0.0,0.0,0.0,0.0,0.0,0.0,0.0,0.0,0.0,0.0,0.0,0.0,0.0,0.0,0.0,0.0,0.0,0.0,0.0,0.0,0.0,0.0,0.0,0.0,0.0,0.0,0.0,0.0,0.0,0.0,0.0,0.0,0.0,0.0,0.0,0.0,0.0,0.0,0.0,0.0,0.0,0.0,0.0,0.0,0.0,0.0,0.0,0.0,0.0,-4.4719,-4.753,-4.8598,-4.9655,-5.081,-4.893,-4.6609,0.0,0.0,0.0,0.0,0.0,0.0,0.0,0.0,0.0,0.0,0.0,0.0,0.0,0.0,0.0,0.0,0.0,0.0,0.0,0.0,0.0,0.0,0.0,0.0,0.0,0.0,0.0,0.0,0.0,0.0,0.0,0.0,0.0,0.0,0.0,0.0,0.0,0.0,0.0,0.0,0.0,0.0,0.0,0.0,0.0,0.0,0.0,0.0,-3.9198,0.0,0.0,0.0,0.0,0.0,0.0,0.0,0.0,0.0,0.0,0.0,0.0,0.0,0.0,0.0,0.0,0.0,0.0,0.0,0.0,0.0,0.0,0.0,0.0,0.0,0.0,0.0,0.0,0.0,0.0,0.0,0.0,0.0,0.0,0.0,0.0,0.0,0.0,0.0,0.0,0.0,0.0,0.0,0.0,0.0,0.0,0.0,0.0,0.0,0.0,0.0,0.0,0.0,0.0,0.0,0.0,0.0,0.0,0.0,-4.4002,-4.693,-4.7871,-4.8945,-5.0262,-4.8925,-4.68,0.0,0.0,0.0,0.0,0.0,0.0,0.0,0.0,0.0,0.0,0.0,0.0,0.0,0.0,0.0,0.0,0.0,0.0,0.0,0.0,0.0,0.0,0.0,0.0,0.0,0.0,0.0,0.0,0.0,0.0,0.0,0.0,0.0,0.0,0.0,0.0,0.0,0.0,0.0,0.0,0.0,0.0,0.0,0.0,0.0,0.0,0.0,0.0,0.0,0.0,0.0,0.0,0.0,0.0,0.0,0.0,0.0,0.0,0.0,0.0,0.0,0.0,0.0,0.0,0.0,0.0,0.0,0.0,0.0,0.0,0.0,0.0,0.0,0.0,0.0,0.0,0.0,0.0,0.0,0.0,0.0,0.0,0.0,0.0,0.0,0.0,0.0,0.0,0.0,0.0,0.0,0.0,0.0,0.0,0.0,0.0,0.0,0.0,0.0,0.0,0.0,0.0,0.0,0.0,0.0,0.0,0.0,-4.1375,-4.3336,-4.6452,-4.733,-4.8436,-4.993,-4.9009,-4.6888,-4.3589,0.0,0.0,0.0,0.0,0.0,0.0,0.0,0.0,0.0,0.0,0.0,0.0,0.0,0.0,0.0,0.0,0.0,0.0,0.0,0.0,0.0,0.0,0.0,0.0,0.0,0.0,0.0,0.0,0.0,0.0,0.0,0.0,0.0,0.0,0.0,0.0,0.0,0.0,-3.3152,-3.8594,0.0,0.0,0.0,0.0,0.0,0.0,0.0,0.0,-4.4185,0.0,0.0,0.0,0.0,0.0,0.0,0.0,0.0,0.0,0.0,0.0,0.0,0.0,0.0,0.0,0.0,0.0,0.0,0.0,0.0,0.0,0.0,0.0,0.0,0.0,0.0,0.0,0.0,0.0,0.0,0.0,0.0,0.0,0.0,0.0,0.0,0.0,0.0,0.0,0.0,0.0,0.0,0.0,0.0,0.0,0.0,0.0,0.0,0.0,0.0,0.0,0.0,0.0,0.0,0.0,0.0,-4.0788,-4.0872,-4.2304,-4.5156,-4.6326,-4.7322,-4.8088,-4.8089,-4.6477,-4.3369,0.0,0.0,0.0,0.0,0.0,0.0,0.0,0.0,0.0,0.0,0.0,0.0,0.0,0.0,0.0,0.0,0.0,0.0,0.0,0.0,0.0,0.0,0.0,0.0,0.0,0.0,0.0,0.0,0.0,0.0,0.0,0.0,0.0,0.0,0.0,0.0,0.0,0.0,0.0,-4.278,-4.6,0.0,0.0,0.0,0.0,0.0,0.0,0.0,0.0,-4.498,0.0,0.0,0.0,0.0,0.0,0.0,0.0,0.0,0.0,0.0,0.0,0.0,0.0,0.0,0.0,0.0,0.0,0.0,0.0,0.0,0.0,0.0,0.0,0.0,0.0,0.0,0.0,0.0,0.0,0.0,0.0,0.0,0.0,0.0,0.0,0.0,0.0,0.0,0.0,0.0,0.0,0.0,0.0,0.0,0.0,0.0,0.0,0.0,0.0,0.0,0.0,0.0,0.0,0.0,0.0,-4.0033,-4.063,-4.2323,-4.5309,-4.6422,-4.7358,-4.812,-4.7701,-4.6295,0.0,0.0,0.0,0.0,0.0,0.0,0.0,0.0,0.0,0.0,0.0,0.0,0.0,0.0,0.0,0.0,0.0,0.0,0.0,0.0,0.0,0.0,0.0,0.0,0.0,0.0,0.0,0.0,0.0,0.0,0.0,0.0,0.0,0.0,0.0,0.0,0.0,0.0,0.0,0.0,-4.3924,-4.6847,-4.8557,0.0,0.0,0.0,0.0,0.0,0.0,-4.6126,-4.6052,0.0,0.0,0.0,0.0,0.0,0.0,0.0,0.0,0.0,0.0,0.0,0.0,0.0,0.0,0.0,0.0,0.0,0.0,0.0,0.0,0.0,0.0,0.0,0.0,0.0,0.0,0.0,0.0,0.0,0.0,0.0,0.0,0.0,0.0,0.0,0.0,0.0,0.0,0.0,0.0,0.0,0.0,0.0,0.0,0.0,0.0,0.0,0.0,0.0,0.0,0.0,0.0,0.0,0.0,0.0,-3.9212,-4.0562,-4.26,-4.5425,-4.6618,-4.7519,-4.8182,-4.7457,-4.6096,0.0,0.0,0.0,0.0,0.0,0.0,0.0,0.0,0.0,0.0,0.0,0.0,0.0,0.0,0.0,0.0,0.0,0.0,0.0,0.0,0.0,0.0,0.0,0.0,0.0,0.0,0.0,0.0,0.0,0.0,0.0,0.0,0.0,0.0,0.0,0.0,0.0,0.0,0.0,0.0,0.0,-4.7596,-4.9451,-4.9868,0.0,0.0,0.0,0.0,-4.5374,-4.7276,0.0,0.0,0.0,0.0,0.0,0.0,0.0,0.0,0.0,0.0,0.0,0.0,0.0,0.0,0.0,0.0,0.0,0.0,0.0,0.0,0.0,0.0,0.0,0.0,0.0,0.0,0.0,0.0,0.0,0.0,0.0,0.0,0.0,0.0,0.0,0.0,0.0,0.0,0.0,0.0,0.0,0.0,0.0,0.0,0.0,0.0,0.0,0.0,0.0,0.0,0.0,0.0,0.0,0.0,0.0,0.0,-3.8356,-4.0747,-4.2713,-4.4191,-4.6176,-4.7095,-4.6919,-4.6823,-4.578,0.0,0.0,0.0,0.0,0.0,0.0,0.0,0.0,0.0,0.0,0.0,0.0,0.0,0.0,0.0,0.0,0.0,0.0,0.0,0.0,0.0,0.0,0.0,0.0,0.0,0.0,0.0,0.0,0.0,0.0,0.0,0.0,0.0,0.0,0.0,0.0,0.0,0.0,0.0,0.0,0.0,-4.9574,-4.8551,-5.0326,-5.0627,0.0,0.0,-4.7736,-4.649,-4.8638,0.0,0.0,0.0,0.0,0.0,0.0,0.0,0.0,0.0,0.0,0.0,0.0,0.0,0.0,0.0,0.0,0.0,0.0,0.0,0.0,0.0,0.0,0.0,0.0,0.0,0.0,0.0,0.0,0.0,0.0,0.0,0.0,0.0,0.0,0.0,0.0,0.0,0.0,0.0,0.0,0.0,0.0,0.0,0.0,0.0,0.0,0.0,0.0,0.0,0.0,0.0,0.0,0.0,0.0,0.0,-3.6837,-3.9623,-4.1383,-4.3198,-4.4977,-4.6463,-4.7083,-4.6726,-4.582,-4.47,0.0,0.0,0.0,0.0,0.0,0.0,0.0,0.0,0.0,0.0,0.0,0.0,0.0,0.0,0.0,0.0,0.0,0.0,0.0,0.0,0.0,0.0,0.0,0.0,0.0,0.0,0.0,0.0,0.0,0.0,0.0,0.0,0.0,0.0,0.0,0.0,0.0,0.0,0.0,0.0,0.0,0.0,-4.9868,-5.1182,0.0,0.0,0.0,-4.8861,-4.715,0.0,0.0,0.0,0.0,0.0,0.0,0.0,0.0,0.0,0.0,0.0,0.0,0.0,0.0,0.0,0.0,0.0,0.0,0.0,0.0,0.0,0.0,0.0,0.0,0.0,0.0,0.0,0.0,0.0,0.0,0.0,0.0,0.0,0.0,0.0,0.0,0.0,0.0,0.0,0.0,0.0,0.0,0.0,0.0,0.0,0.0,0.0,0.0,0.0,0.0,0.0,0.0,0.0,0.0,0.0,0.0,0.0,-4.0346,-4.1981,-4.3717,-4.5551,-4.682,-4.7122,-4.6484,-4.511,0.0,0.0,0.0,0.0,0.0,0.0,0.0,0.0,0.0,0.0,0.0,0.0,0.0,0.0,0.0,0.0,0.0,0.0,0.0,0.0,0.0,0.0,0.0,0.0,0.0,0.0,0.0,-2.5555,0.0,0.0,0.0,0.0,0.0,0.0,0.0,0.0,0.0,0.0,0.0,0.0,0.0,0.0,-4.8297,-5.0132,-5.0972,-5.1215,0.0,0.0,-4.9153,-4.7164,-4.7858,-4.6991,0.0,0.0,0.0,0.0,0.0,0.0,0.0,0.0,0.0,0.0,0.0,0.0,0.0,0.0,0.0,0.0,0.0,0.0,0.0,0.0,0.0,0.0,0.0,0.0,0.0,0.0,0.0,0.0,0.0,0.0,0.0,0.0,0.0,0.0,0.0,0.0,0.0,0.0,0.0,0.0,0.0,0.0,0.0,0.0,0.0,0.0,0.0,0.0,0.0,0.0,0.0,0.0,0.0,0.0,-3.7245,-3.9315,-4.2364,-4.4279,-4.5075,-4.6903,-4.7232,-4.5968,-4.5082,-4.3902,0.0,0.0,0.0,0.0,0.0,0.0,0.0,0.0,0.0,0.0,0.0,0.0,0.0,0.0,0.0,0.0,0.0,0.0,0.0,0.0,0.0,0.0,0.0,0.0,0.0,0.0,0.0,0.0,0.0,0.0,0.0,0.0,0.0,0.0,0.0,0.0,0.0,0.0,0.0,0.0,0.0,-4.7164,-4.7748,-4.8699,-4.9428,0.0,-4.8813,-4.7707,-4.6153,-4.7437,-4.6799,-4.1439,0.0,0.0,0.0,0.0,0.0,0.0,0.0,0.0,0.0,0.0,0.0,0.0,0.0,0.0,0.0,0.0,0.0,0.0,0.0,0.0,0.0,0.0,0.0,0.0,0.0,0.0,0.0,0.0,0.0,0.0,0.0,0.0,0.0,0.0,0.0,0.0,0.0,0.0,0.0,0.0,0.0,0.0,0.0,0.0,0.0,0.0,0.0,0.0,0.0,0.0,0.0,0.0,0.0,-3.8182,-4.0758,-4.2838,-4.4406,-4.5484,-4.6683,-4.6655,-4.5372,-4.4148,-4.2689,0.0,0.0,0.0,0.0,0.0,0.0,0.0,0.0,0.0,0.0,0.0,0.0,0.0,0.0,0.0,0.0,0.0,0.0,0.0,0.0,0.0,0.0,0.0,0.0,0.0,0.0,0.0,0.0,-2.7925,-2.8042,-2.9045,0.0,0.0,0.0,0.0,0.0,0.0,0.0,0.0,0.0,0.0,-4.7164,-4.7317,-4.7936,0.0,0.0,-4.8342,-4.744,-4.6868,-4.6569,-4.534,-4.2146,-4.0404,0.0,0.0,0.0,0.0,0.0,0.0,0.0,0.0,0.0,0.0,0.0,0.0,0.0,0.0,0.0,0.0,0.0,0.0,0.0,0.0,0.0,0.0,0.0,0.0,0.0,0.0,0.0,0.0,0.0,0.0,0.0,0.0,0.0,0.0,0.0,0.0,0.0,0.0,0.0,0.0,0.0,0.0,0.0,0.0,0.0,0.0,0.0,0.0,0.0,0.0,0.0,0.0,-3.8472,-4.1555,-4.2766,-4.3963,-4.5214,-4.5774,-4.5533,-4.4373,-4.2884,-4.1359,0.0,0.0,0.0,0.0,0.0,0.0,0.0,0.0,0.0,0.0,0.0,0.0,0.0,0.0,0.0,0.0,0.0,0.0,0.0,0.0,0.0,0.0,0.0,0.0,0.0,0.0,0.0,0.0,-3.0086,-3.0021,-3.027,0.0,0.0,0.0,0.0,0.0,0.0,0.0,0.0,0.0,0.0,-4.6471,-4.6618,-4.6819,-4.7188,-4.8006,-4.7318,-4.6742,-4.6803,-4.5489,-4.3909,-4.2223,0.0,0.0,0.0,0.0,0.0,0.0,0.0,0.0,0.0,0.0,0.0,0.0,0.0,0.0,0.0,0.0,0.0,0.0,0.0,0.0,0.0,0.0,0.0,0.0,0.0,0.0,0.0,-4.0383,0.0,0.0,-3.9268,0.0,0.0,0.0,0.0,0.0,0.0,0.0,0.0,0.0,0.0,0.0,0.0,0.0,0.0,0.0,0.0,0.0,0.0,0.0,0.0,0.0,0.0,-3.7899,-4.0959,-4.1931,-4.2816,-4.3823,-4.407,-4.3781,-4.2909,-4.1444,-4.0203,-3.9159,0.0,0.0,0.0,0.0,0.0,0.0,0.0,0.0,0.0,0.0,0.0,0.0,0.0,0.0,0.0,0.0,0.0,0.0,0.0,0.0,0.0,0.0,0.0,0.0,0.0,0.0,-3.3077,-3.3063,-3.2412,0.0,0.0,0.0,0.0,0.0,0.0,0.0,0.0,0.0,-4.3524,-4.4232,-4.4773,-4.532,-4.504,-4.5097,-4.5963,-4.5584,-4.5295,-4.5387,-4.4161,-4.2703,0.0,0.0,0.0,0.0,0.0,0.0,0.0,0.0,0.0,0.0,0.0,0.0,0.0,0.0,0.0,0.0,0.0,0.0,0.0,0.0,0.0,0.0,0.0,0.0,0.0,0.0,0.0,-4.0922,-4.0221,0.0,0.0,0.0,0.0,0.0,0.0,0.0,0.0,0.0,0.0,0.0,-3.8126,-3.9237,0.0,0.0,0.0,0.0,0.0,0.0,0.0,0.0,0.0,0.0,0.0,0.0,-3.7874,-4.0577,-4.1341,-4.2146,-4.3092,-4.3657,-4.3611,-4.2802,-4.1309,-3.883,-3.542,0.0,0.0,0.0,0.0,0.0,0.0,0.0,0.0,0.0,0.0,0.0,0.0,0.0,0.0,0.0,0.0,0.0,0.0,0.0,0.0,0.0,0.0,0.0,0.0,0.0,-3.2823,0.0,0.0,0.0,0.0,0.0,0.0,0.0,0.0,0.0,0.0,-4.1838,-4.2925,-4.3314,-4.4531,-4.5073,-4.4314,-4.413,-4.4134,0.0,0.0,0.0,0.0,0.0,0.0,0.0,0.0,0.0,0.0,0.0,0.0,0.0,0.0,-4.4447,-4.2347,-4.1468,-4.1349,-4.2304,0.0,0.0,0.0,0.0,0.0,0.0,0.0,0.0,0.0,0.0,0.0,0.0,0.0,0.0,-4.1233,-4.0631,-4.0606,0.0,0.0,0.0,0.0,0.0,0.0,0.0,0.0,-3.8001,-3.8292,-3.8351,-3.9003,-3.9343,0.0,-3.9801,-3.9466,0.0,0.0,0.0,0.0,0.0,0.0,0.0,0.0,-3.8042,-4.0442,-4.0296,-4.0796,-4.1929,-4.1997,-4.1821,-4.1293,-3.9734,-3.7037,-3.3184,-3.1931,-3.0573,0.0,0.0,0.0,0.0,0.0,0.0,0.0,0.0,0.0,0.0,0.0,0.0,0.0,0.0,0.0,0.0,0.0,0.0,0.0,0.0,0.0,0.0,0.0,-3.3903,0.0,0.0,0.0,0.0,0.0,0.0,0.0,0.0,0.0,-4.0582,-4.1727,-4.272,-4.3214,-4.4075,-4.4348,-4.335,0.0,0.0,0.0,0.0,0.0,0.0,0.0,-4.172,-4.131,-4.0978,-4.0738,-4.0577,-4.2585,-4.3821,-4.2705,0.0,0.0,-4.3318,-4.2696,-4.2648,-4.3141,-4.3347,-4.3335,-4.3132,-4.347,-4.3589,0.0,0.0,0.0,0.0,0.0,0.0,0.0,0.0,-4.1342,-4.1338,0.0,-3.9989,0.0,0.0,0.0,0.0,-3.834,-3.9066,0.0,0.0,-3.9647,-3.9209,-3.7536,-3.7717,-3.8066,-3.8634,-3.949,-4.0092,-4.045,-3.9187,0.0,0.0,0.0,0.0,0.0,0.0,-3.8254,-4.042,-3.8975,-3.8858,-4.0308,-3.916,-3.8457,-3.8381,-3.685,-3.4878,-3.2706,-3.2929,-3.1946,-2.9363,-3.0793,0.0,0.0,0.0,0.0,0.0,0.0,0.0,0.0,0.0,0.0,0.0,0.0,0.0,0.0,0.0,0.0,0.0,0.0,0.0,0.0,-3.4999,0.0,0.0,0.0,0.0,0.0,0.0,0.0,0.0,0.0,-4.0338,-4.0338,-4.0481,-4.123,-4.3267,0.0,0.0,0.0,0.0,-4.238,-4.2013,-4.1949,-4.2078,-4.2332,-4.1787,-4.1276,-4.126,0.0,0.0,-3.9451,-4.1699,-4.291,-4.1001,-4.234,-4.3956,-4.508,-4.4685,-4.4429,-4.4496,-4.4003,-4.3787,-4.4367,-4.4519,-4.4384,-4.6205,0.0,0.0,0.0,0.0,-4.2109,-4.2428,-4.3498,-4.249,-4.1827,-4.1388,-4.0388,0.0,0.0,0.0,0.0,0.0,0.0,-3.7961,-3.8192,-3.7955,-3.8021,-3.8256,-3.815,-3.8802,-4.0032,-4.0204,-4.0807,-4.1621,-3.9832,-3.8934,-3.9119,0.0,0.0,0.0,0.0,-3.7046,-3.874,-3.7571,-3.7375,-3.8278,-3.7464,-3.6877,-3.6619,-3.4993,-3.376,-3.2909,-3.2001,-3.1306,-3.0833,-3.0467,0.0,0.0,0.0,0.0,0.0,0.0,0.0,0.0,0.0,0.0,0.0,0.0,0.0,0.0,0.0,0.0,0.0,0.0,0.0,-3.3802,-3.5474,-3.623,0.0,0.0,0.0,0.0,0.0,0.0,0.0,0.0,0.0,-3.9671,-4.1049,-4.1971,0.0,0.0,-4.2409,-4.1866,-4.1475,-4.1194,-4.1111,-4.0873,0.0,-4.0888,-4.0836,-4.0715,-4.0699,-4.094,-4.1244,-4.1592,-4.2371,-4.2694,-4.2063,-4.2479,-4.2894,-4.2767,-4.3358,-4.4026,-4.4532,-4.4833,-4.4925,-4.4671,-4.4993,-4.5145,-4.7486,-4.5894,-4.4223,-4.3878,-4.4236,-4.293,-4.2907,-4.3793,-4.2596,-4.1917,-4.1534,-4.0579,-3.9479,-3.8304,-3.7872,0.0,0.0,0.0,-3.7573,-3.8192,-3.7181,-3.7032,-3.7648,-3.7518,-3.8154,-3.9368,-3.9579,-4.0258,-4.1247,-3.9567,-3.8732,-3.873,0.0,-3.6754,-3.7605,-3.6487,-3.6453,-3.7343,-3.6037,-3.5454,-3.58,-3.5371,-3.4907,-3.4448,-3.348,-3.2657,-3.2055,-3.094,-3.033,-3.0332,-2.9617,-2.8793,0.0,0.0,0.0,0.0,0.0,0.0,0.0,0.0,0.0,0.0,0.0,-2.8063,-2.7026,0.0,0.0,0.0,-3.125,-3.2978,-3.4756,-3.5846,0.0,0.0,0.0,0.0,0.0,0.0,0.0,-3.8688,-3.878,-3.896,-3.9364,-4.0552,-4.1348,-4.145,-4.1628,-4.1502,-4.0829,0.0,-4.0106,-3.9671,-3.9504,-3.9627,-3.9956,-4.0055,-4.0216,-4.0493,-4.0878,-4.1278,-4.1694,-4.2001,-4.2109,-4.1894,-4.2017,-4.1986,-4.1309,-4.207,-4.3009,-4.3702,-4.4344,-4.4757,-4.4581,-4.4942,-4.5111,-4.7485,-4.7361,-4.5235,-4.4899,-4.5659,-4.3816,-4.3066,-4.3185,-4.2028,-4.1741,-4.1959,-4.0567,-4.0086,-4.0224,-3.8788,0.0,-3.8741,-3.7853,-3.7754,-3.8397,-3.707,-3.6405,-3.6405,-3.6363,-3.6624,-3.7309,-3.8057,-3.874,-3.9446,-3.855,-3.8147,-3.8254,-3.7214,-3.7125,-3.7815,-3.6643,-3.6035,-3.6168,-3.4256,-3.3288,-3.3224,-3.2967,-3.2677,-3.2204,-3.2134,-3.1582,-3.0664,-2.9992,-2.9244,-2.8532,-2.8427,-2.7913,-2.6803,0.0,0.0,0.0,0.0,0.0,0.0,0.0,0.0,0.0,0.0,0.0,0.0,0.0,0.0,-3.1529,-3.2759,0.0,-3.532,-3.6022,0.0,0.0,0.0,-3.7008,-3.6624,-3.7556,-3.8602,-3.9336,0.0,0.0,-3.9349,-3.9307,-3.9733,-4.0919,-4.0677,-4.0163,-3.9502,-3.9524,-3.9226,-3.8122,-3.8038,-3.837,-3.9001,-3.9146,-3.9261,-3.9864,-4.0147,-4.0117,-4.0247,-4.0692,-4.0876,-4.0493,-4.094,-4.1186,-4.0478,-4.0868,-4.1546,-4.2155,-4.2888,-4.3647,-4.4192,-4.4322,-4.4322,-4.7485,-4.7371,-4.5291,-4.4656,-4.4973,-4.294,-4.2509,-4.3057,-4.1767,-4.144,-4.1783,-4.0448,-3.939,-3.8546,-3.8232,-3.8102,-3.8068,-3.7678,-3.762,-3.7749,-3.685,-3.6405,-3.6377,-3.6064,-3.6199,-3.6764,-3.7243,-3.7509,-3.7643,-3.7164,-3.6662,-3.6181,-3.544,-3.5422,-3.6007,-3.4819,-3.4167,-3.4166,-3.2556,-3.1457,-3.0815,-3.0821,-3.105,-3.1459,-3.0591,-3.0281,-3.0569,-2.9411,-2.8706,-2.8505,-2.7986,-2.7407,-2.6712,-2.5794,0.0,0.0,0.0,0.0,0.0,0.0,0.0,0.0,0.0,-3.0079,-2.8348,0.0,-3.2542,0.0,-3.3235,-3.4371,-3.4537,-3.5142,0.0,0.0,-3.541,-3.6129,-3.7607,-3.7593,-3.7986,-3.9238,-3.8855,-3.8546,-3.8635,-3.8575,-3.8429,-3.8281,-3.9068,-3.944,-3.8777,-3.871,-3.8377,-3.7327,-3.7146,-3.7168,-3.7172,-3.7128,-3.7272,-3.7334,-3.7379,-3.756,-3.8045,-3.8235,-3.8516,-3.8913,-3.9554,-3.9693,-3.9154,-3.9519,-4.001,-4.0277,-4.1574,-4.2774,-4.2908,-4.2907,-4.2929,-4.605,-4.5697,-4.4189,-4.3538,-4.3329,-4.2248,-4.2253,-4.2848,-4.1645,-4.1013,-4.0845,-3.9673,-3.8898,-3.8478,-3.8172,-3.7819,-3.7414,-3.7587,-3.7158,-3.6481,-3.6305,-3.6072,-3.5717,-3.5812,-3.6008,-3.623,-3.6724,-3.6706,-3.6204,-3.6091,-3.5691,-3.5029,-3.4101,-3.3815,-3.4106,-3.3442,-3.2748,-3.2192,-3.0331,-2.8997,-2.8157,-2.8489,-2.8956,-2.9714,-2.8822,-2.8627,-2.9095,-2.8157,-2.7486,-2.7236,-2.7074,-2.6953,-2.6698,-2.579,-2.5228,0.0,0.0,0.0,0.0,0.0,0.0,0.0,0.0,0.0,0.0,0.0,-3.2682,-3.2319,-3.3252,-3.4163,-3.4967,-3.5339,-3.5478,-3.5447,-3.5653,-3.6203,-3.7082,-3.7129,-3.7365,-3.819,-3.7702,-3.7325,-3.7332,-3.7038,-3.6745,-3.6372,-3.7012,-3.7419,-3.704,-3.7012,-3.6606,-3.5578,-3.5466,-3.5597,-3.5722,-3.6139,-3.6414,-3.6414,-3.6414,-3.6523,-3.6933,-3.7233,-3.7556,-3.8023,-3.8616,-3.897,-3.86,-3.8785,-3.904,-3.923,-3.9944,-4.094,-4.1749,-4.1955,-4.1993,-4.4187,-4.351,-4.2879,-4.2273,-4.1736,-4.1578,-4.1885,-4.2411,-4.1456,-4.0494,-3.9678,-3.8775,-3.8522,-3.8773,-3.8307,-3.7641,-3.6928,-3.7255,-3.6618,-3.5226,-3.5686,-3.5541,-3.4803,-3.5511,-3.579,-3.5589,-3.6103,-3.5894,-3.4942,-3.5018,-3.4756,-3.4081,-3.2869,-3.2214,-3.2154,-3.2005,-3.1384,-3.0141,-2.8014,-2.6578,-2.5853,-2.6428,-2.7119,-2.7806,-2.7257,-2.7078,-2.7364,-2.6823,-2.6294,-2.5841,-2.6382,-2.6766,-2.6828,-2.6362,-2.6136,0.0,-2.6323,0.0,0.0,0.0,0.0,0.0,0.0,0.0,0.0,-3.2134,-3.2484,-3.3017,-3.3157,-3.3856,-3.5376,-3.5641,-3.5662,-3.5614,-3.6206,-3.6331,-3.585,-3.6291,-3.6662,-3.6641,-3.6206,-3.5793,-3.5878,-3.5409,-3.5054,-3.4955,-3.4969,-3.4941,-3.465,-3.4924,-3.479,-3.355,-3.3422,-3.3776,-3.4356,-3.518,-3.5581,-3.5624,-3.5352,-3.5715,-3.5748,-3.6239,-3.6775,-3.7192,-3.7754,-3.8154,-3.8154,-3.8138,-3.82,-3.8065,-3.808,-3.878,-4.0398,-4.0869,-4.1177,-4.4187,-4.351,-4.2879,-4.2543,-4.2265,-4.0608,-4.0339,-4.0904,-4.073,-4.0155,-3.9404,-3.9009,-3.8485,-3.7963,-3.8027,-3.7641,-3.6855,-3.6476,-3.6012,-3.5551,-3.5458,-3.5176,-3.4654,-3.4926,-3.4802,-3.4351,-3.4589,-3.4302,-3.3597,-3.3214,-3.2749,-3.2043,-3.1235,-3.0638,-3.0045,0.0,0.0,0.0,-2.6389,-2.5652,-2.5468,-2.5988,-2.6812,-2.773,-2.6871,0.0,-2.7596,-2.7169,-2.6824,-2.6761,-2.7761,0.0,0.0,0.0,0.0,0.0,0.0,0.0,0.0,0.0,0.0,0.0,-2.9718,-2.9771,-3.0037,-3.1455,-3.2553,-3.3157,-3.3606,-3.3824,-3.3594,-3.4358,-3.4708,-3.414,-3.4523,-3.486,-3.5026,-3.5118,-3.5292,-3.5447,-3.4843,-3.4369,-3.4458,-3.427,-3.395,-3.3485,-3.3457,-3.3043,-3.1942,-3.3138,-3.3724,-3.2794,-3.2362,-3.2327,-3.2436,-3.2464,-3.2567,-3.2219,-3.1819,-3.2106,-3.3028,-3.3366,-3.411,-3.5477,-3.6415,-3.6692,-3.6199,-3.6492,-3.6707,-3.6168,-3.6076,-3.6676,-3.8562,-3.8982,-3.8825,-4.3427,-4.2439,-4.161,-4.1185,0.0,-3.9482,-3.9337,-4.0016,-3.9677,-3.9287,-3.8867,-3.7563,-3.6926,-3.6805,-3.6634,-3.5974,-3.5073,-3.5685,-3.5314,-3.4196,-3.4568,-3.4433,-3.3877,-3.3755,-3.3544,-3.3131,-3.2882,-3.2437,-3.1886,-3.1605,-3.1323,-3.1014,-3.0315,-2.969,-2.9101,-2.7459,-2.6271,-2.5673,-2.5181,-2.4741,-2.4397,-2.4887,-2.5916,-2.7363,-2.6908,0.0,0.0,0.0,0.0,0.0,0.0,0.0,0.0,-2.743,0.0,-2.7793,-2.7272,-2.7417,-2.832,-2.8124,-2.8203,-2.8791,-2.8582,-2.8786,-2.9717,-3.1075,-3.1997,-3.2453,-3.2562,-3.2658,-3.2871,-3.3154,-3.329,-3.3184,-3.3391,-3.3659,-3.3872,-3.3898,-3.4012,-3.4162,-3.3544,-3.3001,-3.2777,-3.257,-3.2097,-3.1316,-3.1469,-3.1282,-3.048,-3.1214,-3.171,-3.1021,-3.1495,-3.1516,-3.1007,-3.1226,-3.1165,-3.0907,-3.0595,-3.0798,-3.1752,-3.2208,-3.2882,-3.421,-3.5014,-3.5353,-3.5106,-3.5276,-3.5383,-3.5091,-3.4983,-3.5272,-3.636,-3.6958,-3.7419,-4.2314,-4.116,-4.0261,-3.9589,-3.908,-3.8437,-3.8478,-3.8954,-3.8523,0.0,0.0,-3.5992,-3.5274,-3.5468,-3.5102,-3.4387,-3.346,-3.4859,-3.4552,-3.2962,-3.3676,-3.3591,-3.2892,-3.2706,-3.2353,-3.187,-3.1384,-3.0939,-3.0478,-3.0389,-3.0315,-3.0269,-2.9642,-2.8989,-2.8115,-2.6077,-2.4719,-2.4204,-2.4131,-2.3897,-2.3361,-2.3759,-2.4925,-2.696,-2.6717,-2.7191,-2.869,-2.8132,-2.7662,-2.7356,-2.7378,-2.7679,-2.8153,-2.7751,-2.7715,-2.819,-2.8229,-2.8072,-2.7706,-2.802,-2.8033,-2.7562,-2.739,-2.804,-2.9647,-3.0357,-3.0855,-3.13,-3.1039,-3.1222,-3.1967,-3.1863,-3.1863,-3.2332,-3.2475,-3.2593,-3.2856,-3.2764,-3.2803,-3.284,-3.2415,-3.1761,-3.1281,-3.1066,-3.0464,-2.9601,-2.9712,-2.9627,-2.9209,-2.9601,-2.9987,-2.9692,-3.0506,-3.089,-3.0184,-3.0414,-3.0771,-3.0323,-3.0133,-3.0331,-3.0913,-3.1527,-3.217,-3.3178,-3.3747,-3.4112,-3.4306,-3.4321,-3.4291,-3.4291,-3.4275,-3.4321,-3.4534,-3.5194,-3.5963,-4.125,-4.0487,-3.9616,-3.9017,-3.8422,-3.7694,-3.7283,-3.6969,-3.743,-3.7242,-3.647,-3.6127,-3.5219,-3.416,-3.4581,-3.4646,-3.4397,-3.4098,-3.3971,-3.4103,-3.3858,-3.3214,-3.2195,-3.2226,-3.1766,-3.0804,-3.064,-3.0551,-3.0464,-2.9889,-2.9628,-2.958,-2.9058,-2.7868,-2.6283,-2.5417,-2.436,-2.3213,-2.3213,-2.3172,-2.3036,-2.3351,-2.4426,-2.6318,-2.5296,-2.5985,-2.873,-2.7954,-2.7782,-2.8677,-2.8973,-2.8996,-2.8644,-2.8363,-2.8085,-2.7693,-2.7654,-2.7824,-2.8216,-2.7876,-2.7615,-2.7482,-2.6905,-2.7143,-2.8473,-2.8746,-2.9035,-2.9588,-2.9947,-2.9986,-2.9643,-3.0535,-3.1086,-3.1187,-3.15,-3.1867,-3.2326,-3.1939,-3.1692,-3.1814,-3.1633,-3.1154,-3.0599,-3.0375,-3.0006,-2.9366,-2.8908,-2.8451,-2.819,-2.8712,-2.9314,-2.9371,-2.9746,-2.9927,-2.9787,-2.9685,-2.9794,-2.9645,-2.9224,-2.92,-2.982,-3.0077,-3.0711,-3.2303,-3.2705,-3.2957,-3.338,-3.3552,-3.3495,-3.3422,-3.3479,-3.3587,-3.4106,-3.4083,-3.3919,-4.0085,-3.8991,-3.8181,-3.7725,-3.7662,-3.7459,-3.6626,-3.5503,-3.611,-3.614,-3.5666,-3.4816,-3.3956,-3.3339,-3.355,-3.341,-3.2982,-3.2772,-3.2687,-3.2606,-3.21,-3.1645,-3.1141,-3.0611,-3.0053,-2.9525,-2.8824,-2.8671,-2.8918,-2.8699,-2.8663,-2.8903,-2.817,-2.7149,-2.6171,-2.5075,-2.4238,-2.3666,-2.3457,-2.3298,-2.3309,-2.3913,-2.4876,-2.622,-2.5846,-2.6407,-2.8082,-2.7422,-2.7341,-2.8084,-2.7906,-2.7915,-2.8009,-2.7695,-2.7484,-2.751,-2.7236,-2.7314,-2.7876,-2.7249,-2.6905,-2.6905,-2.622,-2.6029,-2.6627,-2.6984,-2.7398,-2.8009,-2.7986,-2.7963,-2.7928,-2.8413,-2.8875,-2.9164,-2.9453,-2.9885,-3.0167,-3.0041,-3.0012,-3.0388,-3.0336,-3.0098,-2.9684,-2.9755,-2.9358,-2.8516,-2.8046,-2.7798,-2.7562,-2.7968,-2.8333,-2.851,-2.9178,-2.9478,-2.9147,-2.9282,-2.9333,-2.9075,-2.8777,-2.883,-2.9393,-2.9518,-3.0064,-3.1114,-3.1456,-3.1501,-3.184,-3.1855,-3.1972,-3.2304,-3.2,-3.2144,-3.2548,-3.2505,-3.2475,-3.871,-3.7681,-3.6797,-3.6624,-3.691,-3.698,-3.6039,-3.4565,-3.4673,-3.4703,-3.4508,-3.3407,-3.2806,-3.2553,-3.2563,-3.2315,-3.1917,-3.197,-3.1797,-3.1435,-3.0816,-3.0441,-3.0151,-2.9157,-2.8647,-2.8349,-2.7338,-2.7067,-2.7474,-2.7637,-2.8003,-2.839,-2.751,-2.6812,-2.6377,-2.5016,-2.4273,-2.42,-2.397,-2.3824,-2.3762,-2.442,-2.5168,-2.5971,-2.621,-2.6709,-2.741,-2.676,-2.6609,-2.711,-2.659,-2.6511,-2.7035,-2.6726,-2.6687,-2.704,-2.6739,-2.6661,-2.6984,-2.6362,-2.6015,-2.6126,-2.5429,-2.5016,-2.504,-2.5217,-2.5753,-2.6394,-2.6263,-2.6154,-2.6468,-2.6615,-2.6772,-2.7311,-2.757,-2.805,-2.8388,-2.8205,-2.8422,-2.9164,-2.9235,-2.9039,-2.8979,-2.9138,-2.8799,-2.7837,-2.7469,-2.7469,-2.7469,-2.739,-2.7297,-2.7616,-2.8556,-2.8957,-2.8344,-2.8729,-2.9034,-2.8641,-2.86,-2.8766,-2.917,-2.9282,-2.9482,-3.0033,-3.0211,-3.0332,-3.029,-3.0351,-3.0588,-3.0966,-3.0592,-3.0328,-3.0936,-3.1205,-3.1413,-3.7155,-3.6878,-3.6127,-3.5933,-3.6199,-3.5876,-3.5217,-3.4352,-3.3231,-3.2659,-3.2617,-3.2974,-3.2527,-3.1619,-3.201,-3.2258,-3.2302,-3.219,-3.2184,-3.2124,-3.1608,-3.0707,-2.9614,-2.8975,-2.8405,-2.7796,-2.7094,-2.685,-2.6918,-2.7447,-2.8003,-2.839,-2.751,-2.6799,-2.6296,-2.5241,-2.4562,-2.42,-2.4502,-2.449,-2.4189,-2.4235,-2.4696,-2.5518,-2.4827,-2.5342,-2.7127,-2.5901,-2.5648,-2.6559,-2.6133,-2.5861,-2.593,-2.5871,-2.5929,-2.5981,-2.5942,-2.5807,-2.564,-2.5124,-2.4933,-2.531,-2.4624,-2.4181,-2.4169,-2.3677,-2.3943,-2.5051,-2.5349,-2.523,-2.5027,-2.5588,-2.6215,-2.6457,-2.655,-2.6962,-2.7752,-2.7373,-2.7373,-2.8672,-2.8497,-2.855,-2.8589,-2.8631,-2.8216,-2.7641,-2.7469,-2.7469,-2.7323,-2.6973,-2.6481,-2.6511,-2.7353,-2.8,-2.7762,-2.821,-2.8576,-2.8573,-2.8573,-2.861,-2.8712,-2.8762,-2.8743,-2.8951,-2.9346,-2.9582,-2.9504,-2.9668,-2.9653,-2.9682,-2.9444,-2.9112,-2.9648,-3.016,-3.0683,-3.6638,-3.6177,-3.6336,-3.6585,-3.6684,-3.5869,-3.4667,-3.3343,-3.3063,-3.2264,-3.1405,-3.2205,-3.2294,-3.1843,-3.2074,-3.2058,-3.175,-3.1309,-3.0936,-3.0643,-3.0029,-2.9483,-2.8953,-2.8388,-2.7763,-2.7189,-2.6932,-2.6573,-2.6484,-2.723,-2.7714,-2.7624,-2.7194,-2.6604,-2.584,-2.5109,-2.4778,-2.4826,-2.4778,-2.4849,-2.4826,-2.4826,-2.4992,-2.5302,-2.48,-2.4882,-2.5611,-2.4966,-2.4767,-2.5354,-2.4973,-2.4797,-2.5039,-2.4847,-2.4931,-2.5266,-2.5241,-2.4974,-2.4521,-2.4098,-2.3839,-2.3757,-2.3595,-2.3301,-2.3045,-2.2974,-2.3298,-2.379,-2.3948,-2.3936,-2.4105,-2.4653,-2.5156,-2.5397,-2.5429,-2.5633,-2.6046,-2.5609,-2.5719,-2.6914,-2.7125,-2.7367,-2.7928,-2.8011,-2.7771,-2.7562,-2.7469,-2.7323,-2.6973,-2.6552,-2.6108,-2.5534,-2.6208,-2.6835,-2.6986,-2.7533,-2.8143,-2.8438,-2.8288,-2.8125,-2.8465,-2.8234,-2.8075,-2.8126,-2.8553,-2.8547,-2.7927,-2.8302,-2.8489,-2.845,-2.8755,-2.8604,-2.8427,-2.9149,-2.9853,-3.6256,-3.5816,-3.6431,-3.6718,-3.6575,-3.5797,-3.4322,-3.2645,-3.2838,-3.2129,-3.0827,-3.1572,-3.2033,-3.2169,-3.2169,-3.1843,-3.1287,-3.0839,-3.0323,-2.9699,-2.9102,-2.8763,-2.8546,-2.78,-2.7244,-2.6823,-2.6457,-2.6158,-2.6022,-2.6735,-2.7073,-2.6786,-2.676,-2.6287,-2.5455,-2.5071,-2.5052,-2.5253,-2.5052,-2.504,-2.5241,-2.5312,-2.5312,-2.5241,-2.4981,-2.4801,-2.479,-2.4418,-2.4163,-2.4222,-2.4032,-2.3935,-2.4029,-2.3878,-2.3912,-2.4243,-2.4054,-2.3692,-2.3239,-2.2902,-2.2627,-2.2468,-2.2523,-2.2531,-2.2422,-2.2619,-2.2933,-2.3224,-2.315,-2.3372,-2.3751,-2.4116,-2.449,-2.4718,-2.4718,-2.4574,-2.4513,-2.4116,-2.4418,-2.5639,-2.5947,-2.6264,-2.7108,-2.7268,-2.7134,-2.7175,-2.7175,-2.7053,-2.6414,-2.6045,-2.5368,-2.4531,-2.5047,-2.5791,-2.6358,-2.7235,-2.7924,-2.8261,-2.8153,-2.7908,-2.8234,-2.7813,-2.7284,-2.7236,-2.7795,-2.7795,-2.7051,-2.7086,-2.7135,-2.7195,-2.7573,-2.7899,-2.7491,-2.8359,-2.9066,-3.571,-3.5787,-3.6046,-3.5768,-3.5131,-3.5251,-3.4222,-3.2337,-3.2354,-3.1903,-3.1276,-3.1341,-3.1667,-3.2169,-3.2141,-3.1829,-3.1314,-3.1192,-3.0798,-3.0174,-2.9631,-2.9116,-2.8532,-2.742,-2.6864,-2.6742,-2.5887,-2.5575,-2.5896,-2.6041,-2.61,-2.609,-2.6146,-2.5909,-2.5376,-2.5172,-2.5217,-2.53,-2.5193,-2.53,-2.5312,-2.5312,-2.53,-2.5205,-2.4981,-2.479,-2.479,-2.4418,-2.4031,-2.3454,-2.3656,-2.352,-2.3083,-2.3084,-2.3067,-2.2739,-2.2209,-2.1858,-2.1878,-2.1475,-2.1259,-2.1541,-2.1717,-2.1843,-2.2149,-2.228,-2.2655,-2.3463,-2.3463,-2.3683,-2.4116,-2.4418,-2.4718,-2.4718,-2.4418,-2.4127,-2.374,-2.3446,-2.3801,-2.4945,-2.537,-2.5721,-2.6414,-2.6496,-2.6414,-2.6414,-2.6427,-2.6346,-2.6057,-2.5122,-2.4234,-2.3814,-2.405,-2.4743,-2.6108,-2.7051,-2.7826,-2.8153,-2.7958,-2.7691,-2.7515,-2.7257,-2.6701,-2.6402,-2.6877,-2.685,-2.6212,-2.5873,-2.5836,-2.6007,-2.66,-2.6788,-2.693,-2.7775,-2.8495,-3.6017,-3.6355,-3.5677,-3.5508,-3.5669,-3.4563,-3.3374,-3.2396,-3.2246,-3.1861,-3.1425,-3.1694,-3.1979,-3.2169,-3.1775,-3.13,-3.0758,-3.073,-3.0201,-2.9319,-2.9007,-2.879,-2.8532,-2.7759,-2.7176,-2.6782,-2.6375,-2.6088,-2.5982,-2.5659,-2.5175,-2.4733,-2.4996,-2.4942,-2.4432,-2.4353,-2.4626,-2.5216,-2.4987,-2.4963,-2.5276,-2.5312,-2.5155,-2.4843,-2.4826,-2.4921,-2.5111,-2.4778,-2.4319,-2.368,-2.351,-2.3209,-2.2872,-2.296,-2.2871,-2.2347,-2.2039,-2.1635,-2.1153,-2.1152,-2.1063,-2.0708,-2.1254,-2.1483,-2.1472,-2.168,-2.2182,-2.2999,-2.3421,-2.3738,-2.412,-2.4345,-2.449,-2.4646,-2.42,-2.3751,-2.3593,-2.3298,-2.3423,-2.4348,-2.4933,-2.5453,-2.5545,-2.5721,-2.5652,-2.5652,-2.5721,-2.5487,-2.4981,-2.4409,-2.3811,-2.343,-2.3746,-2.4319,-2.4767,-2.633,-2.7313,-2.76,-2.7632,-2.7471,-2.7339,-2.6674,-2.609,-2.6036,-2.6321,-2.6253,-2.5751,-2.5439,-2.5222,-2.5338,-2.5892,-2.6534,-2.6602,-2.756,-2.8195,-3.6017,-3.6314,-3.5599,-3.5339,-3.5337,-3.4123,-3.3067,-3.2403,-3.2222,-3.1956,-3.1724,-3.2006,-3.2074,-3.1857,-3.1477,-3.0839,-3.0174,-3.0106,-2.9672,-2.8899,-2.8682,-2.8492,-2.8261,-2.7895,-2.7298,-2.6519,-2.6129,-2.5808,-2.548,-2.4966,-2.4285,-2.3555,-2.4035,-2.4059,-2.3646,-2.3676,-2.4157,-2.465,-2.4602,-2.4711,-2.5035,-2.5228,-2.5047,-2.4594,-2.4612,-2.4802,-2.5047,-2.4648,-2.4267,-2.3802,-2.3394,-2.297,-2.2616,-2.2726,-2.258,-2.2063,-2.1928,-2.1639,-2.099,-2.1167,-2.1082,-2.0531,-2.0897,-2.1195,-2.1208,-2.1439,-2.1976,-2.2774,-2.3432,-2.3815,-2.4153,-2.423,-2.4261,-2.4345,-2.3897,-2.3519,-2.3372,-2.3139,-2.3338,-2.3952,-2.4389,-2.4625,-2.4696,-2.4684,-2.4672,-2.4696,-2.4684,-2.4425,-2.4218,-2.3841,-2.3621,-2.3213,-2.3706,-2.3973,-2.4388,-2.554,-2.6504,-2.685,-2.7037,-2.702,-2.685,-2.6145,-2.5751,-2.5738,-2.5697,-2.5629,-2.5426,-2.5113,-2.5005,-2.5048,-2.5837,-2.664,-2.6967,-2.7458,-2.8016,-3.5696,-3.5654,-3.58,-3.4906,-3.3922,-3.3831,-3.3245,-3.216,-3.2119,-3.1983,-3.1721,-3.2006,-3.1572,-3.126,-3.0988,-3.0513,-2.955,-2.9374,-2.9374,-2.9252,-2.8763,-2.8275,-2.7868,-2.7691,-2.7094,-2.609,-2.4922,-2.4424,-2.4426,-2.4048,-2.3542,-2.3096,-2.3417,-2.3518,-2.3015,-2.3424,-2.3779,-2.3929,-2.423,-2.4458,-2.4578,-2.4963,-2.4927,-2.4518,-2.4402,-2.439,-2.4402,-2.4042,-2.3893,-2.3701,-2.3316,-2.2775,-2.2368,-2.2259,-2.2111,-2.1839,-2.1726,-2.1537,-2.1296,-2.1192,-2.1238,-2.099,-2.082,-2.1014,-2.1372,-2.1496,-2.189,-2.2968,-2.3581,-2.406,-2.4329,-2.4282,-2.4043,-2.3677,-2.3604,-2.3372,-2.3032,-2.2957,-2.3169,-2.3587,-2.3495,-2.3338,-2.3385,-2.3315,-2.3338,-2.3477,-2.3429,-2.3518,-2.3643,-2.3283,-2.3021,-2.3021,-2.3285,-2.3532,-2.4095,-2.4786,-2.5432,-2.6015,-2.6109,-2.6172,-2.6145,-2.5683,-2.5385,-2.5317,-2.5273,-2.5206,-2.5219,-2.4948,-2.4892,-2.5104,-2.5946,-2.6534,-2.6811,-2.7188,-2.7775,-3.4806,-3.4433,-3.3979,-3.3146,-3.2162,-3.2435,-3.1997,-3.1082,-3.1429,-3.111,-3.0418,-3.0323,-2.9984,-2.9536,-2.9428,-2.9021,-2.8288,-2.8275,-2.8478,-2.8736,-2.8275,-2.8112,-2.8125,-2.7488,-2.6904,-2.6431,-2.5794,-2.5114,-2.4451,-2.3928,-2.3269,-2.2615,-2.2648,-2.2799,-2.2943,-2.2811,-2.2979,-2.3688,-2.3556,-2.3773,-2.4398,-2.4338,-2.4169,-2.3989,-2.3664,-2.3251,-2.2788,-2.3696,-2.3929,-2.3292,-2.3424,-2.3123,-2.239,-2.2197,-2.2135,-2.2061,-2.2049,-2.1925,-2.16,-2.1463,-2.1146,-2.07,-2.0764,-2.0831,-2.0761,-2.111,-2.1824,-2.2971,-2.3379,-2.3741,-2.4378,-2.4146,-2.3813,-2.397,-2.3519,-2.2859,-2.2146,-2.1731,-2.1394,-2.1341,-2.1428,-2.1566,-2.1637,-2.1637,-2.1887,-2.2446,-2.2298,-2.2255,-2.2498,-2.2327,-2.1924,-2.1987,-2.2463,-2.2924,-2.3243,-2.3808,-2.4596,-2.5188,-2.5461,-2.5697,-2.5602,-2.5453,-2.5141,-2.4948,-2.4948,-2.4892,-2.4892,-2.4835,-2.4778,-2.5048,-2.5742,-2.6122,-2.6283,-2.6864,-2.7625,-3.4505,-3.4081,-3.3178,-3.2329,-3.1549,-3.1888,-3.1501,-3.0791,-3.0841,-3.054,-2.9876,-2.9347,-2.8831,-2.841,-2.8492,-2.8383,-2.8058,-2.8044,-2.8356,-2.8695,-2.8044,-2.7936,-2.8139,-2.7311,-2.6972,-2.6883,-2.6153,-2.5325,-2.4487,-2.3766,-2.3006,-2.2332,-2.2197,-2.2354,-2.2654,-2.239,-2.2582,-2.3075,-2.3051,-2.3388,-2.4037,-2.4121,-2.3953,-2.3761,-2.3239,-2.2467,-2.1797,-2.2878,-2.323,-2.2764,-2.3006,-2.2823,-2.2258,-2.2197,-2.2197,-2.2123,-2.1925,-2.1663,-2.1451,-2.1187,-2.0971,-2.0511,-2.0904,-2.1175,-2.0938,-2.1483,-2.2348,-2.2947,-2.3241,-2.3548,-2.3989,-2.3588,-2.335,-2.3434,-2.2852,-2.22,-2.1375,-2.0638,-2.038,-2.0319,-2.0349,-2.0294,-2.0464,-2.0334,-2.0568,-2.1147,-2.1113,-2.101,-2.1331,-2.1512,-2.1387,-2.1511,-2.2024,-2.2263,-2.2111,-2.2819,-2.3715,-2.4318,-2.4779,-2.5185,-2.5358,-2.5236,-2.5005,-2.4948,-2.4892,-2.4835,-2.4848,-2.4721,-2.4721,-2.5147,-2.5591,-2.6122,-2.6549,-2.7203,-2.779,-3.4607,-3.4446,-3.3263,-3.2319,-3.1749,-3.1824,-3.1454,-3.0921,-3.0475,-3.0092,-2.9795,-2.875,-2.8003,-2.7732,-2.799,-2.822,-2.841,-2.8519,-2.8668,-2.8817,-2.8288,-2.7868,-2.7705,-2.7325,-2.7317,-2.7373,-2.6242,-2.5229,-2.4504,-2.3675,-2.2727,-2.2258,-2.2197,-2.2246,-2.2366,-2.227,-2.233,-2.2498,-2.2835,-2.3352,-2.3821,-2.4194,-2.4218,-2.3785,-2.3077,-2.2212,-2.1293,-2.1598,-2.1904,-2.2008,-2.2305,-2.2306,-2.2197,-2.2197,-2.2197,-2.2061,-2.1463,-2.1244,-2.0967,-2.0671,-2.0391,-2.0582,-2.1062,-2.1475,-2.1631,-2.2159,-2.2744,-2.306,-2.3166,-2.3315,-2.3307,-2.2802,-2.2446,-2.2166,-2.1725,-2.1293,-2.0994,-1.9958,-1.9554,-1.9833,-1.9686,-1.9272,-1.9686,-1.9351,-1.9461,-1.9893,-1.989,-2.006,-2.0454,-2.0757,-2.1104,-2.1309,-2.1393,-2.1553,-2.1467,-2.2416,-2.3256,-2.3726,-2.4321,-2.4882,-2.5195,-2.5086,-2.4948,-2.4948,-2.4835,-2.4835,-2.4721,-2.4549,-2.4708,-2.516,-2.5687,-2.6336,-2.6864,-2.7357,-2.769,-3.372,-3.3251,-3.194,-3.0915,-3.0188,-3.0503,-3.0136,-2.9264,-2.9175,-2.8678,-2.7761,-2.6951,-2.6389,-2.5887,-2.6864,-2.7054,-2.7162,-2.8058,-2.8356,-2.822,-2.8383,-2.8085,-2.7881,-2.8017,-2.7961,-2.7681,-2.683,-2.5894,-2.4632,-2.3912,-2.3075,-2.2221,-2.2209,-2.2402,-2.269,-2.2727,-2.2775,-2.2847,-2.328,-2.3568,-2.3737,-2.3881,-2.3905,-2.373,-2.308,-2.1945,-2.0542,-2.0477,-2.1331,-2.2562,-2.2348,-2.2197,-2.2197,-2.2173,-2.1901,-2.1463,-2.121,-2.0975,-2.0787,-2.0609,-2.05,-2.0491,-2.0995,-2.1479,-2.1537,-2.1727,-2.2331,-2.2846,-2.2872,-2.2689,-2.2842,-2.236,-2.1614,-2.075,-2.0562,-2.0374,-1.9961,-1.9175,-1.8518,-1.8366,-1.8225,-1.8242,-1.8389,-1.8331,-1.8488,-1.9083,-1.9103,-1.9014,-1.959,-1.9875,-2.0155,-2.0205,-2.0333,-2.0653,-2.1096,-2.1981,-2.2739,-2.3236,-2.3923,-2.4775,-2.4959,-2.5032,-2.4948,-2.4892,-2.4721,-2.4664,-2.4492,-2.4319,-2.4708,-2.5048,-2.5577,-2.6108,-2.6707,-2.7203,-2.7473,-3.3224,-3.2606,-3.1222,-3.0074,-2.9386,-2.9684,-2.9303,-2.865,-2.8588,-2.7933,-2.6916,-2.6176,-2.571,-2.5507,-2.6389,-2.6959,-2.7162,-2.8112,-2.8668,-2.894,-2.8967,-2.8641,-2.8238,-2.8271,-2.8118,-2.7776,-2.704,-2.6059,-2.4959,-2.4225,-2.3369,-2.263,-2.2294,-2.2474,-2.2907,-2.2739,-2.2787,-2.2931,-2.3135,-2.3268,-2.3725,-2.3839,-2.3929,-2.3879,-2.3349,-2.2275,-2.1072,-2.0671,-2.1232,-2.2258,-2.2354,-2.2197,-2.2161,-2.1711,-2.1377,-2.1089,-2.0613,-2.0227,-2.0268,-2.0159,-2.0153,-2.0288,-2.0834,-2.1066,-2.1236,-2.1549,-2.2452,-2.2402,-2.2219,-2.221,-2.2275,-2.1756,-2.1011,-2.0285,-1.9889,-1.963,-1.9515,-1.8599,-1.8021,-1.7703,-1.7558,-1.7569,-1.7901,-1.756,-1.7821,-1.837,-1.8165,-1.84,-1.8841,-1.896,-1.9293,-1.9633,-1.997,-2.0325,-2.0747,-2.1521,-2.2309,-2.2738,-2.3518,-2.4421,-2.4835,-2.4948,-2.4892,-2.4778,-2.4593,-2.4421,-2.4305,-2.4261,-2.4492,-2.4935,-2.5412,-2.5851,-2.639,-2.7034,-2.7306,-3.3107,-3.2503,-3.0832,-2.9821,-2.9422,-2.9297,-2.9052,-2.8637,-2.8318,-2.7837,-2.7012,-2.6216,-2.5945,-2.6022,-2.6728,-2.7515,-2.8478,-2.8655,-2.9279,-2.9591,-2.9523,-2.8953,-2.8352,-2.7999,-2.7709,-2.7377,-2.6564,-2.5809,-2.4957,-2.4117,-2.3513,-2.2811,-2.2342,-2.2558,-2.2931,-2.2642,-2.2606,-2.2991,-2.2991,-2.3183,-2.3749,-2.3977,-2.4242,-2.4214,-2.3639,-2.2856,-2.1964,-2.1415,-2.1423,-2.2197,-2.2197,-2.2149,-2.2003,-2.1134,-2.0795,-2.0824,-2.0063,-1.9634,-1.9592,-1.9625,-1.9669,-2.0098,-2.071,-2.0916,-2.0907,-2.1607,-2.2069,-2.1843,-2.1565,-2.1569,-2.1603,-2.1011,-2.0575,-2.011,-1.9659,-1.938,-1.9034,-1.8183,-1.7651,-1.8064,-1.7456,-1.7527,-1.7774,-1.7491,-1.7038,-1.832,-1.8103,-1.8334,-1.8721,-1.8994,-1.9379,-1.9768,-2.0052,-2.0216,-2.0593,-2.1031,-2.1765,-2.2359,-2.3135,-2.393,-2.4664,-2.4848,-2.4791,-2.4664,-2.4536,-2.4363,-2.4247,-2.4319,-2.4447,-2.4778,-2.5314,-2.5577,-2.5892,-2.6707,-2.7203,-3.3322,-3.306,-3.0978,-3.0025,-2.9773,-2.908,-2.8664,-2.8487,-2.7605,-2.7494,-2.7249,-2.6448,-2.631,-2.6687,-2.7244,-2.7922,-2.86,-2.9007,-2.9482,-2.9496,-2.9048,-2.8489,-2.8052,-2.7776,-2.731,-2.6769,-2.6358,-2.5518,-2.4402,-2.3954,-2.328,-2.2486,-2.239,-2.2666,-2.3328,-2.2967,-2.3063,-2.3544,-2.3773,-2.3761,-2.3893,-2.4506,-2.4735,-2.4441,-2.3489,-2.2833,-2.2375,-2.1606,-2.1486,-2.1999,-2.2135,-2.2039,-2.174,-2.1653,-2.1225,-2.0582,-2.0401,-2.0023,-1.9605,-1.9669,-1.9951,-2.0389,-2.0582,-2.0907,-2.1411,-2.0822,-2.1148,-2.1226,-2.0903,-2.0655,-2.0894,-2.0722,-2.0372,-1.9995,-1.9478,-1.907,-1.8658,-1.7935,-1.786,-1.8152,-1.7688,-1.7235,-1.8192,-1.7774,-1.7716,-1.8202,-1.8378,-1.8409,-1.8714,-1.9056,-1.9468,-1.9844,-2.0002,-2.0151,-2.0335,-2.0711,-2.1198,-2.1865,-2.2592,-2.3255,-2.3989,-2.4677,-2.462,-2.4549,-2.4478,-2.4305,-2.4203,-2.4203,-2.4287,-2.4721,-2.5104,-2.5258,-2.5632,-2.6443,-2.6826,-3.3009,-3.2478,-3.0819,-2.9797,-2.9304,-2.8739,-2.8366,-2.8174,-2.8151,-2.7923,-2.7721,-2.7262,-2.74,-2.7637,-2.7718,-2.8017,-2.8614,-2.9184,-2.916,-2.8879,-2.8531,-2.8053,-2.7175,-2.7027,-2.6701,-2.6164,-2.5873,-2.5095,-2.4333,-2.3821,-2.3376,-2.2582,-2.2318,-2.2594,-2.3207,-2.2907,-2.3039,-2.3568,-2.3761,-2.3857,-2.4218,-2.4602,-2.4743,-2.4295,-2.3479,-2.2995,-2.2926,-2.1812,-2.1652,-2.2001,-2.2076,-2.1993,-2.1703,-2.1556,-2.0957,-2.0346,-2.0143,-1.9993,-1.9548,-1.9853,-2.0312,-2.0537,-2.0576,-2.0523,-2.0737,-2.0276,-2.0305,-2.0512,-2.0401,-2.0342,-2.0537,-2.0576,-2.0333,-2.0072,-1.9392,-1.8939,-1.8742,-1.8091,-1.7766,-1.8156,-1.7619,-1.7753,-1.7998,-1.7988,-1.8124,-1.8529,-1.8259,-1.833,-1.892,-1.9266,-1.9565,-1.9873,-1.9997,-2.0085,-2.0151,-2.0388,-2.07,-2.1313,-2.1916,-2.2518,-2.3062,-2.3767,-2.4403,-2.4376,-2.4363,-2.4216,-2.4112,-2.4112,-2.4171,-2.439,-2.4664,-2.4878,-2.5203,-2.5742,-2.5946,-3.2546,-3.1825,-3.0526,-2.9436,-2.8691,-2.8546,-2.8282,-2.8053,-2.885,-2.8613,-2.8061,-2.8372,-2.8217,-2.841,-2.7773,-2.7922,-2.8451,-2.898,-2.881,-2.8292,-2.8399,-2.7743,-2.6752,-2.6427,-2.622,-2.6013,-2.5594,-2.4951,-2.4362,-2.3953,-2.3376,-2.2847,-2.2426,-2.263,-2.2895,-2.2666,-2.2931,-2.3797,-2.358,-2.3604,-2.4218,-2.4482,-2.4435,-2.4401,-2.3812,-2.356,-2.341,-2.264,-2.2103,-2.2396,-2.2186,-2.2204,-2.2088,-2.1295,-2.0472,-2.027,-2.0111,-1.9767,-1.9565,-2.001,-2.0537,-2.0576,-2.0576,-2.0205,-1.9889,-2.0026,-2.0007,-1.9909,-1.9873,-2.04,-2.0547,-2.0576,-2.0478,-2.0119,-1.9228,-1.8786,-1.8646,-1.7896,-1.7521,-1.809,-1.7764,-1.7832,-1.8192,-1.8385,-1.8586,-1.8721,-1.8452,-1.8442,-1.9034,-1.9452,-1.9713,-1.9866,-2.0042,-2.0096,-2.0151,-2.027,-2.0506,-2.1187,-2.1741,-2.2224,-2.2774,-2.3531,-2.4216,-2.4261,-2.4247,-2.4157,-2.4125,-2.4112,-2.4171,-2.4229,-2.4345,-2.4563,-2.4821,-2.509,-2.5231,-3.2445,-3.2263,-3.0281,-2.9316,-2.91,-2.8703,-2.845,-2.8385,-2.8632,-2.8598,-2.8382,-2.8103,-2.8249,-2.8174,-2.7406,-2.7339,-2.7908,-2.837,-2.8498,-2.8117,-2.8027,-2.731,-2.6726,-2.6133,-2.5881,-2.5523,-2.5274,-2.4792,-2.4177,-2.3761,-2.3494,-2.2621,-2.2466,-2.2853,-2.3361,-2.3207,-2.3405,-2.4097,-2.3869,-2.3857,-2.4037,-2.4314,-2.4608,-2.4661,-2.4082,-2.3979,-2.4093,-2.3724,-2.3466,-2.3496,-2.3042,-2.309,-2.3054,-2.1923,-2.1107,-2.0797,-2.0514,-2.0155,-1.9736,-2.0154,-2.0498,-2.0576,-2.0537,-2.0342,-1.9971,-1.9912,-1.9824,-1.9668,-1.9756,-2.0176,-2.0537,-2.0547,-2.0205,-1.9613,-1.886,-1.8057,-1.7477,-1.684,-1.6794,-1.7732,-1.7714,-1.7852,-1.8327,-1.8731,-1.8931,-1.9131,-1.9131,-1.9121,-1.9452,-1.9726,-1.9955,-2.0031,-2.0096,-2.0085,-2.0085,-2.027,-2.0518,-2.1439,-2.2051,-2.2665,-2.316,-2.3721,-2.4099,-2.4203,-2.4203,-2.4112,-2.4125,-2.4086,-2.4086,-2.4131,-2.4203,-2.4176,-2.4452,-2.4697,-2.498,-3.2115,-3.1703,-3.0369,-2.9448,-2.8871,-2.8631,-2.851,-2.8585,-2.8847,-2.8796,-2.8563,-2.8317,-2.8139,-2.7913,-2.7257,-2.7026,-2.7284,-2.7501,-2.7524,-2.7299,-2.7,-2.6649,-2.6127,-2.5603,-2.5204,-2.4945,-2.482,-2.4731,-2.423,-2.4529,-2.4094,-2.3729,-2.3692,-2.4039,-2.4116,-2.3977,-2.4086,-2.4394,-2.429,-2.4145,-2.4097,-2.4206,-2.4369,-2.4343,-2.3885,-2.3711,-2.4002,-2.3363,-2.3409,-2.3827,-2.3502,-2.3605,-2.3487,-2.2925,-2.1941,-2.1834,-2.1463,-2.0948,-2.0323,-2.051,-2.0547,-2.0615,-2.0391,-2.0156,-1.998,-1.9893,-1.9775,-1.9727,-1.9717,-1.999,-2.0205,-2.04,-2.0332,-1.9781,-1.8807,-1.7906,-1.7257,-1.6346,-1.6609,-1.7235,-1.7341,-1.7742,-1.8741,-1.9075,-1.9274,-1.9473,-1.9681,-1.9813,-1.9868,-2.0009,-2.0074,-2.0085,-2.0085,-2.0085,-2.0216,-2.0453,-2.0635,-2.1491,-2.2298,-2.2919,-2.3424,-2.3852,-2.4041,-2.4157,-2.4112,-2.4112,-2.3968,-2.3903,-2.3955,-2.3916,-2.362,-2.352,-2.3958,-2.4359,-2.4603,-3.2003,-3.1461,-3.0628,-2.967,-2.8931,-2.8895,-2.8816,-2.8863,-2.9365,-2.9087,-2.8415,-2.8332,-2.8058,-2.7488,-2.6959,-2.6619,-2.6633,-2.666,-2.6556,-2.6463,-2.6103,-2.5674,-2.5283,-2.4707,-2.4442,-2.4652,-2.4553,-2.4536,-2.4561,-2.4763,-2.4848,-2.4595,-2.5038,-2.5052,-2.4753,-2.4513,-2.4633,-2.4631,-2.4542,-2.4506,-2.429,-2.3835,-2.3759,-2.392,-2.3121,-2.3156,-2.399,-2.3523,-2.3549,-2.4082,-2.4129,-2.4049,-2.4276,-2.3661,-2.3224,-2.3121,-2.2603,-2.1977,-2.146,-2.1035,-2.0944,-2.1011,-2.0397,-2.0059,-1.9814,-1.9736,-1.9648,-1.9844,-1.9668,-1.9671,-1.9866,-2.0061,-2.0062,-1.9649,-1.8585,-1.7618,-1.702,-1.6327,-1.5907,-1.6389,-1.6773,-1.7615,-1.8557,-1.9141,-1.923,-1.9386,-1.9605,-1.9747,-1.9802,-1.9944,-2.0074,-2.0085,-2.0085,-2.0085,-2.027,-2.0711,-2.1008,-2.1553,-2.2408,-2.31,-2.3471,-2.3793,-2.3982,-2.4112,-2.4112,-2.4086,-2.389,-2.3694,-2.3642,-2.3406,-2.2858,-2.2913,-2.3576,-2.394,-2.411,-3.2567,-3.262,-3.0984,-3.0216,-3.0037,-3.0024,-2.9716,-2.9344,-2.9951,-2.9327,-2.7761,-2.7748,-2.7474,-2.6837,-2.6267,-2.6022,-2.6009,-2.5977,-2.6096,-2.6162,-2.5651,-2.5281,-2.5099,-2.4303,-2.4176,-2.4312,-2.4434,-2.4549,-2.4695,-2.4697,-2.4924,-2.5101,-2.476,-2.4352,-2.5261,-2.4964,-2.478,-2.5023,-2.4747,-2.4338,-2.3934,-2.3273,-2.3285,-2.347,-2.3138,-2.3096,-2.4115,-2.393,-2.4113,-2.4348,-2.4869,-2.4788,-2.4687,-2.4881,-2.4931,-2.4484,-2.3495,-2.2226,-2.2201,-2.1732,-2.1461,-2.1308,-2.0804,-2.034,-1.9902,-1.9375,-1.9258,-1.9844,-1.9316,-1.9044,-1.9358,-1.9396,-1.9151,-1.8604,-1.7863,-1.6908,-1.6318,-1.6215,-1.5832,-1.634,-1.6987,-1.7604,-1.8315,-1.8784,-1.9201,-1.9327,-1.9462,-1.9594,-1.9802,-1.9944,-2.0009,-2.0085,-2.0151,-2.0151,-2.0582,-2.0944,-2.1502,-2.1865,-2.2604,-2.3339,-2.3662,-2.3923,-2.3995,-2.4112,-2.4125,-2.4112,-2.3995,-2.3759,-2.342,-2.3027,-2.2635,-2.2902,-2.3408,-2.357,-2.3546,-3.2225,-3.1869,-3.1143,-3.0633,-3.033,-3.033,-2.9947,-2.9541,-2.9701,-2.8833,-2.7417,-2.7213,-2.6701,-2.5914,-2.5466,-2.5398,-2.5327,-2.5168,-2.5124,-2.5345,-2.4783,-2.4417,-2.423,-2.3798,-2.364,-2.3938,-2.4117,-2.4438,-2.4677,-2.5185,-2.5553,-2.5634,-2.5613,-2.5625,-2.5815,-2.5573,-2.5363,-2.5177,-2.4843,-2.459,-2.4318,-2.3601,-2.3261,-2.4085,-2.3001,-2.3161,-2.3711,-2.3761,-2.4013,-2.4338,-2.4783,-2.4927,-2.4975,-2.5168,-2.53,-2.5205,-2.459,-2.381,-2.3329,-2.2392,-2.1876,-2.138,-2.0745,-1.9936,-1.9664,-1.935,-1.9102,-1.9492,-1.8942,-1.872,-1.8845,-1.8902,-1.8711,-1.8197,-1.7292,-1.6747,-1.6132,-1.5794,-1.5792,-1.6473,-1.7256,-1.7999,-1.8702,-1.934,-1.9684,-1.9511,-1.9562,-1.9607,-1.977,-1.9944,-2.0074,-2.0085,-2.0205,-2.027,-2.0816,-2.1376,-2.1978,-2.247,-2.3173,-2.3734,-2.3923,-2.4112,-2.4171,-2.4171,-2.4112,-2.4099,-2.4073,-2.3733,-2.3302,-2.2897,-2.2492,-2.2732,-2.2988,-2.2697,-2.2911,-3.2013,-3.1468,-3.1455,-3.1158,-3.0797,-3.0784,-3.0482,-2.9885,-2.9771,-2.8759,-2.722,-2.6574,-2.5819,-2.5208,-2.5059,-2.5073,-2.4975,-2.4523,-2.4367,-2.4189,-2.3865,-2.3603,-2.3499,-2.3174,-2.328,-2.3704,-2.3936,-2.4341,-2.4965,-2.5382,-2.559,-2.6182,-2.6026,-2.6225,-2.6183,-2.5881,-2.5557,-2.5322,-2.4963,-2.4855,-2.4735,-2.3821,-2.3688,-2.3568,-2.3195,-2.2775,-2.3376,-2.346,-2.3749,-2.3869,-2.4254,-2.4458,-2.4699,-2.4891,-2.5143,-2.5228,-2.5016,-2.4637,-2.3822,-2.285,-2.2124,-2.1425,-2.0562,-1.9813,-1.9698,-1.9474,-1.9149,-1.8938,-1.8379,-1.8128,-1.8084,-1.8035,-1.7961,-1.7645,-1.7179,-1.6738,-1.6356,-1.609,-1.6297,-1.7168,-1.8006,-1.8833,-1.9519,-2.0195,-2.0278,-1.9879,-1.9748,-1.9684,-1.9749,-1.9976,-2.0085,-2.0085,-2.0151,-2.0324,-2.0944,-2.1616,-2.2347,-2.3027,-2.3734,-2.4157,-2.4274,-2.439,-2.4505,-2.4403,-2.4176,-2.4171,-2.4203,-2.3686,-2.3184,-2.2884,-2.2638,-2.2405,-2.2326,-2.2113,-2.2324,-3.2313,-3.2169,-3.2096,-3.2109,-3.2023,-3.2096,-3.1629,-3.0904,-3.0458,-2.9254,-2.7406,-2.6049,-2.529,-2.5032,-2.5005,-2.5005,-2.4948,-2.4523,-2.4313,-2.3929,-2.3441,-2.3046,-2.2948,-2.2973,-2.3155,-2.3599,-2.3956,-2.4461,-2.4882,-2.486,-2.559,-2.6527,-2.5844,-2.5887,-2.584,-2.5603,-2.5511,-2.5312,-2.5168,-2.4891,-2.4638,-2.4001,-2.3604,-2.3195,-2.3027,-2.2979,-2.3063,-2.328,-2.3412,-2.3292,-2.3616,-2.4013,-2.4278,-2.4542,-2.4867,-2.5216,-2.5158,-2.4779,-2.3975,-2.3147,-2.2627,-2.2027,-2.0998,-1.9781,-1.9648,-1.9602,-1.9136,-1.8382,-1.7999,-1.7542,-1.7188,-1.68,-1.7153,-1.7357,-1.7243,-1.6919,-1.665,-1.6607,-1.6929,-1.7791,-1.8692,-1.9565,-2.0205,-2.0749,-2.0894,-2.0568,-2.0083,-1.9953,-1.9823,-1.9931,-2.0074,-2.0085,-2.0085,-2.0388,-2.106,-2.1741,-2.2408,-2.3207,-2.391,-2.4376,-2.4664,-2.4721,-2.4721,-2.4376,-2.4138,-2.4213,-2.4071,-2.3241,-2.2713,-2.2828,-2.2664,-2.2207,-2.2141,-2.2205,-2.2337,-3.2165,-3.2169,-3.2169,-3.2169,-3.2169,-3.2169,-3.1776,-3.1182,-3.0599,-2.9133,-2.7162,-2.6026,-2.5344,-2.51,-2.5005,-2.5005,-2.4892,-2.4176,-2.4002,-2.359,-2.3005,-2.2555,-2.2555,-2.2848,-2.3138,-2.3577,-2.4047,-2.4523,-2.4932,-2.4774,-2.5104,-2.5486,-2.5094,-2.5049,-2.5054,-2.5238,-2.5217,-2.5241,-2.5193,-2.5035,-2.4602,-2.4338,-2.3833,-2.3039,-2.2979,-2.2787,-2.2594,-2.269,-2.2823,-2.2991,-2.3195,-2.3502,-2.3958,-2.4282,-2.4608,-2.4956,-2.4732,-2.4313,-2.3963,-2.3147,-2.2339,-2.0991,-2.0148,-1.9621,-1.9453,-1.9421,-1.909,-1.8471,-1.7899,-1.7606,-1.7433,-1.7053,-1.6912,-1.7235,-1.7379,-1.7199,-1.7205,-1.7266,-1.7579,-1.851,-1.9356,-2.0217,-2.0771,-2.1319,-2.1372,-2.1283,-2.0705,-2.0277,-2.0083,-1.9907,-2.0019,-2.002,-2.0009,-2.0677,-2.1353,-2.1978,-2.2457,-2.3327,-2.4131,-2.4429,-2.473,-2.4878,-2.4838,-2.4453,-2.3907,-2.3572,-2.308,-2.2493,-2.2232,-2.2292,-2.207,-2.1629,-2.1824,-2.2098,-2.2165,-3.1928,-3.1951,-3.2101,-3.2169,-3.2169,-3.2169,-3.195,-3.1456,-3.0912,-2.9455,-2.7298,-2.6389,-2.5683,-2.5317,-2.5059,-2.5018,-2.4821,-2.4292,-2.3813,-2.3458,-2.3053,-2.2482,-2.2543,-2.2896,-2.3543,-2.3754,-2.4234,-2.4708,-2.4691,-2.4896,-2.4847,-2.4633,-2.4374,-2.4314,-2.4493,-2.4496,-2.4647,-2.4647,-2.4826,-2.4672,-2.4246,-2.4154,-2.4073,-2.3304,-2.3268,-2.3003,-2.2775,-2.2799,-2.2787,-2.2747,-2.275,-2.3001,-2.3443,-2.3847,-2.405,-2.406,-2.3913,-2.3514,-2.3187,-2.2702,-2.1593,-2.0157,-1.9696,-1.939,-1.9204,-1.9266,-1.9133,-1.8501,-1.8155,-1.8035,-1.7924,-1.7429,-1.7436,-1.791,-1.8268,-1.8228,-1.8301,-1.8372,-1.8714,-1.9273,-2.0093,-2.097,-2.1626,-2.2114,-2.1934,-2.1749,-2.1026,-2.0603,-2.0274,-2.0117,-2.0074,-1.9998,-1.9889,-2.0819,-2.1756,-2.1765,-2.1991,-2.3487,-2.416,-2.4402,-2.4667,-2.4871,-2.4778,-2.4231,-2.3568,-2.2818,-2.2236,-2.169,-2.1665,-2.1759,-2.1478,-2.1225,-2.1246,-2.1491,-2.1517,-3.1712,-3.1409,-3.1924,-3.2141,-3.2042,-3.2169,-3.2096,-3.1988,-3.1395,-3.0093,-2.8275,-2.6769,-2.5941,-2.5724,-2.5317,-2.5113,-2.4892,-2.4465,-2.3989,-2.3577,-2.3399,-2.2944,-2.2957,-2.3305,-2.3884,-2.3872,-2.4221,-2.4465,-2.4305,-2.4221,-2.4092,-2.402,-2.3915,-2.3851,-2.4051,-2.3441,-2.3095,-2.3243,-2.4036,-2.3904,-2.3851,-2.3966,-2.3917,-2.3688,-2.3616,-2.334,-2.2847,-2.2803,-2.2623,-2.1999,-2.1713,-2.1809,-2.2007,-2.2306,-2.2522,-2.2661,-2.2529,-2.2144,-2.1618,-2.1278,-2.0362,-1.9362,-1.8966,-1.9052,-1.9228,-1.9316,-1.9303,-1.8661,-1.8565,-1.8442,-1.8138,-1.7968,-1.8317,-1.8755,-1.9189,-1.9379,-1.9434,-1.9483,-1.9869,-2.0064,-2.0807,-2.1716,-2.2459,-2.2959,-2.2677,-2.2236,-2.144,-2.0887,-2.0561,-2.0243,-2.0107,-2.0161,-2.0094,-2.0859,-2.1602,-2.1164,-2.1605,-2.3225,-2.4209,-2.4485,-2.4722,-2.4997,-2.4736,-2.4014,-2.3191,-2.235,-2.1644,-2.0949,-2.0777,-2.0526,-2.0993,-2.0926,-2.0923,-2.0941,-2.1059,-3.1757,-3.1314,-3.1517,-3.137,-3.105,-3.1409,-3.179,-3.1992,-3.111,-2.9903,-2.8627,-2.7461,-2.6565,-2.605,-2.5724,-2.5412,-2.503,-2.4523,-2.4047,-2.3708,-2.3649,-2.3245,-2.3198,-2.3603,-2.4176,-2.4105,-2.4279,-2.4163,-2.3989,-2.3653,-2.3725,-2.3694,-2.3849,-2.3962,-2.4002,-2.3818,-2.3975,-2.4337,-2.4362,-2.4105,-2.4141,-2.4178,-2.4097,-2.3821,-2.3809,-2.3448,-2.2675,-2.271,-2.195,-2.1023,-2.0665,-2.0506,-2.0807,-2.1065,-2.1588,-2.1897,-2.1876,-2.0812,-1.9995,-1.9256,-1.8762,-1.8221,-1.831,-1.8382,-1.8189,-1.8946,-1.904,-1.9214,-1.9296,-1.9354,-1.9639,-1.9423,-1.9626,-2.009,-2.0466,-2.0572,-2.0665,-2.077,-2.0939,-2.1008,-2.1482,-2.2179,-2.2864,-2.335,-2.3257,-2.2921,-2.2201,-2.121,-2.0696,-2.0333,-2.0085,-2.0324,-2.0451,-2.1106,-2.1507,-2.1366,-2.194,-2.3528,-2.431,-2.4614,-2.4883,-2.497,-2.415,-2.3218,-2.2522,-2.1898,-2.0727,-1.9782,-1.9323,-1.9227,-2.012,-2.0707,-2.0819,-2.0775,-2.0801,-3.1406,-3.0734,-3.0681,-3.0342,-2.9915,-3.0558,-3.1189,-3.1352,-3.0539,-2.9604,-2.8845,-2.8071,-2.7325,-2.6647,-2.6267,-2.609,-2.5558,-2.5083,-2.4596,-2.419,-2.4112,-2.3616,-2.3424,-2.3708,-2.3884,-2.393,-2.3682,-2.3505,-2.3292,-2.2894,-2.3031,-2.3508,-2.419,-2.4292,-2.4192,-2.3902,-2.3829,-2.4059,-2.4013,-2.4022,-2.4108,-2.4241,-2.435,-2.4145,-2.3989,-2.3749,-2.2994,-2.2126,-2.1227,-2.0421,-1.9865,-1.9512,-1.9845,-2.0318,-2.073,-2.0979,-2.091,-1.9659,-1.8451,-1.7874,-1.7382,-1.6601,-1.7423,-1.8125,-1.8346,-1.934,-1.9849,-2.0101,-2.0249,-2.0517,-2.0703,-2.0576,-2.0885,-2.134,-2.141,-2.1485,-2.1416,-2.1458,-2.1655,-2.1734,-2.214,-2.2769,-2.3193,-2.3514,-2.3787,-2.3386,-2.2919,-2.1971,-2.1011,-2.0568,-2.0226,-2.0355,-2.0628,-2.1121,-2.1656,-2.1891,-2.264,-2.3904,-2.4239,-2.4393,-2.4359,-2.4284,-2.3322,-2.24,-2.1735,-2.0865,-1.9438,-1.8553,-1.8821,-1.9291,-1.9976,-2.0462,-2.0649,-2.0699,-2.0699,-3.0586,-2.9658,-2.9546,-2.9125,-2.8805,-2.9652,-3.0191,-3.0309,-2.9752,-2.9469,-2.9319,-2.8193,-2.7596,-2.7474,-2.704,-2.6701,-2.6443,-2.5937,-2.54,-2.5095,-2.4753,-2.3962,-2.3603,-2.3826,-2.3826,-2.3365,-2.2992,-2.2919,-2.2482,-2.2464,-2.2631,-2.3144,-2.4261,-2.447,-2.4166,-2.3948,-2.3717,-2.3986,-2.4024,-2.4116,-2.4155,-2.4417,-2.4691,-2.4675,-2.4682,-2.4536,-2.3875,-2.3024,-2.215,-2.1122,-2.0041,-1.9396,-1.9213,-1.9511,-1.9482,-1.9555,-1.9783,-1.8797,-1.7505,-1.7162,-1.6659,-1.6363,-1.7342,-1.8621,-1.9446,-1.979,-2.04,-2.0928,-2.1226,-2.1342,-2.145,-2.1765,-2.2048,-2.2124,-2.2072,-2.2014,-2.1847,-2.197,-2.2247,-2.2538,-2.3027,-2.3484,-2.3733,-2.3982,-2.4157,-2.3616,-2.3173,-2.2749,-2.18,-2.0841,-2.0531,-2.0406,-2.0705,-2.1073,-2.1572,-2.2072,-2.2636,-2.361,-2.3734,-2.3841,-2.375,-2.3641,-2.2929,-2.2063,-2.1028,-1.9986,-1.8932,-1.8724,-1.9042,-1.9559,-2.0307,-2.0398,-2.0627,-2.0712,-2.0712,-3.0132,-2.9473,-2.8984,-2.8515,-2.7986,-2.7965,-2.8584,-2.9486,-2.9161,-2.8919,-2.8817,-2.8492,-2.7868,-2.7121,-2.7298,-2.6918,-2.6402,-2.5882,-2.5284,-2.4985,-2.4922,-2.4229,-2.3943,-2.391,-2.3839,-2.3352,-2.2871,-2.2518,-2.2145,-2.218,-2.2281,-2.2559,-2.413,-2.4554,-2.4739,-2.4679,-2.4681,-2.455,-2.449,-2.4518,-2.4671,-2.5078,-2.5357,-2.5568,-2.5598,-2.5386,-2.4595,-2.3725,-2.2698,-2.1037,-1.9911,-1.9093,-1.8606,-1.8614,-1.8574,-1.9365,-1.9611,-1.9386,-1.7692,-1.759,-1.7334,-1.6764,-1.7738,-1.8268,-1.9164,-2.013,-2.0994,-2.1556,-2.1899,-2.1966,-2.2269,-2.2523,-2.2822,-2.2869,-2.2959,-2.303,-2.2893,-2.2764,-2.3056,-2.3232,-2.3739,-2.397,-2.4247,-2.4447,-2.4492,-2.3897,-2.3412,-2.3088,-2.2555,-2.1564,-2.0991,-2.0871,-2.1125,-2.162,-2.1864,-2.228,-2.2698,-2.3197,-2.3388,-2.3507,-2.3498,-2.3254,-2.2635,-2.1661,-2.0494,-1.9619,-1.8846,-1.8916,-1.9347,-2.0067,-2.0698,-2.0641,-2.0603,-2.0806,-2.0901,-2.8948,-2.8429,-2.7883,-2.7383,-2.7042,-2.6735,-2.7356,-2.8299,-2.833,-2.8318,-2.8302,-2.8478,-2.7936,-2.7121,-2.7583,-2.7461,-2.6362,-2.6321,-2.5846,-2.5329,-2.4989,-2.4347,-2.406,-2.3816,-2.3495,-2.3081,-2.2652,-2.2345,-2.211,-2.2387,-2.2583,-2.2708,-2.4068,-2.5016,-2.5649,-2.5937,-2.6331,-2.6078,-2.5885,-2.5572,-2.5738,-2.599,-2.6226,-2.6425,-2.6509,-2.6057,-2.5438,-2.4583,-2.309,-2.1801,-2.0919,-1.9727,-1.9277,-1.9004,-1.8896,-1.9584,-1.9515,-1.8903,-1.7624,-1.7479,-1.7415,-1.7641,-1.8408,-1.9285,-1.9983,-2.0937,-2.1616,-2.2115,-2.2339,-2.2563,-2.2944,-2.3251,-2.3497,-2.3697,-2.3976,-2.4189,-2.3979,-2.373,-2.3838,-2.3974,-2.4229,-2.4506,-2.4721,-2.4892,-2.4778,-2.4086,-2.3675,-2.3412,-2.2942,-2.2128,-2.1685,-2.1557,-2.1849,-2.2238,-2.2432,-2.2528,-2.2935,-2.323,-2.3354,-2.3399,-2.3379,-2.2687,-2.1822,-2.0836,-1.9773,-1.9197,-1.8873,-1.9285,-1.9763,-2.0513,-2.1264,-2.1457,-2.1405,-2.1323,-2.1416,-2.7432,-2.6986,-2.6324,-2.6166,-2.6033,-2.607,-2.6383,-2.6893,-2.7433,-2.7628,-2.7665,-2.8315,-2.7881,-2.704,-2.78,-2.7575,-2.6789,-2.6478,-2.608,-2.5761,-2.5199,-2.4505,-2.388,-2.3613,-2.3255,-2.2688,-2.244,-2.2562,-2.2535,-2.2796,-2.3164,-2.3388,-2.457,-2.5739,-2.6887,-2.6955,-2.7415,-2.8239,-2.7493,-2.6898,-2.7049,-2.7126,-2.7105,-2.7198,-2.7188,-2.7046,-2.656,-2.5515,-2.4123,-2.3593,-2.2662,-2.1257,-2.0375,-2.0121,-2.0034,-1.9734,-1.9599,-1.8806,-1.8026,-1.7751,-1.7696,-1.8152,-1.9058,-2.0206,-2.1136,-2.1796,-2.2356,-2.2579,-2.2749,-2.2812,-2.304,-2.3757,-2.4165,-2.4367,-2.458,-2.4959,-2.5134,-2.481,-2.4595,-2.4776,-2.4915,-2.5104,-2.4821,-2.4935,-2.4603,-2.4124,-2.3865,-2.3734,-2.331,-2.2637,-2.2433,-2.2188,-2.2241,-2.247,-2.2647,-2.2796,-2.3058,-2.3321,-2.328,-2.3165,-2.2949,-2.2065,-2.0932,-2.0221,-1.958,-1.9381,-1.9203,-1.992,-2.0643,-2.1201,-2.1854,-2.2287,-2.231,-2.2119,-2.201,-2.7075,-2.6906,-2.6347,-2.5889,-2.5528,-2.5504,-2.5788,-2.6338,-2.649,-2.6501,-2.6728,-2.7759,-2.7664,-2.6552,-2.7832,-2.7557,-2.6082,-2.625,-2.5807,-2.5253,-2.4811,-2.4517,-2.3824,-2.3649,-2.3157,-2.2663,-2.2575,-2.3084,-2.3285,-2.3447,-2.3887,-2.4719,-2.5518,-2.6364,-2.8041,-2.7959,-2.8447,-2.983,-2.9327,-2.8562,-2.8537,-2.8399,-2.8287,-2.8303,-2.8252,-2.8027,-2.7656,-2.7246,-2.6013,-2.5135,-2.4198,-2.2524,-2.0634,-2.0793,-2.0461,-2.0056,-1.9908,-1.921,-1.8523,-1.8162,-1.8346,-1.8889,-1.9763,-2.0959,-2.193,-2.2673,-2.3021,-2.3075,-2.315,-2.3147,-2.338,-2.4214,-2.4959,-2.5148,-2.5279,-2.5744,-2.615,-2.5792,-2.5449,-2.5514,-2.5577,-2.537,-2.5104,-2.4687,-2.4313,-2.4138,-2.4079,-2.3917,-2.3638,-2.3198,-2.3157,-2.2937,-2.2471,-2.2575,-2.2764,-2.2949,-2.3218,-2.2992,-2.2816,-2.2723,-2.2604,-2.1893,-2.1116,-2.0182,-1.9537,-1.9778,-2.0397,-2.125,-2.1929,-2.2111,-2.2773,-2.3353,-2.3198,-2.2961,-2.2853,-2.5982,-2.5627,-2.4978,-2.4542,-2.4311,-2.4276,-2.4636,-2.5217,-2.5557,-2.5667,-2.5923,-2.7273,-2.7319,-2.6229,-2.757,-2.6916,-2.5269,-2.573,-2.5109,-2.4472,-2.4393,-2.4253,-2.3961,-2.3803,-2.3626,-2.3188,-2.3317,-2.3692,-2.4018,-2.4454,-2.4937,-2.551,-2.5875,-2.6947,-2.8731,-2.8917,-2.9455,-3.1082,-3.0748,-3.0485,-3.0039,-2.9767,-2.9508,-2.9443,-2.9322,-2.916,-2.8986,-2.8771,-2.7906,-2.6709,-2.5648,-2.4199,-2.2772,-2.2401,-2.1574,-2.0722,-2.0225,-1.9828,-1.8948,-1.8793,-1.9155,-1.9701,-2.0481,-2.1631,-2.2928,-2.3554,-2.3555,-2.3676,-2.422,-2.4336,-2.4365,-2.4966,-2.5897,-2.6405,-2.65,-2.6743,-2.6679,-2.627,-2.6146,-2.6126,-2.6028,-2.5632,-2.526,-2.4613,-2.42,-2.3629,-2.3668,-2.3746,-2.3576,-2.3694,-2.3696,-2.3605,-2.3119,-2.2863,-2.2979,-2.3081,-2.3205,-2.2883,-2.2527,-2.2498,-2.2501,-2.201,-2.1322,-2.087,-2.0772,-2.1144,-2.1827,-2.2491,-2.2698,-2.2764,-2.3595,-2.4517,-2.4194,-2.3701,-2.3475,-2.4683,-2.3902,-2.3327,-2.3032,-2.3032,-2.3032,-2.339,-2.4036,-2.4601,-2.5023,-2.5425,-2.6773,-2.6665,-2.6481,-2.6804,-2.5638,-2.4936,-2.5127,-2.4442,-2.3956,-2.4103,-2.3978,-2.4003,-2.4063,-2.3916,-2.3923,-2.3978,-2.4273,-2.4626,-2.4948,-2.5286,-2.5727,-2.671,-2.788,-2.9118,-2.9874,-3.0472,-3.1519,-3.1839,-3.1906,-3.1626,-3.1124,-3.062,-3.0444,-3.0446,-3.0418,-3.0254,-2.988,-2.935,-2.8012,-2.6553,-2.5324,-2.4425,-2.3805,-2.2552,-2.1593,-2.074,-1.9993,-1.9099,-1.9144,-1.9687,-2.0288,-2.1237,-2.2419,-2.3749,-2.4317,-2.44,-2.4513,-2.5093,-2.5276,-2.535,-2.5858,-2.6794,-2.7257,-2.7328,-2.7443,-2.7065,-2.6707,-2.6669,-2.663,-2.6244,-2.5851,-2.5369,-2.475,-2.4025,-2.3444,-2.3263,-2.325,-2.3354,-2.372,-2.3917,-2.3923,-2.3696,-2.3489,-2.3348,-2.3272,-2.3392,-2.3137,-2.279,-2.2627,-2.243,-2.2074,-2.199,-2.2166,-2.222,-2.2471,-2.2834,-2.3405,-2.3499,-2.3548,-2.4604,-2.5359,-2.4332,-2.3891,-2.384,-2.3902,-2.3169,-2.3032,-2.2957,-2.2957,-2.2957,-2.3106,-2.3316,-2.3963,-2.4542,-2.5011,-2.5388,-2.537,-2.4745,-2.5444,-2.4893,-2.3806,-2.4164,-2.3851,-2.3242,-2.3715,-2.3754,-2.389,-2.4132,-2.4098,-2.4249,-2.4429,-2.4677,-2.4939,-2.525,-2.5836,-2.6523,-2.6659,-2.8059,-2.9818,-3.0319,-3.0672,-3.1612,-3.1897,-3.1829,-3.1517,-3.1192,-3.1219,-3.0961,-3.0663,-3.05,-3.0336,-3.0267,-2.9379,-2.8113,-2.6895,-2.6119,-2.5564,-2.5054,-2.382,-2.2376,-2.1509,-2.0771,-2.012,-2.0095,-2.0657,-2.1767,-2.2752,-2.3726,-2.4826,-2.5709,-2.5602,-2.5393,-2.5715,-2.5767,-2.5972,-2.6821,-2.7637,-2.7273,-2.7178,-2.7302,-2.7174,-2.6878,-2.6721,-2.6457,-2.6122,-2.5851,-2.5686,-2.4915,-2.3934,-2.3568,-2.3563,-2.3524,-2.3302,-2.3681,-2.4112,-2.4112,-2.4112,-2.4112,-2.391,-2.3649,-2.3585,-2.3352,-2.3027,-2.2683,-2.246,-2.227,-2.2317,-2.2895,-2.3375,-2.3631,-2.403,-2.4236,-2.446,-2.4727,-2.5769,-2.6117,-2.4896,-2.3927,-2.3703]},{"header":{"parameterUnit":"m.s-1","parameterCategory":1,"la1":31.0,"la2":29.5877,"lo1":-88.7671,"lo2":-86.6584,"dy":0.0162,"dx":0.0185,"nx":115,"ny":88,"refTime":"2023-07-04T12:00:00:Z","depth":0,"parameterNumber":3,"parameterNumberName":"V-component_of_WINDS"},"data":[0.0,0.0,0.0,0.0,0.0,0.0,0.0,0.0,0.0,0.0,0.0,0.0,0.0,0.0,0.0,0.0,0.0,0.0,0.0,0.0,0.0,0.0,0.0,0.0,0.0,0.0,0.0,0.0,0.0,0.0,0.0,0.0,0.0,0.0,0.0,0.0,0.0,0.0,0.0,0.0,0.0,0.0,0.0,0.0,0.0,0.0,0.0,0.0,0.0,0.0,0.0,0.0,0.0,0.0,0.0,0.0,0.0,0.0,0.0,0.0,0.0,0.0,0.0,0.0,0.0,0.0,0.0,0.0,0.0,0.0,0.0,0.0,0.0,0.0,0.0,0.0,0.0,0.0,0.0,0.0,0.0,0.0,0.0,0.0,0.0,0.0,0.0,0.0,0.0,0.0,0.0,0.0,0.0,0.0,0.0,0.0,0.0,0.0,0.0,0.0,0.0,0.0,0.0,0.0,0.0,0.0,0.0,0.0,0.0,0.0,0.0,0.0,0.0,0.0,0.0,0.0,0.0,0.0,0.0,0.0,0.0,0.0,0.0,0.0,0.0,0.0,0.0,0.0,0.0,0.0,0.0,0.0,0.0,0.0,0.0,0.0,0.0,0.0,0.0,0.0,0.0,0.0,0.0,0.0,0.0,0.0,0.0,0.0,0.0,0.0,0.0,0.0,0.0,0.0,0.0,0.0,0.0,0.0,0.0,0.0,0.0,0.0,0.0,0.0,0.0,0.0,0.0,0.0,0.0,0.0,0.0,0.0,0.0,0.0,0.0,0.0,0.0,0.0,0.0,0.0,0.0,0.0,0.0,0.0,0.0,0.0,0.0,0.0,0.0,0.0,0.0,0.0,0.0,0.0,0.0,0.0,0.0,0.0,0.0,0.0,0.0,0.0,0.0,0.0,0.0,0.0,0.0,0.0,0.0,0.0,0.0,0.0,0.0,0.0,0.0,0.0,0.0,0.0,0.0,0.0,0.0,0.0,0.0,0.0,0.0,0.0,0.0,0.0,0.0,0.0,0.0,0.0,0.0,0.0,0.0,0.0,0.0,0.0,0.0,0.0,0.0,0.0,0.0,0.0,0.0,0.0,0.0,0.0,0.0,0.0,0.0,0.0,0.0,0.0,0.0,0.0,0.0,0.0,0.0,0.0,0.0,0.0,0.0,0.0,0.0,0.0,0.0,0.0,0.0,0.0,0.0,0.0,0.0,0.0,0.0,0.0,0.0,0.0,0.0,0.0,0.0,0.0,0.0,0.0,0.0,0.0,0.0,0.0,0.0,0.0,0.0,0.0,0.0,0.0,0.0,0.0,0.0,0.0,0.0,0.0,0.0,0.0,0.0,0.0,0.0,0.0,0.0,0.0,0.0,0.0,0.0,0.0,0.0,0.0,0.0,0.0,0.0,0.0,0.0,0.0,0.0,0.0,0.0,0.0,0.0,0.0,0.0,0.0,0.0,0.0,0.0,0.0,0.0,0.0,0.0,0.0,0.0,0.0,0.0,0.0,0.0,0.0,0.0,0.0,0.0,0.0,0.0,0.0,0.0,0.0,0.0,0.0,0.0,0.0,0.0,0.0,0.0,0.0,0.0,0.0,0.0,0.0,0.0,0.0,0.0,0.0,0.0,0.0,0.0,0.0,0.0,0.0,0.0,0.0,0.0,0.0,0.0,0.0,0.0,0.0,0.0,0.0,0.0,0.0,0.0,0.0,0.0,0.0,0.0,0.0,0.0,0.0,0.0,0.0,0.0,0.0,0.0,0.0,0.0,0.0,0.0,0.0,0.0,0.0,0.0,0.0,0.0,0.0,0.0,0.0,0.0,0.0,0.0,0.0,0.0,0.0,0.0,0.0,0.0,0.0,0.0,0.0,0.0,0.0,0.0,0.0,0.0,0.0,0.0,0.0,0.0,0.0,0.0,0.0,0.0,0.0,0.0,0.0,0.0,0.0,0.0,0.0,0.0,0.0,0.0,0.0,0.0,0.0,0.0,0.0,0.0,0.0,0.0,0.0,0.0,0.0,0.0,0.0,0.0,0.0,0.0,0.0,0.0,0.0,0.0,0.0,0.0,0.0,0.0,0.0,0.0,0.0,0.0,0.0,0.0,0.0,0.0,0.0,0.0,0.0,0.0,0.0,0.0,0.0,0.0,0.0,0.0,0.0,0.0,0.0,0.0,0.0,0.0,0.0,0.0,0.0,0.0,0.0,0.0,0.0,0.0,0.0,0.0,0.0,0.0,0.0,0.0,0.0,0.0,0.0,0.0,0.0,0.0,0.0,0.0,0.0,0.0,0.0,0.0,0.0,0.0,0.0,0.0,0.0,0.0,0.0,0.0,0.0,0.0,0.0,0.0,0.0,0.0,0.0,0.0,0.0,0.0,0.0,0.0,0.0,0.0,0.0,0.0,0.0,0.0,0.0,0.0,0.0,0.0,0.0,0.0,0.0,0.0,0.0,0.0,0.0,0.0,0.0,0.0,0.0,0.0,0.0,0.0,0.0,0.0,0.0,0.0,0.0,0.0,0.0,0.0,0.0,0.0,0.0,0.0,0.0,0.0,0.0,0.0,0.0,0.0,0.0,0.0,0.0,0.0,0.0,0.0,0.0,0.0,0.0,0.0,0.0,0.0,0.0,0.0,0.0,0.0,0.0,0.0,0.0,0.0,0.0,0.0,0.0,0.0,0.0,0.0,0.0,0.0,0.0,0.0,0.0,0.0,0.0,0.0,0.0,0.0,0.0,0.0,0.0,0.0,0.0,0.0,0.0,0.0,0.0,0.0,0.0,0.0,0.0,0.0,0.0,0.0,0.0,0.0,0.0,0.0,0.0,0.0,0.0,0.0,0.0,0.0,0.0,0.0,0.0,0.0,0.0,0.0,0.0,0.0,0.0,0.0,0.0,0.0,0.0,0.0,0.0,0.0,0.0,0.0,0.0,0.0,0.0,0.0,0.0,0.0,0.0,0.0,0.0,0.0,0.0,0.0,0.0,0.0,0.0,0.0,0.0,0.0,0.0,0.0,0.0,0.0,0.0,0.0,0.0,0.0,0.0,0.0,0.0,0.0,0.0,0.0,0.0,0.0,0.0,0.0,0.0,0.0,0.0,0.0,0.0,0.0,0.0,0.0,0.0,0.0,0.0,0.0,0.0,0.0,0.0,0.0,0.0,0.0,0.0,0.0,0.0,0.0,0.0,0.0,0.0,0.0,0.0,0.0,0.0,0.0,0.0,0.0,0.0,0.0,0.0,0.0,0.0,0.0,0.0,0.0,0.0,0.0,0.0,0.0,0.0,0.0,0.0,0.0,0.0,0.0,0.0,0.0,0.0,0.0,0.0,0.0,0.0,0.0,0.0,0.0,0.0,0.0,0.0,0.0,0.0,0.0,0.0,0.0,0.0,0.0,0.0,0.0,0.0,0.0,0.0,0.0,0.0,0.0,0.0,0.0,0.0,0.0,0.0,0.0,0.0,0.0,0.0,0.0,0.0,0.0,0.0,0.0,0.0,0.0,0.0,0.0,0.0,0.0,0.0,0.0,0.0,0.0,0.0,0.0,0.0,0.0,0.0,0.0,0.0,0.0,0.0,0.0,0.0,0.0,0.0,0.0,0.0,0.0,0.0,0.0,0.0,0.0,0.0,0.0,0.0,0.0,0.0,0.0,0.0,0.0,0.0,0.0,0.0,0.0,0.0,0.0,0.0,0.0,0.0,0.0,0.0,0.0,0.0,0.0,0.0,0.0,0.0,0.0,0.0,0.0,0.0,0.0,0.0,0.0,0.0,0.0,0.0,0.0,0.0,0.0,0.0,0.0,0.0,0.0,0.0,0.0,0.0,0.0,0.0,0.0,0.0,0.0,0.0,0.0,0.0,0.0,0.0,0.0,0.0,0.0,0.0,0.0,0.0,0.0,0.0,0.0,0.0,0.0,0.0,0.0,0.0,0.0,0.0,0.0,0.0,0.0,0.0,0.0,0.0,0.0,0.0,0.0,0.0,0.0,0.0,0.0,0.0,0.0,0.0,0.0,0.0,0.0,0.0,0.0,0.0,0.0,0.0,0.0,0.0,0.0,0.0,0.0,0.0,0.0,0.0,0.0,0.0,0.0,0.0,0.0,0.0,0.0,0.0,0.0,0.0,0.0,0.0,0.0,0.0,0.0,0.0,0.0,0.0,0.0,0.0,0.0,0.0,0.0,0.0,0.0,0.0,0.0,0.0,0.0,0.0,0.0,0.0,0.0,0.0,0.0,0.0,0.0,0.0,0.0,0.0,-2.5716,0.0,0.0,0.0,-2.3033,0.0,0.0,0.0,0.0,0.0,0.0,0.0,0.0,0.0,0.0,0.0,0.0,0.0,0.0,0.0,0.0,0.0,0.0,0.0,0.0,0.0,0.0,0.0,0.0,0.0,0.0,0.0,0.0,0.0,0.0,0.0,0.0,0.0,0.0,0.0,0.0,0.0,0.0,0.0,0.0,0.0,0.0,0.0,0.0,0.0,0.0,0.0,0.0,0.0,0.0,0.0,0.0,0.0,0.0,0.0,0.0,0.0,0.0,0.0,0.0,0.0,0.0,0.0,0.0,0.0,0.0,0.0,0.0,0.0,0.0,0.0,0.0,0.0,0.0,0.0,0.0,0.0,0.0,0.0,0.0,0.0,0.0,0.0,0.0,0.0,0.0,0.0,0.0,0.0,0.0,0.0,0.0,0.0,0.0,0.0,0.0,0.0,0.0,0.0,0.0,0.0,0.0,0.0,0.0,0.0,0.0,0.0,0.0,0.0,0.0,-2.5025,-2.3635,-2.5215,-2.4791,-2.2062,0.0,0.0,0.0,0.0,0.0,0.0,0.0,0.0,0.0,0.0,0.0,0.0,0.0,0.0,0.0,0.0,0.0,0.0,0.0,0.0,0.0,0.0,0.0,0.0,0.0,0.0,0.0,0.0,0.0,0.0,0.0,0.0,0.0,0.0,0.0,0.0,0.0,0.0,0.0,0.0,0.0,0.0,0.0,0.0,0.0,0.0,0.0,0.0,0.0,0.0,0.0,0.0,0.0,0.0,0.0,0.0,0.0,0.0,0.0,0.0,0.0,0.0,0.0,0.0,0.0,0.0,0.0,0.0,0.0,0.0,0.0,0.0,0.0,0.0,0.0,0.0,0.0,0.0,0.0,0.0,0.0,0.0,0.0,0.0,0.0,0.0,0.0,0.0,0.0,0.0,0.0,0.0,0.0,0.0,0.0,0.0,0.0,0.0,0.0,0.0,0.0,0.0,0.0,0.0,0.0,0.0,0.0,0.0,0.0,0.0,0.0,0.0,-2.3829,-2.3455,-2.0724,0.0,0.0,0.0,0.0,0.0,0.0,0.0,0.0,0.0,0.0,0.0,0.0,0.0,0.0,0.0,0.0,0.0,0.0,0.0,0.0,0.0,0.0,0.0,0.0,0.0,0.0,0.0,0.0,0.0,0.0,0.0,0.0,0.0,0.0,0.0,0.0,0.0,0.0,0.0,0.0,0.0,0.0,0.0,0.0,0.0,0.0,0.0,0.0,0.0,0.0,0.0,0.0,0.0,0.0,0.0,0.0,0.0,0.0,0.0,0.0,0.0,0.0,0.0,0.0,0.0,0.0,0.0,0.0,0.0,0.0,0.0,0.0,0.0,0.0,0.0,0.0,0.0,0.0,0.0,0.0,0.0,0.0,0.0,0.0,0.0,0.0,0.0,0.0,0.0,0.0,0.0,0.0,0.0,0.0,0.0,0.0,0.0,0.0,0.0,0.0,0.0,0.0,0.0,0.0,0.0,0.0,0.0,0.0,0.0,0.0,-2.144,-2.1274,-2.0512,0.0,-1.8685,0.0,0.0,0.0,0.0,0.0,0.0,0.0,0.0,0.0,0.0,0.0,0.0,0.0,0.0,0.0,0.0,0.0,0.0,0.0,0.0,0.0,0.0,0.0,0.0,0.0,0.0,0.0,0.0,0.0,0.0,0.0,0.0,0.0,0.0,0.0,0.0,0.0,0.0,0.0,0.0,0.0,0.0,0.0,0.0,0.0,0.0,0.0,0.0,0.0,0.0,0.0,0.0,0.0,0.0,0.0,0.0,0.0,0.0,0.0,0.0,0.0,0.0,0.0,0.0,0.0,0.0,0.0,0.0,0.0,0.0,0.0,0.0,0.0,0.0,0.0,0.0,0.0,0.0,0.0,0.0,0.0,0.0,0.0,0.0,0.0,0.0,0.0,0.0,0.0,0.0,0.0,0.0,0.0,0.0,0.0,0.0,0.0,0.0,0.0,0.0,0.0,0.0,0.0,0.0,0.0,0.0,0.0,0.0,0.0,0.0,-1.8387,-1.804,-1.7113,-1.651,0.0,0.0,0.0,0.0,0.0,0.0,0.0,0.0,0.0,0.0,0.0,0.0,0.0,0.0,0.0,0.0,0.0,0.0,0.0,0.0,0.0,0.0,0.0,0.0,0.0,0.0,0.0,0.0,0.0,0.0,0.0,0.0,0.0,0.0,0.0,0.0,0.0,0.0,0.0,0.0,0.0,0.0,0.0,0.0,0.0,0.0,0.0,0.0,0.0,0.0,0.0,0.0,0.0,0.0,0.0,0.0,0.0,0.0,0.0,0.0,0.0,0.0,0.0,0.0,0.0,0.0,0.0,0.0,0.0,0.0,0.0,0.0,0.0,0.0,0.0,0.0,0.0,0.0,0.0,0.0,0.0,0.0,0.0,0.0,0.0,0.0,0.0,0.0,0.0,0.0,0.0,0.0,0.0,0.0,0.0,0.0,0.0,0.0,0.0,0.0,0.0,0.0,0.0,0.0,0.0,0.0,0.0,0.0,0.0,0.0,-1.5402,-1.4925,-1.4508,-1.3824,-1.3795,-1.441,0.0,0.0,0.0,0.0,0.0,0.0,0.0,0.0,0.0,0.0,0.0,0.0,0.0,0.0,0.0,0.0,0.0,0.0,0.0,0.0,0.0,0.0,0.0,0.0,0.0,0.0,0.0,0.0,0.0,0.0,0.0,0.0,0.0,0.0,0.0,0.0,0.0,0.0,0.0,0.0,0.0,0.0,0.0,0.0,0.0,0.0,0.0,0.0,0.0,0.0,0.0,0.0,0.0,0.0,0.0,0.0,0.0,0.0,0.0,0.0,0.0,0.0,0.0,0.0,0.0,0.0,0.0,0.0,0.0,0.0,0.0,0.0,0.0,0.0,0.0,0.0,0.0,0.0,0.0,0.0,0.0,0.0,0.0,0.0,0.0,0.0,0.0,0.0,0.0,0.0,0.0,0.0,0.0,0.0,0.0,0.0,0.0,0.0,0.0,0.0,0.0,0.0,0.0,0.0,0.0,0.0,0.0,0.0,-1.2974,-1.1663,-1.0937,-1.0955,-1.0504,-1.1305,0.0,0.0,0.0,0.0,0.0,0.0,0.0,0.0,0.0,0.0,0.0,0.0,0.0,0.0,0.0,0.0,0.0,0.0,0.0,0.0,0.0,0.0,0.0,0.0,0.0,0.0,0.0,0.0,0.0,0.0,0.0,0.0,0.0,0.0,0.0,0.0,0.0,0.0,0.0,0.0,0.0,0.0,0.0,0.0,0.0,0.0,0.0,0.0,0.0,0.0,0.0,0.0,0.0,0.0,0.0,0.0,0.0,0.0,0.0,0.0,0.0,0.0,0.0,0.0,0.0,0.0,0.0,0.0,0.0,0.0,0.0,0.0,0.0,0.0,0.0,0.0,0.0,0.0,0.0,0.0,0.0,0.0,0.0,0.0,0.0,0.0,0.0,0.0,0.0,0.0,0.0,0.0,0.0,0.0,0.0,0.0,0.0,0.0,0.0,0.0,0.0,0.0,0.0,0.0,0.0,0.0,0.0,0.0,0.0,-0.8363,-0.8181,-0.8189,-0.8483,-0.9246,-1.0709,0.0,0.0,0.0,0.0,0.0,0.0,0.0,0.0,0.0,0.0,0.0,0.0,0.0,0.0,0.0,0.0,0.0,0.0,0.0,0.0,0.0,0.0,0.0,0.0,0.0,0.0,0.0,0.0,0.0,0.0,0.0,0.0,0.0,0.0,0.0,0.0,0.0,0.0,0.0,0.0,0.0,0.0,0.0,0.0,0.0,0.0,0.0,0.0,0.0,0.0,0.0,0.0,0.0,0.0,0.0,0.0,0.0,0.0,0.0,0.0,0.0,0.0,0.0,0.0,0.0,0.0,0.0,0.0,0.0,0.0,0.0,0.0,0.0,0.0,0.0,0.0,0.0,0.0,0.0,0.0,0.0,0.0,0.0,0.0,0.0,0.0,0.0,0.0,0.0,0.0,0.0,0.0,0.0,0.0,0.0,0.0,0.0,0.0,0.0,0.0,0.0,0.0,0.0,0.0,0.0,0.0,0.0,0.0,0.0,-0.5004,0.0,-0.6349,-0.7048,-0.8852,-1.0684,0.0,0.0,0.0,0.0,0.0,0.0,0.0,0.0,0.0,0.0,0.0,0.0,0.0,0.0,0.0,0.0,0.0,0.0,0.0,0.0,0.0,0.0,0.0,0.0,0.0,0.0,0.0,0.0,0.0,0.0,0.0,0.0,0.0,0.0,0.0,0.0,0.0,0.0,0.0,0.0,0.0,0.0,0.0,0.0,0.0,0.0,0.0,0.0,0.0,0.0,0.0,0.0,0.0,0.0,0.0,0.0,0.0,0.0,0.0,0.0,0.0,0.0,0.0,0.0,0.0,0.0,0.0,0.0,0.0,0.0,0.0,0.0,0.0,0.0,0.0,0.0,0.0,0.0,0.0,0.0,0.0,0.0,0.0,0.0,0.0,0.0,0.0,0.0,0.0,0.0,0.0,0.0,0.0,0.0,0.0,0.0,0.0,0.0,0.0,0.0,0.0,0.0,0.0,0.0,0.0,0.0,0.0,0.0,-0.248,-0.33,-0.4275,-0.5458,-0.6769,-0.9202,-1.1191,0.0,0.0,0.0,0.0,0.0,0.0,0.0,0.0,0.0,0.0,0.0,0.0,0.0,0.0,0.0,0.0,0.0,0.0,0.0,0.0,0.0,0.0,0.0,0.0,0.0,0.0,0.0,0.0,0.0,0.0,0.0,0.0,0.0,0.0,0.0,0.0,0.0,0.0,0.0,0.0,0.0,0.0,0.0,0.0,0.0,0.0,0.0,0.0,0.0,0.0,0.0,0.0,0.0,0.0,0.0,0.0,0.0,0.0,0.0,0.0,0.0,0.0,0.0,0.0,0.0,0.0,0.0,0.0,0.0,0.0,0.0,0.0,0.0,0.0,0.0,0.0,0.0,0.0,0.0,0.0,0.0,0.0,0.0,0.0,0.0,0.0,0.0,0.0,0.0,0.0,0.0,0.0,0.0,0.0,0.0,0.0,0.0,0.0,0.0,0.0,0.0,0.0,0.0,0.0,0.0,0.0,0.0,0.0,0.0,-0.3828,-0.5784,-0.7456,-0.8718,-1.0905,-1.3315,0.0,0.0,0.0,0.0,0.0,0.0,0.0,0.0,0.0,0.0,0.0,0.0,0.0,0.0,0.0,0.0,0.0,0.0,0.0,0.0,0.0,0.0,0.0,0.0,0.0,0.0,0.0,0.0,0.0,0.0,0.0,0.0,0.0,0.0,0.0,0.0,0.0,0.0,0.0,0.0,0.0,0.0,0.0,0.0,0.0,0.0,0.0,0.0,0.0,0.0,0.0,0.0,0.0,0.0,0.0,0.0,0.0,0.0,0.0,0.0,0.0,0.0,0.0,0.0,0.0,0.0,0.0,0.0,0.0,0.0,0.0,0.0,0.0,0.0,0.0,0.0,0.0,0.0,0.0,0.0,0.0,0.0,0.0,0.0,0.0,0.0,0.0,0.0,0.0,0.0,0.0,0.0,0.0,0.0,0.0,0.0,0.0,0.0,0.0,0.0,0.0,0.0,0.0,0.0,0.0,0.0,0.0,0.0,0.0,-0.4074,-0.6191,-0.8206,-1.0003,-1.2318,-1.4581,-1.6772,0.0,0.0,0.0,0.0,0.0,0.0,0.0,0.0,0.0,0.0,0.0,0.0,0.0,0.0,0.0,0.0,0.0,0.0,0.0,0.0,0.0,0.0,0.0,0.0,0.0,0.0,0.0,0.0,0.0,0.0,0.0,0.0,0.0,0.0,0.0,0.0,0.0,0.0,0.0,0.0,0.0,0.0,0.0,0.0,0.0,0.0,0.0,0.0,0.0,0.0,0.0,0.0,0.0,0.0,0.0,0.0,0.0,0.0,0.0,0.0,0.0,0.0,0.0,0.0,0.0,0.0,0.0,0.0,0.0,0.0,0.0,0.0,0.0,0.0,0.0,0.0,0.0,0.0,0.0,0.0,0.0,0.0,0.0,0.0,0.0,0.0,0.0,0.0,0.0,0.0,0.0,0.0,0.0,0.0,0.0,0.0,0.0,0.0,0.0,0.0,0.0,0.0,0.0,0.0,0.0,0.0,0.0,0.0,-0.4227,-0.585,-0.802,-1.0602,-1.3319,-1.519,0.0,0.0,0.0,0.0,0.0,0.0,0.0,0.0,0.0,0.0,0.0,0.0,0.0,0.0,0.0,0.0,0.0,0.0,0.0,0.0,0.0,0.0,0.0,0.0,0.0,0.0,0.0,0.0,0.0,0.0,0.0,0.0,0.0,0.0,0.0,0.0,0.0,0.0,0.0,0.0,0.0,0.0,0.0,0.0,0.0,0.0,0.0,0.0,0.0,0.0,0.0,0.0,0.0,0.0,0.0,0.0,0.0,0.0,0.0,0.0,0.0,0.0,0.0,0.0,0.0,0.0,0.0,0.0,0.0,0.0,0.0,0.0,0.0,0.0,0.0,0.0,0.0,0.0,0.0,0.0,0.0,0.0,0.0,0.0,0.0,0.0,0.0,0.0,0.0,0.0,0.0,0.0,0.0,0.0,0.0,0.0,0.0,0.0,0.0,0.0,0.0,0.0,0.0,0.0,0.0,0.0,0.0,0.0,0.0,-0.6589,-0.8044,-0.9626,-1.1577,-1.4213,-1.6352,0.0,0.0,0.0,0.0,0.0,0.0,0.0,0.0,0.0,0.0,0.0,0.0,0.0,0.0,0.0,0.0,0.0,0.0,0.0,0.0,0.0,0.0,0.0,0.0,0.0,0.0,0.0,0.0,0.0,0.0,0.0,0.0,0.0,0.0,0.0,0.0,0.0,0.0,0.0,0.0,0.0,0.0,0.0,0.0,0.0,0.0,0.0,0.0,0.0,0.0,0.0,0.0,0.0,0.0,0.0,0.0,0.0,0.0,0.0,0.0,0.0,0.0,0.0,0.0,0.0,0.0,0.0,0.0,0.0,0.0,0.0,0.0,0.0,0.0,0.0,0.0,0.0,0.0,0.0,0.0,0.0,0.0,0.0,0.0,0.0,0.0,0.0,0.0,0.0,0.0,0.0,0.0,0.0,0.0,0.0,0.0,0.0,0.0,0.0,0.0,0.0,0.0,0.0,0.0,0.0,0.0,0.0,0.0,-0.8116,-0.8086,-0.9975,-1.131,-1.1955,-1.4601,-1.6711,0.0,0.0,0.0,0.0,0.0,0.0,0.0,0.0,0.0,0.0,0.0,0.0,0.0,0.0,0.0,0.0,0.0,0.0,0.0,0.0,0.0,0.0,0.0,0.0,0.0,0.0,0.0,0.0,0.0,0.0,0.0,0.0,0.0,0.0,0.0,0.0,0.0,0.0,0.0,0.0,0.0,0.0,0.0,0.0,0.0,0.0,0.0,0.0,0.0,0.0,0.0,0.0,0.0,0.0,0.0,0.0,0.0,0.0,0.0,0.0,0.0,0.0,0.0,0.0,0.0,0.0,0.0,0.0,0.0,0.0,0.0,0.0,0.0,0.0,0.0,0.0,0.0,0.0,0.0,0.0,0.0,0.0,0.0,0.0,0.0,0.0,0.0,0.0,0.0,0.0,0.0,0.0,0.0,0.0,0.0,0.0,0.0,0.0,0.0,0.0,0.0,0.0,0.0,0.0,0.0,0.0,0.0,0.0,-1.0684,-0.9158,-1.1468,-1.2674,-1.2539,-1.4886,-1.654,0.0,0.0,0.0,0.0,0.0,0.0,0.0,0.0,0.0,0.0,0.0,0.0,0.0,0.0,0.0,0.0,0.0,0.0,0.0,0.0,0.0,0.0,0.0,0.0,0.0,0.0,0.0,0.0,0.0,0.0,0.0,0.0,0.0,0.0,0.0,0.0,0.0,0.0,0.0,0.0,0.0,0.0,0.0,0.0,0.0,0.0,0.0,0.0,0.0,0.0,0.0,0.0,0.0,0.0,0.0,0.0,0.0,0.0,0.0,0.0,0.0,0.0,0.0,0.0,0.0,0.0,0.0,0.0,0.0,0.0,0.0,0.0,0.0,0.0,0.0,0.0,0.0,0.0,0.0,0.0,0.0,0.0,0.0,0.0,0.0,0.0,0.0,0.0,0.0,0.0,0.0,0.0,0.0,0.0,0.0,0.0,0.0,0.0,0.0,0.0,0.0,0.0,0.0,0.0,0.0,0.0,0.0,0.0,-1.1878,-1.1521,-1.2004,-1.3073,-1.4689,-1.531,-1.5935,0.0,0.0,0.0,0.0,0.0,0.0,0.0,0.0,0.0,0.0,0.0,0.0,0.0,0.0,0.0,0.0,0.0,0.0,0.0,0.0,0.0,0.0,0.0,0.0,0.0,0.0,0.0,0.0,0.0,0.0,0.0,0.0,0.0,0.0,0.0,0.0,0.0,0.0,0.0,0.0,0.0,0.0,0.0,0.0,0.0,0.0,0.0,0.0,-2.5455,0.0,0.0,0.0,0.0,0.0,0.0,0.0,0.0,0.0,0.0,0.0,0.0,0.0,0.0,0.0,0.0,0.0,0.0,0.0,0.0,0.0,0.0,0.0,0.0,0.0,0.0,0.0,0.0,0.0,0.0,0.0,0.0,0.0,0.0,0.0,0.0,0.0,0.0,0.0,0.0,0.0,0.0,0.0,0.0,0.0,0.0,0.0,0.0,0.0,0.0,0.0,0.0,0.0,0.0,0.0,0.0,0.0,0.0,0.0,-1.3663,-1.3125,-1.3164,-1.4035,-1.5367,-1.5779,-1.6458,0.0,0.0,0.0,0.0,0.0,0.0,0.0,0.0,0.0,0.0,0.0,0.0,0.0,0.0,0.0,0.0,0.0,0.0,0.0,0.0,0.0,0.0,0.0,0.0,0.0,0.0,0.0,0.0,0.0,0.0,0.0,0.0,0.0,0.0,0.0,0.0,0.0,0.0,0.0,0.0,0.0,0.0,0.0,0.0,0.0,0.0,0.0,0.0,0.0,0.0,0.0,0.0,0.0,0.0,0.0,0.0,0.0,0.0,0.0,0.0,0.0,0.0,0.0,0.0,0.0,0.0,0.0,0.0,0.0,0.0,0.0,0.0,0.0,0.0,0.0,0.0,0.0,0.0,0.0,0.0,0.0,0.0,0.0,0.0,0.0,0.0,0.0,0.0,0.0,0.0,0.0,0.0,0.0,0.0,0.0,0.0,0.0,0.0,0.0,0.0,0.0,0.0,0.0,0.0,0.0,0.0,0.0,-1.5986,-1.524,-1.4202,-1.447,-1.4924,-1.5384,-1.6398,-1.7531,-1.8727,0.0,0.0,0.0,0.0,0.0,0.0,0.0,0.0,0.0,0.0,0.0,0.0,0.0,0.0,0.0,0.0,0.0,0.0,0.0,0.0,0.0,0.0,0.0,0.0,0.0,0.0,0.0,0.0,0.0,0.0,0.0,0.0,0.0,0.0,0.0,0.0,0.0,0.0,-2.3106,-2.1503,0.0,0.0,0.0,0.0,0.0,0.0,0.0,0.0,-2.5382,0.0,0.0,0.0,0.0,0.0,0.0,0.0,0.0,0.0,0.0,0.0,0.0,0.0,0.0,0.0,0.0,0.0,0.0,0.0,0.0,0.0,0.0,0.0,0.0,0.0,0.0,0.0,0.0,0.0,0.0,0.0,0.0,0.0,0.0,0.0,0.0,0.0,0.0,0.0,0.0,0.0,0.0,0.0,0.0,0.0,0.0,0.0,0.0,0.0,0.0,0.0,0.0,0.0,0.0,0.0,0.0,-1.816,-1.641,-1.5398,-1.5109,-1.4607,-1.4694,-1.5509,-1.7147,-1.8542,-1.9423,0.0,0.0,0.0,0.0,0.0,0.0,0.0,0.0,0.0,0.0,0.0,0.0,0.0,0.0,0.0,0.0,0.0,0.0,0.0,0.0,0.0,0.0,0.0,0.0,0.0,0.0,0.0,0.0,0.0,0.0,0.0,0.0,0.0,0.0,0.0,0.0,0.0,0.0,0.0,-2.2508,-2.1695,0.0,0.0,0.0,0.0,0.0,0.0,0.0,0.0,-2.5448,0.0,0.0,0.0,0.0,0.0,0.0,0.0,0.0,0.0,0.0,0.0,0.0,0.0,0.0,0.0,0.0,0.0,0.0,0.0,0.0,0.0,0.0,0.0,0.0,0.0,0.0,0.0,0.0,0.0,0.0,0.0,0.0,0.0,0.0,0.0,0.0,0.0,0.0,0.0,0.0,0.0,0.0,0.0,0.0,0.0,0.0,0.0,0.0,0.0,0.0,0.0,0.0,0.0,0.0,0.0,-1.8455,-1.7351,-1.6565,-1.6045,-1.5758,-1.5731,-1.6101,-1.7244,-1.847,0.0,0.0,0.0,0.0,0.0,0.0,0.0,0.0,0.0,0.0,0.0,0.0,0.0,0.0,0.0,0.0,0.0,0.0,0.0,0.0,0.0,0.0,0.0,0.0,0.0,0.0,0.0,0.0,0.0,0.0,0.0,0.0,0.0,0.0,0.0,0.0,0.0,0.0,0.0,0.0,-2.3601,-2.2596,-2.4342,0.0,0.0,0.0,0.0,0.0,0.0,-2.4785,-2.5004,0.0,0.0,0.0,0.0,0.0,0.0,0.0,0.0,0.0,0.0,0.0,0.0,0.0,0.0,0.0,0.0,0.0,0.0,0.0,0.0,0.0,0.0,0.0,0.0,0.0,0.0,0.0,0.0,0.0,0.0,0.0,0.0,0.0,0.0,0.0,0.0,0.0,0.0,0.0,0.0,0.0,0.0,0.0,0.0,0.0,0.0,0.0,0.0,0.0,0.0,0.0,0.0,0.0,0.0,0.0,-1.8914,-1.8378,-1.7755,-1.6871,-1.6852,-1.6827,-1.6944,-1.7626,-1.8858,0.0,0.0,0.0,0.0,0.0,0.0,0.0,0.0,0.0,0.0,0.0,0.0,0.0,0.0,0.0,0.0,0.0,0.0,0.0,0.0,0.0,0.0,0.0,0.0,0.0,0.0,0.0,0.0,0.0,0.0,0.0,0.0,0.0,0.0,0.0,0.0,0.0,0.0,0.0,0.0,0.0,-2.3991,-2.5469,-2.4863,0.0,0.0,0.0,0.0,-2.5022,-2.4742,0.0,0.0,0.0,0.0,0.0,0.0,0.0,0.0,0.0,0.0,0.0,0.0,0.0,0.0,0.0,0.0,0.0,0.0,0.0,0.0,0.0,0.0,0.0,0.0,0.0,0.0,0.0,0.0,0.0,0.0,0.0,0.0,0.0,0.0,0.0,0.0,0.0,0.0,0.0,0.0,0.0,0.0,0.0,0.0,0.0,0.0,0.0,0.0,0.0,0.0,0.0,0.0,0.0,0.0,0.0,0.0,-2.0717,-1.9326,-1.8241,-1.763,-1.7035,-1.7141,-1.7893,-1.9755,-2.1105,0.0,0.0,0.0,0.0,0.0,0.0,0.0,0.0,0.0,0.0,0.0,0.0,0.0,0.0,0.0,0.0,0.0,0.0,0.0,0.0,0.0,0.0,0.0,0.0,0.0,0.0,0.0,0.0,0.0,0.0,0.0,0.0,0.0,0.0,0.0,0.0,0.0,0.0,0.0,0.0,0.0,-2.6498,-2.4871,-2.4818,-2.4693,0.0,0.0,-2.4191,-2.485,-2.6134,0.0,0.0,0.0,0.0,0.0,0.0,0.0,0.0,0.0,0.0,0.0,0.0,0.0,0.0,0.0,0.0,0.0,0.0,0.0,0.0,0.0,0.0,0.0,0.0,0.0,0.0,0.0,0.0,0.0,0.0,0.0,0.0,0.0,0.0,0.0,0.0,0.0,0.0,0.0,0.0,0.0,0.0,0.0,0.0,0.0,0.0,0.0,0.0,0.0,0.0,0.0,0.0,0.0,0.0,0.0,-2.2574,-2.129,-2.052,-1.98,-1.9207,-1.889,-1.9023,-1.9834,-2.04,-2.1201,0.0,0.0,0.0,0.0,0.0,0.0,0.0,0.0,0.0,0.0,0.0,0.0,0.0,0.0,0.0,0.0,0.0,0.0,0.0,0.0,0.0,0.0,0.0,0.0,0.0,0.0,0.0,0.0,0.0,0.0,0.0,0.0,0.0,0.0,0.0,0.0,0.0,0.0,0.0,0.0,0.0,0.0,-2.5684,-2.5379,0.0,0.0,0.0,-2.5165,-2.5601,0.0,0.0,0.0,0.0,0.0,0.0,0.0,0.0,0.0,0.0,0.0,0.0,0.0,0.0,0.0,0.0,0.0,0.0,0.0,0.0,0.0,0.0,0.0,0.0,0.0,0.0,0.0,0.0,0.0,0.0,0.0,0.0,0.0,0.0,0.0,0.0,0.0,0.0,0.0,0.0,0.0,0.0,0.0,0.0,0.0,0.0,0.0,0.0,0.0,0.0,0.0,0.0,0.0,0.0,0.0,0.0,0.0,-2.2249,-2.1971,-2.144,-2.0759,-2.0601,-2.098,-2.1676,-2.1155,0.0,0.0,0.0,0.0,0.0,0.0,0.0,0.0,0.0,0.0,0.0,0.0,0.0,0.0,0.0,0.0,0.0,0.0,0.0,0.0,0.0,0.0,0.0,0.0,0.0,0.0,0.0,-2.7524,0.0,0.0,0.0,0.0,0.0,0.0,0.0,0.0,0.0,0.0,0.0,0.0,0.0,0.0,-2.5276,-2.6236,-2.5971,-2.6096,0.0,0.0,-2.5998,-2.6144,-2.777,-2.8655,0.0,0.0,0.0,0.0,0.0,0.0,0.0,0.0,0.0,0.0,0.0,0.0,0.0,0.0,0.0,0.0,0.0,0.0,0.0,0.0,0.0,0.0,0.0,0.0,0.0,0.0,0.0,0.0,0.0,0.0,0.0,0.0,0.0,0.0,0.0,0.0,0.0,0.0,0.0,0.0,0.0,0.0,0.0,0.0,0.0,0.0,0.0,0.0,0.0,0.0,0.0,0.0,0.0,0.0,-2.4303,-2.4211,-2.3725,-2.2928,-2.1863,-2.1747,-2.215,-2.2793,-2.26,-2.2976,0.0,0.0,0.0,0.0,0.0,0.0,0.0,0.0,0.0,0.0,0.0,0.0,0.0,0.0,0.0,0.0,0.0,0.0,0.0,0.0,0.0,0.0,0.0,0.0,0.0,0.0,0.0,0.0,0.0,0.0,0.0,0.0,0.0,0.0,0.0,0.0,0.0,0.0,0.0,0.0,0.0,-2.6144,-2.5522,-2.6717,-2.7539,0.0,-2.7197,-2.6854,-2.6112,-2.8786,-3.0102,-2.7558,0.0,0.0,0.0,0.0,0.0,0.0,0.0,0.0,0.0,0.0,0.0,0.0,0.0,0.0,0.0,0.0,0.0,0.0,0.0,0.0,0.0,0.0,0.0,0.0,0.0,0.0,0.0,0.0,0.0,0.0,0.0,0.0,0.0,0.0,0.0,0.0,0.0,0.0,0.0,0.0,0.0,0.0,0.0,0.0,0.0,0.0,0.0,0.0,0.0,0.0,0.0,0.0,0.0,-2.4796,-2.4733,-2.4236,-2.3611,-2.2801,-2.3021,-2.3516,-2.4125,-2.3597,-2.342,0.0,0.0,0.0,0.0,0.0,0.0,0.0,0.0,0.0,0.0,0.0,0.0,0.0,0.0,0.0,0.0,0.0,0.0,0.0,0.0,0.0,0.0,0.0,0.0,0.0,0.0,0.0,0.0,-2.7203,-2.7557,-2.8543,0.0,0.0,0.0,0.0,0.0,0.0,0.0,0.0,0.0,0.0,-2.6144,-2.5825,-2.6845,0.0,0.0,-2.791,-2.7944,-2.7607,-2.981,-3.0438,-2.737,-2.882,0.0,0.0,0.0,0.0,0.0,0.0,0.0,0.0,0.0,0.0,0.0,0.0,0.0,0.0,0.0,0.0,0.0,0.0,0.0,0.0,0.0,0.0,0.0,0.0,0.0,0.0,0.0,0.0,0.0,0.0,0.0,0.0,0.0,0.0,0.0,0.0,0.0,0.0,0.0,0.0,0.0,0.0,0.0,0.0,0.0,0.0,0.0,0.0,0.0,0.0,0.0,0.0,-2.5103,-2.534,-2.5066,-2.4746,-2.4295,-2.4983,-2.55,-2.5877,-2.5135,-2.4606,0.0,0.0,0.0,0.0,0.0,0.0,0.0,0.0,0.0,0.0,0.0,0.0,0.0,0.0,0.0,0.0,0.0,0.0,0.0,0.0,0.0,0.0,0.0,0.0,0.0,0.0,0.0,0.0,-2.7328,-2.763,-2.8851,0.0,0.0,0.0,0.0,0.0,0.0,0.0,0.0,0.0,0.0,-2.6025,-2.6241,-2.7031,-2.7796,-2.8137,-2.8151,-2.8086,-2.7984,-2.9824,-3.0319,-2.7682,0.0,0.0,0.0,0.0,0.0,0.0,0.0,0.0,0.0,0.0,0.0,0.0,0.0,0.0,0.0,0.0,0.0,0.0,0.0,0.0,0.0,0.0,0.0,0.0,0.0,0.0,0.0,-2.2385,0.0,0.0,-2.1655,0.0,0.0,0.0,0.0,0.0,0.0,0.0,0.0,0.0,0.0,0.0,0.0,0.0,0.0,0.0,0.0,0.0,0.0,0.0,0.0,0.0,0.0,-2.5085,-2.6472,-2.6585,-2.6755,-2.6723,-2.7806,-2.8296,-2.8132,-2.7302,-2.6736,-2.6538,0.0,0.0,0.0,0.0,0.0,0.0,0.0,0.0,0.0,0.0,0.0,0.0,0.0,0.0,0.0,0.0,0.0,0.0,0.0,0.0,0.0,0.0,0.0,0.0,0.0,0.0,-2.8126,-2.7013,-2.6482,0.0,0.0,0.0,0.0,0.0,0.0,0.0,0.0,0.0,-2.425,-2.5025,-2.585,-2.6695,-2.7466,-2.8043,-2.8166,-2.7661,-2.7082,-2.7003,-2.8679,-2.9624,0.0,0.0,0.0,0.0,0.0,0.0,0.0,0.0,0.0,0.0,0.0,0.0,0.0,0.0,0.0,0.0,0.0,0.0,0.0,0.0,0.0,0.0,0.0,0.0,0.0,0.0,0.0,-2.4346,-2.4527,0.0,0.0,0.0,0.0,0.0,0.0,0.0,0.0,0.0,0.0,0.0,-3.0599,-3.1773,0.0,0.0,0.0,0.0,0.0,0.0,0.0,0.0,0.0,0.0,0.0,0.0,-2.603,-2.6985,-2.7493,-2.7764,-2.7851,-2.8487,-2.8593,-2.833,-2.7471,-2.6812,-2.6209,0.0,0.0,0.0,0.0,0.0,0.0,0.0,0.0,0.0,0.0,0.0,0.0,0.0,0.0,0.0,0.0,0.0,0.0,0.0,0.0,0.0,0.0,0.0,0.0,0.0,-2.8659,0.0,0.0,0.0,0.0,0.0,0.0,0.0,0.0,0.0,0.0,-2.5513,-2.5792,-2.5134,-2.6493,-2.7486,-2.7156,-2.8114,-2.8935,0.0,0.0,0.0,0.0,0.0,0.0,0.0,0.0,0.0,0.0,0.0,0.0,0.0,0.0,-3.457,-3.1622,-2.9715,-2.8285,-2.7342,0.0,0.0,0.0,0.0,0.0,0.0,0.0,0.0,0.0,0.0,0.0,0.0,0.0,0.0,-2.5268,-2.626,-2.6119,0.0,0.0,0.0,0.0,0.0,0.0,0.0,0.0,-3.1187,-3.2273,-3.2323,-3.3607,-3.3751,0.0,-3.1944,-3.0283,0.0,0.0,0.0,0.0,0.0,0.0,0.0,0.0,-2.6268,-2.7151,-2.7954,-2.8433,-2.8682,-2.9134,-2.9148,-2.8914,-2.8211,-2.7406,-2.6396,-2.5742,-2.5428,0.0,0.0,0.0,0.0,0.0,0.0,0.0,0.0,0.0,0.0,0.0,0.0,0.0,0.0,0.0,0.0,0.0,0.0,0.0,0.0,0.0,0.0,0.0,-2.8448,0.0,0.0,0.0,0.0,0.0,0.0,0.0,0.0,0.0,-2.6229,-2.7227,-2.7742,-2.7003,-2.7944,-2.8389,-2.7883,0.0,0.0,0.0,0.0,0.0,0.0,0.0,-3.0731,-2.9331,-3.0322,-3.0838,-2.9481,-3.1368,-3.3172,-3.3215,0.0,0.0,-3.2347,-3.0314,-2.8631,-2.7882,-2.6303,-2.5019,-2.4902,-2.5098,-2.5166,0.0,0.0,0.0,0.0,0.0,0.0,0.0,0.0,-2.4596,-2.5581,0.0,-2.7228,0.0,0.0,0.0,0.0,-2.837,-2.9842,0.0,0.0,-3.2537,-3.3636,-3.3502,-3.441,-3.4577,-3.403,-3.4178,-3.2611,-2.9523,-2.8471,0.0,0.0,0.0,0.0,0.0,0.0,-2.5924,-2.7008,-2.7929,-2.8754,-2.942,-2.9913,-3.0182,-3.0121,-2.9443,-2.8496,-2.7322,-2.7877,-2.7405,-2.5525,-2.7124,0.0,0.0,0.0,0.0,0.0,0.0,0.0,0.0,0.0,0.0,0.0,0.0,0.0,0.0,0.0,0.0,0.0,0.0,0.0,0.0,-2.8595,0.0,0.0,0.0,0.0,0.0,0.0,0.0,0.0,0.0,-2.9577,-2.9577,-2.9546,-2.9545,-2.9459,0.0,0.0,0.0,0.0,-2.8991,-2.9418,-2.951,-2.9326,-2.8958,-2.9806,-3.0543,-3.0531,0.0,0.0,-3.1381,-3.2726,-3.3525,-3.2034,-3.308,-3.4342,-3.522,-3.2466,-3.0251,-3.0013,-2.7363,-2.5408,-2.5615,-2.5703,-2.5625,-2.8592,0.0,0.0,0.0,0.0,-2.468,-2.5746,-2.7578,-2.7594,-2.8346,-2.9659,-2.9209,0.0,0.0,0.0,0.0,0.0,0.0,-3.1572,-3.1905,-3.4175,-3.5146,-3.5209,-3.652,-3.6342,-3.4953,-3.4186,-3.2751,-3.0798,-2.9474,-2.8287,-2.7012,0.0,0.0,0.0,0.0,-2.7163,-2.7889,-2.9222,-3.0131,-3.0722,-3.1436,-3.1496,-3.0863,-3.0152,-2.9218,-2.8231,-2.7818,-2.7575,-2.752,-2.804,0.0,0.0,0.0,0.0,0.0,0.0,0.0,0.0,0.0,0.0,0.0,0.0,0.0,0.0,0.0,0.0,0.0,0.0,0.0,-2.887,-2.8598,-2.8433,0.0,0.0,0.0,0.0,0.0,0.0,0.0,0.0,0.0,-3.1982,-3.1074,-3.0354,0.0,0.0,-3.0111,-2.9863,-3.0272,-3.0621,-3.0699,-3.108,0.0,-3.1092,-3.1193,-3.1383,-3.1371,-3.1985,-3.2514,-3.2641,-3.3104,-3.3356,-3.2863,-3.3188,-3.3513,-3.3263,-3.1502,-2.9556,-2.8644,-2.7205,-2.5937,-2.5791,-2.5977,-2.6064,-3.0838,-2.9379,-2.6967,-2.5717,-2.5411,-2.5288,-2.6423,-2.8169,-2.8462,-2.9487,-3.1015,-3.0302,-2.975,-2.9392,-2.8799,0.0,0.0,0.0,-3.2662,-3.32,-3.513,-3.6075,-3.6197,-3.703,-3.6685,-3.5292,-3.4254,-3.2746,-3.0941,-3.0087,-2.8923,-2.7499,0.0,-2.7197,-2.6823,-2.6999,-2.747,-2.8268,-2.9052,-2.9882,-3.0711,-3.1293,-3.1431,-3.1153,-3.0679,-3.0188,-2.9631,-2.8852,-2.8531,-2.8784,-2.8852,-2.9045,0.0,0.0,0.0,0.0,0.0,0.0,0.0,0.0,0.0,0.0,0.0,-3.0895,-2.9753,0.0,0.0,0.0,-2.8137,-2.8541,-2.9164,-2.9287,0.0,0.0,0.0,0.0,0.0,0.0,0.0,-3.0362,-3.1685,-3.2692,-3.3031,-3.2256,-3.1584,-3.1093,-3.1085,-3.0991,-3.0489,0.0,-3.1053,-3.1134,-3.1283,-3.138,-3.1499,-3.1436,-3.142,-3.1637,-3.1937,-3.225,-3.2575,-3.2815,-3.2899,-3.2731,-3.2827,-3.2803,-3.2274,-3.0847,-2.9421,-2.8381,-2.7441,-2.6496,-2.5869,-2.5947,-2.6045,-3.2942,-3.2399,-2.8266,-2.6447,-2.6229,-2.5938,-2.665,-2.7778,-2.8082,-2.95,-3.1619,-3.0708,-3.0759,-3.1568,-3.0992,0.0,-3.1794,-3.2905,-3.3697,-3.4121,-3.5642,-3.6405,-3.6405,-3.6363,-3.599,-3.5251,-3.4267,-3.2651,-3.0405,-3.0254,-2.9404,-2.7793,-2.7789,-2.7221,-2.6356,-2.6622,-2.7278,-2.8131,-2.8238,-2.8809,-2.9915,-3.0342,-3.0739,-3.1235,-3.1167,-3.1172,-3.1068,-3.0387,-2.9889,-2.9546,-2.9566,-2.9543,-2.9507,0.0,0.0,0.0,0.0,0.0,0.0,0.0,0.0,0.0,0.0,0.0,0.0,0.0,0.0,-2.8265,-2.8227,0.0,-2.9768,-3.036,0.0,0.0,0.0,-3.0916,-2.9132,-3.0959,-3.1963,-3.1149,0.0,0.0,-3.3018,-3.3129,-3.3046,-3.2548,-3.2067,-3.152,-3.1002,-3.0879,-3.0784,-3.1008,-3.0802,-3.0795,-3.1162,-3.1138,-3.1369,-3.1709,-3.1792,-3.1768,-3.1728,-3.2079,-3.2224,-3.1637,-3.1985,-3.2178,-3.1625,-3.0796,-2.9908,-2.8837,-2.7985,-2.701,-2.6031,-2.5848,-2.5848,-3.2942,-3.2557,-3.0406,-2.9278,-2.8789,-2.8827,-2.9079,-2.9592,-3.0068,-3.0945,-3.1916,-3.0897,-3.0637,-3.1075,-3.1797,-3.2256,-3.2657,-3.4075,-3.4775,-3.4895,-3.5898,-3.6405,-3.6377,-3.5751,-3.511,-3.4433,-3.295,-3.1474,-3.0077,-2.9298,-2.8515,-2.7763,-2.7317,-2.718,-2.738,-2.7572,-2.7792,-2.804,-2.9314,-3.0378,-3.1358,-3.2196,-3.2436,-3.2013,-3.1956,-3.1632,-3.1107,-3.0191,-2.9596,-2.9518,-3.0011,-3.004,-2.9537,-2.9542,0.0,0.0,0.0,0.0,0.0,0.0,0.0,0.0,0.0,-3.1012,-2.91,0.0,-2.9301,0.0,-2.8511,-2.9226,-3.0556,-3.1228,0.0,0.0,-3.3165,-3.3251,-3.298,-3.3114,-3.3021,-3.2634,-3.3479,-3.3656,-3.2563,-3.3385,-3.385,-3.3277,-3.2928,-3.2512,-3.1965,-3.2626,-3.2777,-3.2021,-3.229,-3.2739,-3.2171,-3.2133,-3.2115,-3.2311,-3.235,-3.2079,-3.1502,-3.1518,-3.1329,-3.0677,-3.0903,-3.1011,-3.0591,-3.0599,-3.0149,-2.8996,-2.844,-2.791,-2.6682,-2.6423,-2.605,-3.3611,-3.3201,-3.2252,-3.1487,-3.0906,-3.0135,-2.9586,-2.9449,-3.0536,-3.1187,-3.1342,-3.0718,-3.0664,-3.1159,-3.2172,-3.2587,-3.2667,-3.4291,-3.4955,-3.4619,-3.5366,-3.5603,-3.5407,-3.4584,-3.3726,-3.2909,-3.1643,-3.0393,-2.9187,-2.8452,-2.7885,-2.7368,-2.7126,-2.714,-2.7495,-2.7567,-2.7969,-2.8607,-2.9937,-3.1232,-3.2535,-3.3357,-3.3754,-3.3586,-3.3303,-3.2643,-3.1752,-3.0863,-3.0259,-2.9985,-3.0602,-3.0734,-3.0309,-3.0063,-2.9669,0.0,0.0,0.0,0.0,0.0,0.0,0.0,0.0,0.0,0.0,0.0,-3.0477,-3.0007,-3.0204,-3.1031,-3.2465,-3.2954,-3.352,-3.4231,-3.458,-3.4657,-3.4579,-3.4472,-3.4389,-3.4236,-3.4397,-3.4202,-3.3467,-3.3791,-3.3966,-3.3622,-3.3472,-3.3251,-3.306,-3.3472,-3.3396,-3.2175,-3.2356,-3.2618,-3.2306,-3.2398,-3.2501,-3.2501,-3.2501,-3.2171,-3.1128,-3.1104,-3.0959,-2.9975,-3.017,-3.0446,-3.0158,-3.0302,-3.0228,-2.9562,-2.9288,-2.8533,-2.6725,-2.6216,-2.5859,-3.4523,-3.3994,-3.3501,-3.2879,-3.217,-3.0626,-2.9465,-2.8877,-3.0397,-3.0932,-3.0584,-3.0568,-3.0917,-3.1538,-3.2286,-3.2434,-3.2243,-3.3989,-3.4446,-3.3869,-3.4461,-3.4471,-3.4052,-3.3114,-3.2085,-3.1074,-3.0294,-2.9197,-2.7919,-2.773,-2.74,-2.6868,-2.7095,-2.7271,-2.7341,-2.7456,-2.8134,-2.949,-3.0438,-3.1674,-3.3239,-3.3979,-3.4555,-3.4957,-3.4421,-3.3589,-3.2467,-3.1825,-3.1198,-3.066,-3.1302,-3.1617,-3.1411,-3.073,-3.0332,0.0,-2.9884,0.0,0.0,0.0,0.0,0.0,0.0,0.0,0.0,-3.1167,-3.1507,-3.2164,-3.23,-3.2981,-3.4612,-3.4872,-3.5045,-3.5151,-3.5579,-3.5702,-3.5077,-3.5353,-3.5559,-3.5384,-3.4963,-3.4716,-3.4346,-3.4045,-3.3851,-3.3756,-3.377,-3.3742,-3.3902,-3.3873,-3.345,-3.2117,-3.1856,-3.2192,-3.2319,-3.2378,-3.2462,-3.2501,-3.2394,-3.1876,-3.0532,-3.0678,-3.0586,-2.9452,-2.9496,-2.9809,-2.9809,-2.9797,-2.9845,-2.9606,-2.9618,-2.8827,-2.6866,-2.6288,-2.573,-3.4523,-3.3994,-3.3501,-3.2497,-3.1275,-3.0879,-3.0814,-3.1104,-3.1395,-3.1372,-3.1063,-3.1308,-3.1304,-3.1294,-3.2193,-3.2434,-3.2179,-3.2987,-3.3435,-3.3443,-3.3796,-3.3526,-3.2885,-3.1585,-3.052,-2.973,-2.8387,-2.7407,-2.6724,-2.7137,-2.6996,-2.6532,-2.7152,-2.7708,-2.8264,0.0,0.0,0.0,-3.145,-3.2104,-3.2598,-3.4022,-3.4472,-3.394,-3.363,0.0,-3.2168,-3.1531,-3.1131,-3.1057,-3.2077,0.0,0.0,0.0,0.0,0.0,0.0,0.0,0.0,0.0,0.0,0.0,-3.2717,-3.1925,-3.0699,-3.0911,-3.1436,-3.2019,-3.2595,-3.3238,-3.4186,-3.5269,-3.6099,-3.6771,-3.7347,-3.722,-3.5955,-3.5892,-3.5446,-3.4231,-3.4541,-3.4519,-3.3567,-3.412,-3.4548,-3.4074,-3.4046,-3.4068,-3.4254,-3.4466,-3.4168,-3.3082,-3.2932,-3.3185,-3.3297,-3.2749,-3.2425,-3.236,-3.1958,-3.114,-2.9869,-2.952,-2.9262,-2.822,-2.845,-2.8667,-2.8282,-2.851,-2.8679,-2.8258,-2.8186,-2.8016,-2.7633,-2.755,-2.7059,-3.501,-3.4367,-3.4607,-3.3649,0.0,-3.1687,-3.143,-3.1264,-3.0999,-3.0833,-3.064,-3.0827,-3.0984,-3.1158,-3.1986,-3.1967,-3.1304,-3.185,-3.1797,-3.1198,-3.1399,-3.114,-3.0503,-2.9995,-2.9288,-2.8422,-2.8083,-2.7582,-2.6993,-2.7232,-2.7229,-2.696,-2.7657,-2.8298,-2.8848,-3.0363,-3.1447,-3.1987,-3.2376,-3.2982,-3.3889,-3.5052,-3.5345,-3.471,-3.4596,0.0,0.0,0.0,0.0,0.0,0.0,0.0,0.0,-3.1278,0.0,-3.1139,-3.0556,-3.0584,-3.1453,-3.1235,-3.1322,-3.1975,-3.1743,-3.1691,-3.1868,-3.176,-3.2277,-3.3607,-3.3719,-3.4115,-3.5096,-3.5553,-3.6013,-3.6693,-3.7085,-3.6894,-3.6165,-3.6034,-3.5684,-3.4915,-3.4888,-3.4624,-3.3647,-3.4172,-3.4269,-3.3582,-3.3599,-3.3693,-3.3556,-3.3916,-3.3856,-3.2976,-3.3334,-3.3502,-3.2962,-3.2619,-3.2272,-3.2005,-3.1682,-3.0798,-2.9095,-2.9,-2.871,-2.7334,-2.7356,-2.7621,-2.7428,-2.756,-2.7645,-2.7416,-2.7332,-2.7311,-2.7399,-2.7348,-2.6814,-3.5349,-3.4537,-3.5463,-3.4719,-3.2792,-3.2252,-3.1437,-3.0434,-3.0098,0.0,0.0,-3.0335,-3.0663,-3.1242,-3.1885,-3.151,-3.0526,-3.084,-3.0302,-2.9034,-2.9017,-2.8816,-2.8341,-2.8556,-2.8248,-2.7582,-2.8134,-2.8103,-2.7564,-2.7604,-2.7657,-2.7736,-2.8376,-2.8989,-2.9756,-3.1634,-3.2803,-3.3161,-3.3214,-3.3814,-3.5129,-3.5896,-3.6098,-3.5615,-3.5455,-3.4647,-3.3004,-3.222,-3.1542,-3.1057,-3.1219,-3.1423,-3.1681,-3.1229,-3.1052,-3.1308,-3.1351,-3.1177,-3.0771,-3.1119,-3.1134,-3.0611,-3.0687,-3.1416,-3.3071,-3.2554,-3.2944,-3.4762,-3.4472,-3.4675,-3.5816,-3.57,-3.57,-3.6225,-3.6385,-3.6357,-3.5856,-3.5913,-3.5798,-3.5526,-3.5067,-3.4661,-3.3988,-3.4052,-3.3833,-3.2875,-3.2854,-3.2904,-3.244,-3.2875,-3.3158,-3.2688,-3.3001,-3.3125,-3.2368,-3.191,-3.1864,-3.1401,-3.1204,-3.0463,-2.908,-2.8763,-2.8337,-2.6747,-2.6724,-2.6892,-2.6803,-2.6815,-2.6791,-2.6791,-2.6779,-2.6815,-2.686,-2.6641,-2.6129,-3.446,-3.3972,-3.4895,-3.4067,-3.224,-3.177,-3.0461,-2.8883,-2.9244,-2.989,-3.0738,-3.0719,-3.1022,-3.1439,-3.2106,-3.1747,-3.0566,-3.0167,-2.9661,-2.8999,-2.8411,-2.7994,-2.7864,-2.7768,-2.7613,-2.7494,-2.7589,-2.7629,-2.755,-2.8117,-2.8363,-2.8441,-2.9058,-3.0147,-3.1462,-3.2241,-3.3071,-3.3933,-3.3933,-3.4032,-3.4313,-3.5112,-3.5374,-3.4925,-3.403,-3.326,-3.2761,-3.1596,-3.0991,-3.1022,-3.1757,-3.1922,-3.1397,-3.1362,-3.1192,-3.0756,-3.0713,-3.0901,-3.1337,-3.0959,-3.0669,-3.0657,-3.1087,-3.1501,-3.1762,-3.1647,-3.1965,-3.2861,-3.3405,-3.3893,-3.4555,-3.5281,-3.576,-3.6035,-3.6719,-3.6659,-3.5123,-3.5317,-3.5198,-3.4266,-3.422,-3.3998,-3.3393,-3.344,-3.3325,-3.2614,-3.2106,-3.1598,-3.1308,-3.1888,-3.2556,-3.2478,-3.2321,-3.2233,-3.1803,-3.1282,-3.0853,-3.0698,-3.0263,-2.9714,-2.8671,-2.8542,-2.8265,-2.7226,-2.708,-2.6927,-2.6433,-2.6214,-2.6287,-2.6348,-2.6275,-2.6359,-2.6647,-2.639,-2.6027,-3.5308,-3.5417,-3.6233,-3.5179,-3.2739,-3.1016,-2.9659,-2.875,-2.9241,-2.9791,-3.0327,-3.1211,-3.1803,-3.2055,-3.2399,-3.2123,-3.1299,-3.0294,-2.9431,-2.8847,-2.8151,-2.7752,-2.7673,-2.7562,-2.7538,-2.7533,-2.7593,-2.7808,-2.817,-2.8449,-2.8789,-2.9156,-2.9946,-3.0822,-3.1607,-3.2532,-3.3208,-3.3642,-3.3813,-3.3899,-3.3915,-3.4471,-3.4555,-3.4017,-3.3836,-3.3648,-3.3319,-3.2393,-3.1871,-3.1743,-3.1821,-3.1553,-3.0971,-3.0623,-3.0524,-3.0553,-3.0248,-3.0335,-3.0959,-3.1072,-3.1087,-3.1087,-3.1667,-3.2,-3.2015,-3.2302,-3.2796,-3.338,-3.3501,-3.3622,-3.4182,-3.4314,-3.4412,-3.4756,-3.51,-3.4836,-3.4098,-3.4105,-3.3922,-3.3163,-3.3105,-3.2846,-3.2112,-3.2472,-3.2463,-3.1671,-3.1148,-3.0872,-3.0611,-3.1061,-3.1467,-3.1387,-3.1703,-3.1611,-3.0984,-3.0722,-3.0375,-3.0108,-2.9799,-2.9338,-2.8634,-2.8505,-2.8158,-2.7527,-2.7344,-2.7263,-2.6836,-2.6848,-2.6709,-2.6276,-2.6029,-2.5914,-2.5658,-2.5396,-2.5372,-3.6098,-3.6388,-3.7282,-3.599,-3.3088,-3.0214,-2.8924,-2.8875,-2.9353,-2.977,-3.0263,-3.1702,-3.2379,-3.2412,-3.2706,-3.2457,-3.1639,-3.0605,-2.9651,-2.8805,-2.8237,-2.7894,-2.7749,-2.7669,-2.7664,-2.7858,-2.7819,-2.8029,-2.845,-2.8619,-2.8998,-2.9656,-3.0553,-3.1116,-3.1435,-3.2602,-3.3256,-3.3309,-3.345,-3.3555,-3.3623,-3.3921,-3.3858,-3.3542,-3.3851,-3.4032,-3.3848,-3.3193,-3.2713,-3.2451,-3.1689,-3.104,-3.0558,-2.9813,-2.9639,-3.0031,-2.9697,-2.974,-3.0499,-3.114,-3.1558,-3.1694,-3.2256,-3.2602,-3.2633,-3.3161,-3.3562,-3.3783,-3.3315,-3.3326,-3.3725,-3.3459,-3.3209,-3.3576,-3.3743,-3.3727,-3.3238,-3.3317,-3.3131,-3.2533,-3.2469,-3.2251,-3.1487,-3.166,-3.1705,-3.0916,-3.0642,-3.0642,-3.0642,-3.0687,-3.0718,-3.0536,-3.1027,-3.1189,-3.0131,-3.0142,-3.0066,-2.9659,-2.9617,-2.9401,-2.8917,-2.8776,-2.8346,-2.7762,-2.7683,-2.7551,-2.7393,-2.7209,-2.6943,-2.6447,-2.6013,-2.5448,-2.4829,-2.449,-2.4542,-3.5724,-3.5925,-3.6763,-3.5466,-3.2594,-2.9312,-2.8264,-2.8825,-2.9143,-2.9926,-3.1087,-3.1843,-3.2244,-3.2457,-3.3003,-3.2541,-3.133,-3.1221,-3.0408,-2.918,-2.8585,-2.8385,-2.8349,-2.7859,-2.7913,-2.841,-2.8057,-2.7804,-2.7874,-2.8422,-2.8998,-2.9656,-3.0553,-3.1102,-3.1477,-3.2453,-3.3043,-3.3309,-3.3112,-3.3096,-3.3293,-3.3356,-3.3527,-3.3864,-3.3552,-3.363,-3.3951,-3.3152,-3.268,-3.2652,-3.1282,-3.0413,-3.0226,-2.9371,-2.8797,-2.8855,-2.8811,-2.9298,-3.0421,-3.1025,-3.1627,-3.225,-3.2826,-3.313,-3.3114,-3.3658,-3.3566,-3.2944,-3.2592,-3.2733,-3.2913,-3.3197,-3.3253,-3.3261,-3.3983,-3.4355,-3.3517,-3.3954,-3.3954,-3.2838,-3.2783,-3.2555,-3.1474,-3.1382,-3.1337,-3.0698,-3.0642,-3.0642,-3.0747,-3.1029,-3.1142,-3.0498,-3.0379,-3.0424,-3.0297,-2.9988,-2.9721,-2.9588,-2.9588,-2.9498,-2.9345,-2.9268,-2.9122,-2.808,-2.8093,-2.8072,-2.7154,-2.6596,-2.67,-2.6492,-2.5936,-2.5307,-2.4768,-2.4206,-2.408,-3.6004,-3.6494,-3.6336,-3.4566,-3.1749,-2.8917,-2.8198,-2.8984,-2.9509,-3.0351,-3.1405,-3.2346,-3.2862,-3.2974,-3.3213,-3.2765,-3.1889,-3.1584,-3.0936,-2.9982,-2.9381,-2.91,-2.9079,-2.8512,-2.8251,-2.8155,-2.7888,-2.7637,-2.7425,-2.8197,-2.8951,-2.9494,-3.0469,-3.1012,-3.1069,-3.2283,-3.2881,-3.2796,-3.2881,-3.2827,-3.2796,-3.2796,-3.2866,-3.2974,-3.306,-3.317,-3.3377,-3.3131,-3.2718,-3.2017,-3.1396,-3.0485,-2.906,-2.871,-2.8429,-2.8184,-2.8781,-2.9501,-3.0281,-3.1263,-3.1779,-3.167,-3.2927,-3.3588,-3.3219,-3.3742,-3.3899,-3.3507,-3.3419,-3.3403,-3.333,-3.3316,-3.3232,-3.3098,-3.3441,-3.3557,-3.3187,-3.3525,-3.3367,-3.236,-3.2184,-3.1901,-3.1018,-3.0838,-3.0843,-3.0611,-3.0642,-3.0747,-3.1029,-3.1364,-3.1531,-3.1673,-3.1372,-3.0734,-3.0236,-2.9525,-2.9271,-2.9448,-2.9293,-2.9125,-2.9476,-2.9237,-2.882,-2.8249,-2.8678,-2.8547,-2.7563,-2.7571,-2.7631,-2.6881,-2.5329,-2.443,-2.3853,-2.3499,-2.3429,-3.6415,-3.6766,-3.5489,-3.3794,-3.1935,-2.9378,-2.88,-2.9652,-3.0222,-3.0891,-3.1783,-3.2693,-3.3171,-3.3312,-3.3312,-3.2974,-3.2398,-3.1935,-3.1401,-3.0755,-3.0136,-2.9785,-2.956,-2.8788,-2.8212,-2.7776,-2.7397,-2.7088,-2.6947,-2.805,-2.8779,-2.9232,-3.0514,-3.1051,-3.088,-3.209,-3.2648,-3.2468,-3.2648,-3.2633,-3.2453,-3.2398,-3.2398,-3.2453,-3.2703,-3.2912,-3.2897,-3.315,-3.2804,-3.171,-3.1461,-3.0499,-2.8637,-2.833,-2.8122,-2.7889,-2.8667,-2.952,-3.0149,-3.1234,-3.1722,-3.1499,-3.2772,-3.3404,-3.3242,-3.3534,-3.384,-3.3949,-3.4,-3.3848,-3.3607,-3.3346,-3.3096,-3.2951,-3.2951,-3.3058,-3.3128,-3.3346,-3.315,-3.2089,-3.2042,-3.158,-3.0911,-3.0821,-3.094,-3.0851,-3.0851,-3.0984,-3.148,-3.1736,-3.218,-3.2554,-3.2059,-3.1287,-3.0321,-2.9721,-2.9426,-2.9265,-2.9153,-2.89,-2.9237,-2.8802,-2.8254,-2.7837,-2.8657,-2.8657,-2.7527,-2.7684,-2.7855,-2.6608,-2.5156,-2.3933,-2.3688,-2.317,-2.2914,-3.6978,-3.6576,-3.4057,-3.3354,-3.363,-3.0778,-3.0144,-3.0956,-3.1108,-3.1626,-3.2246,-3.2455,-3.2792,-3.3312,-3.3283,-3.296,-3.2426,-3.23,-3.1893,-3.1246,-3.0684,-3.015,-2.9546,-2.8394,-2.7818,-2.7692,-2.6807,-2.6483,-2.6933,-2.7926,-2.8483,-2.8598,-3.0478,-3.1291,-3.092,-3.1787,-3.2422,-3.2382,-3.2391,-3.2382,-3.2398,-3.2398,-3.2382,-3.2407,-3.2703,-3.2897,-3.2897,-3.315,-3.2924,-3.2282,-3.1109,-3.0104,-2.9281,-2.8253,-2.7735,-2.7955,-2.8427,-2.9139,-2.9974,-3.067,-3.1223,-3.1787,-3.2045,-3.2384,-3.2838,-3.3032,-3.3273,-3.3665,-3.3665,-3.3511,-3.3346,-3.315,-3.2951,-3.2951,-3.315,-3.3361,-3.3591,-3.3797,-3.3523,-3.2656,-3.2327,-3.2048,-3.148,-3.1437,-3.148,-3.148,-3.1495,-3.1537,-3.1751,-3.2446,-3.2751,-3.2478,-3.206,-3.1528,-3.1252,-3.0309,-2.984,-2.9667,-2.9205,-2.8675,-2.8493,-2.8226,-2.765,-2.734,-2.7832,-2.7804,-2.7144,-2.6793,-2.6638,-2.5894,-2.4914,-2.4015,-2.3826,-2.2896,-2.2565,-3.6652,-3.6039,-3.4302,-3.3403,-3.2828,-3.0849,-3.0448,-3.1148,-3.1276,-3.1723,-3.24,-3.282,-3.3115,-3.3312,-3.2904,-3.2412,-3.185,-3.1822,-3.1274,-3.0361,-3.0038,-2.9813,-2.9546,-2.8745,-2.8141,-2.7734,-2.7312,-2.7371,-2.774,-2.788,-2.8083,-2.8705,-2.9789,-3.0392,-3.0578,-3.0891,-3.152,-3.2275,-3.1982,-3.1951,-3.2351,-3.2398,-3.2198,-3.1797,-3.2501,-3.2773,-3.2578,-3.2881,-3.242,-3.114,-3.0778,-2.9975,-2.8625,-2.7976,-2.7745,-2.8094,-2.8336,-2.8842,-2.9655,-3.0348,-3.0647,-3.07,-3.151,-3.185,-3.1834,-3.2141,-3.2579,-3.2846,-3.2835,-3.2823,-3.3198,-3.3203,-3.3096,-3.3005,-3.3309,-3.3607,-3.3694,-3.3899,-3.3764,-3.3055,-3.2641,-3.2287,-3.2114,-3.2048,-3.2104,-3.2104,-3.2048,-3.2185,-3.2555,-3.2986,-3.3228,-3.3307,-3.2986,-3.242,-3.1559,-3.0423,-2.9676,-2.9597,-2.9245,-2.8697,-2.831,-2.7621,-2.7017,-2.6961,-2.7256,-2.7186,-2.6666,-2.6343,-2.6118,-2.5897,-2.4894,-2.4208,-2.4163,-2.3125,-2.2629,-3.6652,-3.5998,-3.4831,-3.3977,-3.3242,-3.1681,-3.1379,-3.1842,-3.1942,-3.2236,-3.2709,-3.3143,-3.3213,-3.2988,-3.2595,-3.1935,-3.1246,-3.1176,-3.0726,-2.9926,-2.9701,-2.9504,-2.9265,-2.8886,-2.8268,-2.7581,-2.7414,-2.7555,-2.7806,-2.785,-2.806,-2.8447,-2.9418,-2.9977,-3.013,-3.0304,-3.092,-3.1551,-3.149,-3.1628,-3.2044,-3.229,-3.2059,-3.162,-3.2075,-3.2323,-3.2059,-3.2121,-3.1626,-3.0603,-3.0351,-2.9666,-2.8305,-2.794,-2.8008,-2.8367,-2.8448,-2.8716,-2.9291,-2.9812,-2.9968,-2.9733,-3.0548,-3.0983,-3.0714,-3.1194,-3.1678,-3.1929,-3.2104,-3.2332,-3.2641,-3.3045,-3.324,-3.3203,-3.3503,-3.3745,-3.3848,-3.3984,-3.3799,-3.3271,-3.266,-3.2384,-3.233,-3.2315,-3.2299,-3.233,-3.2315,-3.256,-3.3029,-3.3423,-3.3578,-3.3933,-3.3543,-3.2846,-3.1927,-3.0709,-2.9435,-2.9173,-2.8491,-2.8102,-2.7804,-2.7074,-2.6666,-2.6652,-2.661,-2.654,-2.6329,-2.6006,-2.5893,-2.5825,-2.4951,-2.4092,-2.3754,-2.3245,-2.2788,-3.6964,-3.676,-3.5489,-3.5059,-3.4822,-3.3537,-3.3101,-3.3157,-3.3115,-3.2975,-3.2848,-3.3143,-3.2693,-3.237,-3.2089,-3.1597,-3.06,-3.0417,-3.0417,-3.0291,-2.9785,-2.9279,-2.8858,-2.8675,-2.8057,-2.7017,-2.6726,-2.6654,-2.6891,-2.8032,-2.8432,-2.8268,-2.9439,-2.9833,-2.9458,-2.9981,-3.0299,-3.0628,-3.1012,-3.1305,-3.1459,-3.1951,-3.1905,-3.1382,-3.1374,-3.1358,-3.1374,-3.0911,-3.0582,-3.0335,-2.9843,-2.915,-2.8501,-2.8363,-2.8429,-2.859,-2.87,-2.8842,-2.9045,-2.9169,-2.9232,-2.9291,-2.946,-2.9872,-3.0241,-3.0417,-3.0688,-3.1039,-3.1435,-3.1784,-3.1849,-3.2667,-3.3398,-3.3658,-3.371,-3.3848,-3.3986,-3.4036,-3.3869,-3.322,-3.2637,-3.2269,-3.2187,-3.2238,-3.2269,-3.2313,-3.2396,-3.2669,-3.33,-3.3719,-3.3969,-3.3969,-3.3409,-3.2538,-3.183,-3.1021,-2.9778,-2.864,-2.7755,-2.7102,-2.7074,-2.6596,-2.6287,-2.6217,-2.6286,-2.6215,-2.6229,-2.5948,-2.6002,-2.577,-2.4838,-2.4208,-2.393,-2.3531,-2.2896,-3.7325,-3.6925,-3.6919,-3.6331,-3.5563,-3.4782,-3.4014,-3.3186,-3.2831,-3.2216,-3.1499,-3.1401,-3.105,-3.0586,-3.0474,-3.0052,-2.9293,-2.9279,-2.949,-2.9757,-2.9279,-2.9111,-2.9125,-2.8464,-2.786,-2.7611,-2.7782,-2.777,-2.7759,-2.839,-2.8606,-2.8431,-2.8728,-2.9181,-2.9366,-2.9196,-2.9412,-3.032,-3.0151,-3.0428,-3.1228,-3.1151,-3.0936,-3.0705,-3.0289,-3.0165,-3.0516,-3.0882,-3.0628,-2.9812,-2.9981,-2.9597,-2.8658,-2.8411,-2.846,-2.8493,-2.8477,-2.8573,-2.8795,-2.8873,-2.9106,-2.9425,-2.938,-2.9476,-2.9788,-2.9733,-3.0038,-3.0623,-3.1025,-3.1363,-3.2351,-3.3082,-3.3539,-3.345,-3.3745,-3.389,-3.3778,-3.3303,-3.3102,-3.302,-3.2684,-3.2429,-3.2382,-3.2382,-3.2449,-3.2659,-3.2902,-3.3307,-3.3991,-3.3893,-3.376,-3.3695,-3.2837,-3.199,-3.1127,-3.0201,-2.9053,-2.8097,-2.7185,-2.661,-2.6512,-2.6357,-2.6034,-2.5948,-2.5948,-2.6002,-2.6002,-2.6056,-2.6111,-2.5825,-2.5077,-2.4681,-2.4509,-2.3872,-2.3078,-3.7656,-3.7356,-3.7666,-3.719,-3.6134,-3.5415,-3.4528,-3.3456,-3.25,-3.1626,-3.0937,-3.0389,-2.9855,-2.942,-2.9504,-2.9392,-2.9055,-2.904,-2.9364,-2.9715,-2.904,-2.8928,-2.9139,-2.8282,-2.7931,-2.8205,-2.8541,-2.8499,-2.8169,-2.8703,-2.8793,-2.8455,-2.8411,-2.8611,-2.8996,-2.8658,-2.8904,-2.9535,-2.9504,-2.9935,-3.0766,-3.0874,-3.0658,-3.0412,-3.0149,-2.9951,-2.9864,-3.0498,-3.055,-2.98,-2.9713,-2.9212,-2.8488,-2.8411,-2.8411,-2.8444,-2.8573,-2.8748,-2.8858,-2.9028,-2.94,-2.9984,-2.9854,-2.9687,-2.9902,-2.9706,-3.0064,-3.0176,-3.0982,-3.1679,-3.2568,-3.3531,-3.3815,-3.3781,-3.4201,-3.4349,-3.4041,-3.3027,-3.2774,-3.2995,-3.2724,-3.2321,-3.2121,-3.2227,-3.2286,-3.2564,-3.2981,-3.3624,-3.4137,-3.3931,-3.3733,-3.3283,-3.2498,-3.1501,-3.0433,-2.9339,-2.8263,-2.7486,-2.6806,-2.6424,-2.6259,-2.6132,-2.5893,-2.5948,-2.6002,-2.6056,-2.6071,-2.6165,-2.6165,-2.5701,-2.5258,-2.4681,-2.4221,-2.3543,-2.2909,-3.7933,-3.7922,-3.793,-3.7508,-3.6684,-3.5656,-3.4781,-3.3893,-3.2255,-3.1434,-3.0988,-2.9771,-2.8998,-2.8717,-2.8984,-2.9223,-2.942,-2.9532,-2.9687,-2.9841,-2.9293,-2.8858,-2.8689,-2.8296,-2.8412,-2.8845,-2.9145,-2.8895,-2.8438,-2.9107,-2.9089,-2.8488,-2.8411,-2.8473,-2.8627,-2.8504,-2.8581,-2.8796,-2.9227,-2.9889,-3.0489,-3.0966,-3.0997,-3.0443,-3.0763,-3.0432,-2.9578,-2.9864,-3.0148,-2.9879,-2.9069,-2.855,-2.8411,-2.8411,-2.8411,-2.8493,-2.8873,-2.9107,-2.9259,-2.9659,-3.0231,-3.0949,-3.079,-3.0527,-3.0465,-3.0639,-3.0597,-3.0188,-3.1306,-3.2238,-3.2676,-3.3646,-3.4399,-3.4626,-3.4767,-3.4918,-3.494,-3.3215,-3.2705,-3.3335,-3.2763,-3.1759,-3.1504,-3.1733,-3.1757,-3.1835,-3.2457,-3.3222,-3.3874,-3.3872,-3.3611,-3.2971,-3.2169,-3.1068,-2.9958,-2.9082,-2.8086,-2.7536,-2.6775,-2.6335,-2.609,-2.5978,-2.5948,-2.5948,-2.6056,-2.6056,-2.6165,-2.6326,-2.615,-2.5715,-2.5133,-2.4452,-2.3872,-2.3365,-2.303,-3.8282,-3.7915,-3.8747,-3.8348,-3.7279,-3.6514,-3.5598,-3.4416,-3.226,-3.0888,-2.99,-2.8276,-2.7326,-2.6807,-2.7818,-2.8015,-2.8127,-2.9055,-2.9364,-2.9223,-2.9392,-2.9083,-2.8872,-2.9012,-2.9336,-2.9814,-3.0192,-3.0051,-2.9355,-2.9794,-2.9535,-2.8442,-2.8427,-2.8673,-2.9042,-2.9089,-2.915,-2.9243,-2.9797,-3.0166,-3.0381,-3.0566,-3.0597,-3.051,-3.0908,-3.0625,-2.9749,-2.9794,-2.9767,-2.9537,-2.8863,-2.8411,-2.8411,-2.8381,-2.8542,-2.8873,-2.9059,-2.9542,-3.0245,-3.0554,-3.112,-3.2011,-3.187,-3.1546,-3.1483,-3.1613,-3.1597,-3.1589,-3.2363,-3.3013,-3.3548,-3.4268,-3.4927,-3.5402,-3.5082,-3.4762,-3.4573,-3.338,-3.2564,-3.2963,-3.2213,-3.1596,-3.1375,-3.1432,-3.1544,-3.1759,-3.2269,-3.2933,-3.3592,-3.3242,-3.2729,-3.2492,-3.1764,-3.0619,-2.9575,-2.8776,-2.808,-2.7569,-2.6922,-2.6221,-2.6073,-2.5921,-2.5948,-2.6002,-2.6165,-2.6218,-2.6379,-2.6539,-2.615,-2.5825,-2.5245,-2.4667,-2.4047,-2.3543,-2.3258,-3.8559,-3.8009,-3.8728,-3.8492,-3.7443,-3.6656,-3.5706,-3.4448,-3.2313,-3.0618,-2.9245,-2.7584,-2.6624,-2.6413,-2.7326,-2.7917,-2.8127,-2.9111,-2.9687,-2.9968,-2.9996,-2.9659,-2.9369,-2.9662,-3.0021,-3.0312,-3.097,-3.0783,-3.0277,-3.0319,-2.9776,-2.8965,-2.8535,-2.8765,-2.9319,-2.9104,-2.9166,-2.935,-2.9612,-2.9781,-3.0366,-3.0376,-3.0628,-3.084,-3.1268,-3.1085,-3.0094,-2.9659,-2.9357,-2.9007,-2.8611,-2.8411,-2.8365,-2.8294,-2.8498,-2.9027,-2.9438,-3.0129,-3.1062,-3.1644,-3.2409,-3.3106,-3.302,-3.2594,-3.239,-3.2557,-3.2821,-3.2143,-3.3097,-3.3876,-3.43,-3.4816,-3.5316,-3.5671,-3.5154,-3.4874,-3.5207,-3.3727,-3.3019,-3.2947,-3.2338,-3.1372,-3.1162,-3.1355,-3.1499,-3.1658,-3.227,-3.2855,-3.3301,-3.2512,-3.1951,-3.1881,-3.1347,-3.0275,-2.963,-2.8952,-2.8299,-2.783,-2.7174,-2.6418,-2.6056,-2.5948,-2.6002,-2.6111,-2.6258,-2.6418,-2.6525,-2.6592,-2.6379,-2.5934,-2.5412,-2.4964,-2.4394,-2.3708,-2.3424,-3.8763,-3.8225,-3.8415,-3.8169,-3.7489,-3.6341,-3.5558,-3.4585,-3.2576,-3.0916,-2.9608,-2.7869,-2.7103,-2.6947,-2.7678,-2.8493,-2.949,-2.9673,-3.0319,-3.0642,-3.0572,-2.9982,-2.9747,-3.0025,-3.0372,-3.0673,-3.1379,-3.117,-3.0682,-3.0455,-2.9961,-2.9196,-2.8596,-2.8873,-2.935,-2.8981,-2.8935,-2.9427,-2.9427,-2.9673,-3.0397,-3.0689,-3.1028,-3.1272,-3.1513,-3.1315,-3.037,-2.9611,-2.8951,-2.8411,-2.8411,-2.835,-2.829,-2.8046,-2.8491,-2.9194,-3.0027,-3.082,-3.1815,-3.2823,-3.3727,-3.429,-3.413,-3.3636,-3.3297,-3.3592,-3.3501,-3.269,-3.3851,-3.4518,-3.4911,-3.5316,-3.5459,-3.5545,-3.5104,-3.5326,-3.5425,-3.4197,-3.3197,-3.3795,-3.2659,-3.1619,-3.1257,-3.1393,-3.1709,-3.1257,-3.1834,-3.2241,-3.2425,-3.1926,-3.1624,-3.1636,-3.0877,-2.9972,-2.9547,-2.9213,-2.8622,-2.811,-2.7449,-2.6811,-2.6218,-2.6071,-2.6125,-2.6218,-2.6312,-2.6472,-2.6578,-2.6539,-2.6447,-2.6111,-2.5536,-2.5245,-2.4894,-2.4047,-2.3543,-3.9015,-3.888,-3.8598,-3.8431,-3.8108,-3.6888,-3.6197,-3.5813,-3.3487,-3.2049,-3.1072,-2.9117,-2.7968,-2.7636,-2.8212,-2.8914,-2.9617,-3.0038,-3.053,-3.0544,-3.008,-3.0021,-3.0083,-3.0312,-3.0732,-3.1204,-3.1552,-3.1233,-3.0678,-3.0385,-2.9797,-2.8781,-2.8658,-2.9012,-2.9858,-2.9396,-2.952,-3.0135,-3.0428,-3.0412,-3.0582,-3.1366,-3.1659,-3.1566,-3.1455,-3.1284,-3.0796,-2.9738,-2.8905,-2.8541,-2.846,-2.8336,-2.7951,-2.8092,-2.8684,-2.9531,-3.0389,-3.1429,-3.2789,-3.3727,-3.4556,-3.5138,-3.5116,-3.4968,-3.4432,-3.4313,-3.4343,-3.4134,-3.4447,-3.4891,-3.5295,-3.5532,-3.5464,-3.5162,-3.4959,-3.4761,-3.4363,-3.3554,-3.324,-3.3259,-3.2578,-3.1579,-3.1038,-3.1257,-3.1312,-3.1055,-3.12,-3.1567,-3.1456,-3.125,-3.1156,-3.1149,-3.0653,-2.9874,-2.9726,-2.9441,-2.9044,-2.8496,-2.7898,-2.7348,-2.6759,-2.6233,-2.6286,-2.6326,-2.6365,-2.6525,-2.6645,-2.6645,-2.6621,-2.6165,-2.577,-2.5591,-2.5189,-2.4337,-2.3943,-3.882,-3.8195,-3.84,-3.8138,-3.7507,-3.6784,-3.6307,-3.5738,-3.415,-3.2839,-3.1749,-2.9882,-2.8873,-2.8619,-2.8703,-2.9012,-2.9631,-3.0221,-3.0461,-3.0432,-3.033,-3.0614,-3.0851,-3.0955,-3.1263,-3.1739,-3.1951,-3.1549,-3.1006,-3.0489,-2.992,-2.8904,-2.8565,-2.8919,-2.9704,-2.9319,-2.9489,-3.0166,-3.0412,-3.0535,-3.0997,-3.149,-3.2245,-3.2095,-3.1876,-3.165,-3.1555,-3.1007,-2.9801,-2.8933,-2.89,-2.8792,-2.8029,-2.8093,-2.8712,-2.9742,-3.0724,-3.1841,-3.3186,-3.4387,-3.5182,-3.5571,-3.5639,-3.5015,-3.4684,-3.4594,-3.4644,-3.4477,-3.4633,-3.5233,-3.5571,-3.5639,-3.5396,-3.5118,-3.4627,-3.4343,-3.4161,-3.3493,-3.2891,-3.2923,-3.2282,-3.1538,-3.1173,-3.1157,-3.1078,-3.0838,-3.0998,-3.1274,-3.0875,-3.0683,-3.0563,-3.0457,-3.0212,-2.9918,-2.9874,-2.9665,-2.9425,-2.8935,-2.8432,-2.7932,-2.7485,-2.6982,-2.6515,-2.6486,-2.6472,-2.6659,-2.6779,-2.6779,-2.6727,-2.65,-2.6218,-2.5988,-2.5646,-2.5077,-2.4838,-3.8445,-3.7263,-3.8035,-3.7677,-3.6722,-3.6538,-3.6199,-3.5585,-3.4535,-3.3354,-3.1997,-3.0425,-2.9605,-2.942,-2.8759,-2.8914,-2.9462,-3.001,-3.0227,-3.0207,-3.0587,-3.0947,-3.1322,-3.1495,-3.1667,-3.1838,-3.2176,-3.1936,-3.1182,-3.0658,-2.992,-2.9243,-2.8704,-2.8965,-2.9304,-2.9012,-2.935,-3.0458,-3.0181,-3.0212,-3.0997,-3.1336,-3.1989,-3.2529,-3.2625,-3.2132,-3.1927,-3.1448,-3.0703,-2.8925,-2.9576,-2.9465,-2.8916,-2.8389,-2.8701,-2.9911,-3.1117,-3.2257,-3.338,-3.4658,-3.5571,-3.5639,-3.5639,-3.4996,-3.4276,-3.4513,-3.4479,-3.431,-3.4421,-3.5334,-3.5588,-3.5639,-3.547,-3.5023,-3.4159,-3.3891,-3.3813,-3.3132,-3.2269,-3.2468,-3.2047,-3.1359,-3.1038,-3.0902,-3.0781,-3.0699,-3.0861,-3.0845,-3.046,-3.0241,-3.0211,-3.0158,-2.9995,-2.9935,-2.9874,-2.977,-2.956,-2.9028,-2.8591,-2.8192,-2.775,-2.7188,-2.6659,-2.6592,-2.6578,-2.6712,-2.6794,-2.6779,-2.6727,-2.6674,-2.6568,-2.634,-2.6042,-2.5756,-2.5563,-3.8326,-3.7942,-3.773,-3.7523,-3.7246,-3.6738,-3.6415,-3.6168,-3.5044,-3.3931,-3.265,-3.0939,-2.9898,-2.9431,-2.838,-2.831,-2.89,-2.9378,-2.9769,-2.9889,-3.0319,-3.0732,-3.1292,-3.1562,-3.1819,-3.2231,-3.2204,-3.1589,-3.0806,-3.0412,-2.9802,-2.8824,-2.8498,-2.8989,-2.9633,-2.9704,-2.9823,-3.0843,-3.0551,-3.0535,-3.0766,-3.112,-3.1782,-3.2578,-3.2694,-3.2405,-3.1685,-3.1058,-3.0443,-3.0074,-2.9759,-2.9821,-2.9774,-2.9358,-2.9591,-3.0545,-3.1741,-3.2729,-3.3506,-3.4732,-3.5504,-3.5639,-3.5571,-3.5233,-3.459,-3.4489,-3.4336,-3.4066,-3.4218,-3.4945,-3.5571,-3.5588,-3.4996,-3.4143,-3.3335,-3.2576,-3.1692,-3.1016,-3.093,-3.1662,-3.147,-3.1235,-3.0958,-3.0716,-3.0593,-3.0468,-3.0468,-3.0452,-3.0241,-3.0087,-3.0006,-2.9978,-2.9935,-2.9918,-2.9918,-2.977,-2.9576,-2.8842,-2.8352,-2.7864,-2.7479,-2.7049,-2.6765,-2.6645,-2.6645,-2.6779,-2.6794,-2.675,-2.675,-2.6683,-2.6645,-2.6616,-2.6336,-2.6026,-2.5755,-3.7272,-3.6956,-3.7005,-3.7021,-3.6953,-3.6645,-3.6492,-3.6259,-3.4994,-3.3865,-3.257,-3.0902,-2.9652,-2.9031,-2.8226,-2.7987,-2.8254,-2.8478,-2.9132,-2.9662,-3.0119,-3.0792,-3.1414,-3.1617,-3.1686,-3.1643,-3.1343,-3.0815,-3.019,-3.0426,-2.9622,-2.8658,-2.8486,-2.9162,-2.978,-2.9742,-3.028,-3.1082,-3.1089,-3.0905,-3.0843,-3.0982,-3.1473,-3.2451,-3.2426,-3.219,-3.2437,-3.2009,-3.1491,-3.1052,-3.0907,-3.0902,-3.0747,-3.056,-3.0339,-3.1039,-3.2122,-3.304,-3.3656,-3.4818,-3.5588,-3.5526,-3.5318,-3.4912,-3.4607,-3.4455,-3.4252,-3.4167,-3.415,-3.4624,-3.4996,-3.5334,-3.5216,-3.4609,-3.341,-3.2303,-3.1456,-3.0262,-3.0274,-3.0776,-3.0649,-3.0577,-3.0733,-3.0526,-3.0401,-3.0274,-3.0162,-3.0076,-3.0017,-2.9946,-2.9902,-2.9918,-2.9918,-2.9918,-2.983,-2.9621,-2.947,-2.8779,-2.8158,-2.768,-2.7306,-2.6959,-2.6817,-2.6712,-2.6779,-2.6779,-2.662,-2.6547,-2.6605,-2.6562,-2.6118,-2.5893,-2.626,-2.6236,-2.5926,-3.6333,-3.5874,-3.6179,-3.6315,-3.6209,-3.6163,-3.6226,-3.5963,-3.4535,-3.3461,-3.2544,-3.0516,-2.9055,-2.8464,-2.7917,-2.7565,-2.7579,-2.7607,-2.8353,-2.9262,-2.9765,-3.0597,-3.1222,-3.1482,-3.1144,-3.0853,-3.0456,-2.9765,-2.9795,-2.9907,-2.9352,-2.8797,-2.8803,-2.9332,-2.9763,-3.0137,-3.0693,-3.1244,-3.1413,-3.1366,-3.1089,-3.0923,-3.1104,-3.2473,-3.1678,-3.1726,-3.2421,-3.2376,-3.197,-3.1669,-3.1731,-3.1914,-3.1495,-3.1399,-3.1385,-3.1533,-3.2431,-3.3047,-3.3686,-3.4664,-3.5379,-3.5316,-3.4975,-3.4742,-3.432,-3.4184,-3.4032,-3.437,-3.4066,-3.4244,-3.4583,-3.4922,-3.5101,-3.4729,-3.3356,-3.1948,-3.1185,-3.0228,-2.9145,-2.9414,-2.9646,-2.9905,-3.0135,-3.0046,-2.9896,-3.0284,-3.0189,-3.0119,-3.006,-2.9989,-2.9902,-2.9918,-2.9918,-2.9918,-2.977,-2.9441,-2.9182,-2.8732,-2.8046,-2.753,-2.724,-2.7011,-2.687,-2.6779,-2.6779,-2.675,-2.6533,-2.6315,-2.6257,-2.5995,-2.5386,-2.5336,-2.5842,-2.6012,-2.5854,-3.6328,-3.5912,-3.5331,-3.5067,-3.5169,-3.5154,-3.5415,-3.5597,-3.4002,-3.2859,-3.2077,-2.9886,-2.845,-2.779,-2.72,-2.6947,-2.6933,-2.7018,-2.7499,-2.8426,-2.8993,-2.947,-2.9779,-3.0281,-3.0258,-3.0023,-2.9773,-2.978,-2.943,-2.8916,-2.8798,-2.8748,-2.8862,-2.941,-3.0508,-3.0828,-3.1574,-3.2028,-3.1674,-3.1151,-3.0772,-3.0885,-3.09,-3.1005,-3.0986,-3.1212,-3.157,-3.1612,-3.1424,-3.1588,-3.1975,-3.2014,-3.1597,-3.199,-3.2199,-3.2344,-3.2637,-3.2951,-3.3226,-3.4277,-3.5021,-3.5115,-3.5143,-3.5053,-3.4472,-3.3558,-3.3355,-3.437,-3.3457,-3.332,-3.4041,-3.4109,-3.4023,-3.339,-3.2393,-3.0979,-3.0055,-2.9555,-2.8562,-2.8589,-2.8982,-2.9298,-2.9596,-2.9486,-2.9426,-2.9903,-3.0258,-3.0172,-3.006,-2.9989,-2.9946,-2.9918,-2.9874,-2.9874,-2.9531,-2.9227,-2.8795,-2.8496,-2.7913,-2.7327,-2.71,-2.6922,-2.6884,-2.6779,-2.6794,-2.6779,-2.6649,-2.6387,-2.601,-2.5575,-2.5139,-2.5214,-2.5545,-2.5609,-2.5472,-3.5321,-3.4932,-3.4588,-3.4624,-3.489,-3.489,-3.5219,-3.5205,-3.3571,-3.2305,-3.1263,-2.9183,-2.765,-2.6835,-2.6371,-2.6301,-2.6342,-2.6521,-2.7178,-2.7903,-2.8636,-2.9229,-2.9788,-2.9785,-2.9587,-2.9169,-2.8614,-2.8237,-2.8263,-2.8466,-2.8504,-2.872,-2.9078,-2.987,-3.1039,-3.144,-3.1885,-3.2081,-3.1797,-3.1474,-3.1266,-3.0758,-3.0452,-3.0828,-3.0111,-3.0185,-3.0624,-3.0412,-3.0735,-3.1151,-3.172,-3.1905,-3.1967,-3.2213,-3.2382,-3.2407,-3.2485,-3.2771,-3.3163,-3.4154,-3.4671,-3.4888,-3.5043,-3.488,-3.4406,-3.3685,-3.3085,-3.3761,-3.2974,-3.292,-3.3478,-3.3581,-3.3755,-3.3168,-3.1682,-3.0844,-2.9712,-2.8493,-2.7913,-2.8106,-2.8298,-2.8665,-2.9075,-2.9358,-2.9459,-2.9901,-3.0123,-3.0048,-3.0011,-2.9989,-2.9902,-2.9918,-2.9814,-2.977,-2.9319,-2.8889,-2.8384,-2.7997,-2.7494,-2.7063,-2.6922,-2.6779,-2.6727,-2.6727,-2.6779,-2.6765,-2.6736,-2.6358,-2.5879,-2.5429,-2.4979,-2.5026,-2.4977,-2.4554,-2.4569,-3.4481,-3.3894,-3.3879,-3.4153,-3.4505,-3.4491,-3.4758,-3.499,-3.3064,-3.1662,-3.0498,-2.8497,-2.6736,-2.6104,-2.595,-2.5964,-2.5976,-2.6297,-2.6944,-2.7703,-2.8316,-2.8888,-2.9149,-2.9134,-2.8748,-2.8374,-2.7535,-2.7152,-2.7245,-2.7578,-2.8049,-2.8699,-2.9547,-3.0436,-3.1342,-3.1819,-3.213,-3.2266,-3.1951,-3.1813,-3.1659,-3.0489,-3.032,-3.0166,-2.9689,-2.915,-2.992,-3.0027,-3.0397,-3.0551,-3.1043,-3.1305,-3.1613,-3.1859,-3.2182,-3.229,-3.2454,-3.2694,-3.3244,-3.4037,-3.456,-3.4792,-3.5082,-3.5197,-3.4993,-3.4245,-3.3845,-3.4165,-3.3157,-3.2872,-3.2963,-3.339,-3.3252,-3.2668,-3.1476,-3.0827,-2.9968,-2.8439,-2.7394,-2.7342,-2.7594,-2.8053,-2.8533,-2.9111,-2.9504,-2.9892,-2.9978,-2.988,-2.9837,-2.9756,-2.9918,-2.9918,-2.9874,-2.971,-2.9227,-2.8685,-2.8094,-2.7565,-2.7063,-2.6712,-2.6606,-2.65,-2.6394,-2.6515,-2.6616,-2.6727,-2.6645,-2.6191,-2.5749,-2.5415,-2.5032,-2.4558,-2.4258,-2.3817,-2.3835,-3.42,-3.3312,-3.3382,-3.3396,-3.3452,-3.3382,-3.377,-3.4172,-3.2378,-3.1098,-2.9909,-2.757,-2.6188,-2.5921,-2.5893,-2.5893,-2.5948,-2.6297,-2.665,-2.7047,-2.7446,-2.8082,-2.8338,-2.8243,-2.784,-2.7388,-2.6841,-2.6461,-2.6335,-2.7129,-2.8049,-2.9204,-2.9862,-3.0851,-3.1626,-3.2043,-3.2216,-3.2398,-3.2213,-3.1859,-3.1536,-3.072,-3.0212,-2.9689,-2.9473,-2.9412,-2.952,-2.9797,-2.9966,-2.9812,-3.0228,-3.0735,-3.1074,-3.1413,-3.1828,-3.2275,-3.2492,-3.2734,-3.3303,-3.3836,-3.4186,-3.4576,-3.5119,-3.5685,-3.5446,-3.5002,-3.4881,-3.4754,-3.3498,-3.3343,-3.3373,-3.333,-3.2775,-3.2135,-3.1107,-3.0057,-2.9132,-2.7914,-2.6961,-2.6753,-2.6944,-2.7429,-2.781,-2.8428,-2.9023,-2.9374,-2.9496,-2.9442,-2.9389,-2.941,-2.9761,-2.9918,-2.9918,-2.9665,-2.912,-2.8591,-2.8046,-2.7414,-2.6907,-2.6486,-2.6218,-2.6165,-2.6165,-2.614,-2.6227,-2.6424,-2.65,-2.6039,-2.5672,-2.5465,-2.5061,-2.4341,-2.4057,-2.3812,-2.3849,-3.3748,-3.3312,-3.3312,-3.3312,-3.3312,-3.3312,-3.3632,-3.3733,-3.2245,-3.0432,-2.8748,-2.7187,-2.6245,-2.5992,-2.5893,-2.5893,-2.6002,-2.6616,-2.6774,-2.7137,-2.766,-2.8103,-2.8103,-2.784,-2.7575,-2.7122,-2.6707,-2.6297,-2.6045,-2.7155,-2.825,-2.9319,-3.0038,-3.0658,-3.1357,-3.2158,-3.2422,-3.2453,-3.2391,-3.2044,-3.149,-3.1151,-3.0505,-2.9489,-2.9412,-2.9166,-2.8919,-2.9042,-2.9212,-2.9427,-2.9689,-3.0217,-3.0803,-3.1219,-3.1782,-3.2377,-3.2671,-3.3008,-3.3287,-3.3836,-3.4399,-3.5283,-3.5793,-3.5951,-3.5642,-3.5036,-3.4616,-3.4197,-3.3662,-3.3464,-3.3135,-3.2585,-3.1975,-3.1579,-3.0717,-2.9492,-2.8352,-2.7234,-2.6308,-2.595,-2.6398,-2.6951,-2.7316,-2.7659,-2.8233,-2.8763,-2.8894,-2.8958,-2.895,-2.9237,-2.968,-2.9821,-2.9805,-2.9393,-2.8857,-2.8384,-2.7981,-2.7312,-2.6683,-2.6197,-2.5833,-2.5988,-2.5946,-2.5881,-2.575,-2.5951,-2.5973,-2.5761,-2.5575,-2.5419,-2.4728,-2.3916,-2.3712,-2.3698,-2.3769,-3.3353,-3.3087,-3.3241,-3.3312,-3.3312,-3.3312,-3.3521,-3.3585,-3.2433,-3.0502,-2.8268,-2.7326,-2.6596,-2.6217,-2.595,-2.5907,-2.6042,-2.651,-2.6916,-2.7225,-2.7595,-2.8137,-2.8088,-2.7775,-2.7203,-2.6967,-2.6563,-2.615,-2.6247,-2.8017,-2.871,-2.9227,-3.0099,-3.112,-3.192,-3.2507,-3.2857,-3.2857,-3.2648,-3.2299,-3.1741,-3.1195,-3.0812,-2.9827,-2.9781,-2.9443,-2.915,-2.9181,-2.9166,-2.9246,-2.9515,-3.0111,-3.0829,-3.1503,-3.206,-3.2515,-3.2914,-3.3272,-3.3738,-3.4137,-3.4894,-3.581,-3.6088,-3.5899,-3.5555,-3.5299,-3.5238,-3.4979,-3.4145,-3.339,-3.3184,-3.2607,-3.1781,-3.1336,-3.0106,-2.889,-2.7914,-2.6856,-2.5876,-2.5118,-2.5718,-2.6245,-2.6468,-2.6826,-2.7575,-2.8216,-2.8807,-2.8751,-2.8554,-2.8998,-2.9761,-2.9789,-2.9626,-2.9053,-2.8481,-2.7857,-2.7278,-2.7019,-2.6366,-2.5714,-2.5432,-2.5642,-2.5324,-2.4766,-2.4836,-2.5342,-2.5467,-2.5396,-2.5367,-2.5364,-2.4599,-2.3781,-2.3288,-2.3249,-2.3277,-3.3127,-3.2525,-3.3059,-3.3283,-3.3325,-3.3312,-3.3382,-3.3269,-3.2511,-3.1162,-2.9279,-2.772,-2.6863,-2.6638,-2.6217,-2.6006,-2.6002,-2.6351,-2.6759,-2.7122,-2.7276,-2.771,-2.7725,-2.7408,-2.6878,-2.6864,-2.6549,-2.6351,-2.6525,-2.7986,-2.8584,-2.9531,-3.0886,-3.2233,-3.3103,-3.3633,-3.3919,-3.3818,-3.3235,-3.2751,-3.1941,-3.1093,-3.0612,-3.032,-3.0228,-2.9874,-2.9243,-2.945,-2.9218,-2.8541,-2.9344,-2.988,-3.0291,-3.1709,-3.2465,-3.2819,-3.2934,-3.3615,-3.4764,-3.5065,-3.5627,-3.6224,-3.6433,-3.6212,-3.6163,-3.6138,-3.5924,-3.5469,-3.51,-3.4502,-3.3933,-3.3093,-3.2049,-3.0907,-2.969,-2.8462,-2.7498,-2.6572,-2.5546,-2.4667,-2.5017,-2.5426,-2.5609,-2.595,-2.6788,-2.7583,-2.8451,-2.8618,-2.83,-2.891,-2.981,-2.975,-2.9512,-2.8976,-2.8279,-2.7211,-2.6561,-2.6367,-2.6189,-2.5689,-2.5378,-2.5437,-2.4844,-2.3909,-2.4332,-2.5263,-2.523,-2.5077,-2.5093,-2.5122,-2.4579,-2.3862,-2.3238,-2.2853,-2.2982,-3.303,-3.2426,-3.2637,-3.2913,-3.3297,-3.3682,-3.3646,-3.3129,-3.2216,-3.0965,-2.9645,-2.8436,-2.7509,-2.6975,-2.6638,-2.6315,-2.6032,-2.6297,-2.6707,-2.7034,-2.7086,-2.7458,-2.7524,-2.7152,-2.6616,-2.6654,-2.6496,-2.6602,-2.6759,-2.8188,-2.9167,-3.0191,-3.1649,-3.283,-3.3187,-3.3391,-3.3303,-3.3039,-3.2924,-3.2725,-3.1747,-3.1226,-3.0843,-3.0489,-3.0474,-3.0012,-2.9154,-2.9596,-2.8996,-2.8153,-2.8971,-2.956,-2.9993,-3.1378,-3.2156,-3.2772,-3.3208,-3.4297,-3.5521,-3.6215,-3.6429,-3.6746,-3.6724,-3.6469,-3.6085,-3.6201,-3.5998,-3.5572,-3.5172,-3.4559,-3.4015,-3.3305,-3.2343,-3.1084,-2.9778,-2.8316,-2.7176,-2.6229,-2.5288,-2.4489,-2.4388,-2.5179,-2.5617,-2.6046,-2.6754,-2.7195,-2.8036,-2.8404,-2.8225,-2.9038,-2.9918,-2.971,-2.948,-2.8917,-2.8155,-2.7103,-2.6615,-2.6594,-2.6414,-2.6051,-2.5767,-2.5409,-2.5008,-2.436,-2.4794,-2.5191,-2.5033,-2.4869,-2.4956,-2.4833,-2.4191,-2.3716,-2.3122,-2.2872,-2.29,-3.3095,-3.2387,-3.2758,-3.2967,-3.3224,-3.3642,-3.3593,-3.3038,-3.1763,-3.0656,-2.9869,-2.9069,-2.8296,-2.7593,-2.72,-2.7017,-2.6581,-2.6548,-2.6841,-2.7103,-2.6779,-2.7167,-2.7306,-2.7034,-2.6878,-2.6811,-2.7004,-2.7159,-2.7393,-2.8782,-3.0014,-3.1197,-3.2248,-3.2829,-3.3145,-3.3355,-3.3407,-3.3266,-3.3203,-3.2762,-3.1992,-3.1449,-3.1166,-3.0905,-3.0705,-3.0397,-2.9697,-2.923,-2.895,-2.8497,-2.8769,-2.9479,-3.0125,-3.1286,-3.2229,-3.309,-3.4122,-3.5104,-3.6018,-3.6851,-3.7064,-3.7506,-3.7152,-3.6554,-3.6006,-3.5993,-3.5625,-3.5169,-3.4722,-3.4315,-3.3951,-3.325,-3.2315,-3.105,-2.9469,-2.8,-2.6211,-2.5235,-2.4911,-2.4138,-2.4481,-2.5177,-2.5872,-2.6345,-2.6886,-2.7261,-2.768,-2.7869,-2.8138,-2.8968,-2.9705,-2.9617,-2.9188,-2.8543,-2.7843,-2.7033,-2.6743,-2.6782,-2.6453,-2.6044,-2.5781,-2.5367,-2.512,-2.4878,-2.4893,-2.4866,-2.4768,-2.4733,-2.4751,-2.4361,-2.3701,-2.323,-2.2933,-2.2888,-2.2888,-3.3379,-3.2508,-3.3396,-3.3505,-3.3136,-3.3223,-3.3237,-3.3077,-3.1353,-3.0516,-3.0361,-2.9195,-2.8577,-2.845,-2.8001,-2.765,-2.7383,-2.6976,-2.7001,-2.6911,-2.6429,-2.6966,-2.7152,-2.693,-2.693,-2.7357,-2.7645,-2.768,-2.8137,-2.9144,-3.0584,-3.1855,-3.2195,-3.277,-3.3261,-3.3419,-3.3559,-3.3319,-3.3219,-3.2741,-3.2201,-3.1535,-3.1321,-3.1159,-3.1029,-3.0846,-3.0422,-3.0142,-2.9798,-2.9749,-3.0136,-3.03,-3.1199,-3.2959,-3.3406,-3.4041,-3.4967,-3.5728,-3.6292,-3.7016,-3.7416,-3.7632,-3.719,-3.6545,-3.6002,-3.5702,-3.5334,-3.5002,-3.4638,-3.4154,-3.367,-3.2883,-3.208,-3.0592,-2.9026,-2.7185,-2.5132,-2.4293,-2.4172,-2.4275,-2.502,-2.5741,-2.6358,-2.687,-2.6712,-2.7167,-2.7494,-2.772,-2.8028,-2.8555,-2.9185,-2.9416,-2.8894,-2.8092,-2.7363,-2.6657,-2.6387,-2.6337,-2.6015,-2.5678,-2.5469,-2.5463,-2.5243,-2.5047,-2.4729,-2.468,-2.501,-2.4848,-2.4482,-2.4046,-2.3881,-2.326,-2.311,-2.2902,-2.2902,-3.4208,-3.346,-3.3343,-3.3386,-3.3501,-3.3034,-3.3173,-3.3475,-3.1824,-3.0608,-2.9841,-2.9504,-2.8858,-2.8085,-2.8268,-2.7874,-2.734,-2.6919,-2.6761,-2.656,-2.6378,-2.6674,-2.6826,-2.6907,-2.6945,-2.7342,-2.7745,-2.8183,-2.8601,-2.9434,-3.0527,-3.1626,-3.1877,-3.2585,-3.313,-3.3199,-3.3052,-3.3027,-3.3096,-3.2685,-3.2152,-3.1387,-3.1313,-3.1293,-3.0915,-3.0659,-3.0372,-3.0366,-2.985,-2.9088,-2.9941,-3.0261,-2.9921,-3.1288,-3.2171,-3.3541,-3.484,-3.6079,-3.6679,-3.6879,-3.7173,-3.7433,-3.6981,-3.6242,-3.5666,-3.522,-3.494,-3.4665,-3.4541,-3.4151,-3.3486,-3.2772,-3.1702,-3.0211,-2.8606,-2.6846,-2.4984,-2.4305,-2.419,-2.4589,-2.5346,-2.5931,-2.6578,-2.6447,-2.6379,-2.6893,-2.7291,-2.7515,-2.7853,-2.8358,-2.876,-2.8992,-2.8419,-2.7549,-2.6879,-2.6202,-2.5997,-2.5763,-2.5749,-2.5879,-2.6097,-2.6054,-2.5584,-2.5139,-2.4642,-2.4998,-2.5586,-2.5217,-2.4541,-2.4891,-2.4777,-2.3955,-2.3288,-2.3107,-2.2809,-3.4044,-3.3434,-3.323,-3.3366,-3.3543,-3.3163,-3.3186,-3.3134,-3.1602,-3.0235,-2.9307,-2.949,-2.8928,-2.8085,-2.8563,-2.8436,-2.7298,-2.7256,-2.7117,-2.6691,-2.6449,-2.6804,-2.6957,-2.7277,-2.7631,-2.7876,-2.8351,-2.8989,-2.934,-3.0254,-3.1369,-3.1255,-3.1508,-3.2454,-3.2977,-3.29,-3.2661,-3.2638,-3.2542,-3.2293,-3.1784,-3.1249,-3.1255,-3.1215,-3.0629,-3.0374,-3.0182,-3.0357,-2.9821,-2.9328,-3.0438,-3.0668,-3.07,-3.1942,-3.273,-3.4092,-3.5207,-3.6312,-3.6949,-3.7061,-3.7135,-3.6985,-3.6521,-3.5334,-3.4786,-3.4334,-3.4259,-3.4218,-3.4235,-3.4088,-3.3383,-3.2596,-3.1181,-2.9791,-2.8196,-2.663,-2.5602,-2.4681,-2.4685,-2.4934,-2.542,-2.5937,-2.6165,-2.6002,-2.6111,-2.675,-2.7115,-2.7291,-2.7585,-2.8069,-2.8388,-2.8607,-2.7841,-2.6977,-2.6381,-2.6145,-2.6153,-2.6257,-2.6513,-2.6681,-2.6777,-2.6214,-2.5438,-2.4942,-2.4526,-2.4905,-2.5274,-2.5133,-2.4734,-2.5107,-2.5118,-2.4253,-2.3565,-2.327,-2.2865,-3.3427,-3.2883,-3.3242,-3.3341,-3.3321,-3.3218,-3.302,-3.2479,-3.1144,-2.9757,-2.9025,-2.9321,-2.8872,-2.8001,-2.8788,-2.8679,-2.7863,-2.7539,-2.7244,-2.6793,-2.6787,-2.6977,-2.735,-2.8017,-2.7961,-2.8522,-2.9113,-2.9537,-3.0315,-3.0948,-3.1162,-3.0896,-3.1589,-3.2359,-3.2762,-3.2554,-3.2527,-3.2773,-3.2333,-3.1915,-3.1531,-3.1205,-3.1043,-3.1013,-3.0866,-3.0705,-3.0689,-3.0679,-3.06,-3.0887,-3.1191,-3.1366,-3.2293,-3.3322,-3.4011,-3.4703,-3.554,-3.6318,-3.6755,-3.6802,-3.6893,-3.6606,-3.6032,-3.4476,-3.366,-3.3563,-3.3616,-3.2852,-3.264,-3.2428,-3.1858,-3.167,-3.0791,-2.9169,-2.754,-2.6073,-2.4915,-2.4381,-2.4488,-2.4776,-2.5244,-2.577,-2.6042,-2.5934,-2.5926,-2.6558,-2.6974,-2.7063,-2.7172,-2.7584,-2.7951,-2.8146,-2.7101,-2.6426,-2.6634,-2.6456,-2.6642,-2.6828,-2.7018,-2.6885,-2.6633,-2.5949,-2.5167,-2.464,-2.418,-2.4365,-2.4579,-2.4381,-2.4492,-2.5044,-2.4919,-2.4321,-2.382,-2.341,-2.2594,-3.4191,-3.3977,-3.3571,-3.3136,-3.2675,-3.2644,-3.242,-3.195,-3.1569,-3.0352,-2.8914,-2.9124,-2.8647,-2.7495,-2.8947,-2.8912,-2.7726,-2.7783,-2.7315,-2.6844,-2.6723,-2.7229,-2.7166,-2.7935,-2.8092,-2.8492,-2.9157,-2.9948,-3.0483,-3.0974,-3.113,-3.0799,-3.1233,-3.17,-3.2687,-3.2448,-3.2438,-3.2985,-3.2571,-3.2284,-3.2255,-3.154,-3.1141,-3.0888,-3.0697,-3.0452,-3.0447,-3.0527,-3.0592,-3.0764,-3.1111,-3.1723,-3.2545,-3.3437,-3.4052,-3.4563,-3.5368,-3.6128,-3.6354,-3.623,-3.6006,-3.5525,-3.4754,-3.3541,-3.282,-3.2835,-3.2424,-3.147,-3.1002,-3.0857,-3.0608,-3.0578,-3.0277,-2.855,-2.6873,-2.552,-2.4279,-2.4262,-2.4255,-2.4639,-2.5134,-2.5481,-2.577,-2.5901,-2.5959,-2.6227,-2.6625,-2.6797,-2.6601,-2.6804,-2.7354,-2.7335,-2.6194,-2.5742,-2.6302,-2.6633,-2.671,-2.6802,-2.6952,-2.6723,-2.6466,-2.5634,-2.4834,-2.4267,-2.3912,-2.3993,-2.3881,-2.3601,-2.3827,-2.4665,-2.4962,-2.4501,-2.3918,-2.3468,-2.236,-3.3707,-3.3855,-3.3756,-3.3471,-3.3156,-3.3108,-3.2841,-3.2422,-3.213,-3.1136,-2.969,-2.9633,-2.8788,-2.7399,-2.8926,-2.8738,-2.7576,-2.808,-2.7642,-2.706,-2.721,-2.7777,-2.8055,-2.8368,-2.9046,-2.9546,-3.0114,-3.0737,-3.088,-3.1159,-3.135,-3.0809,-3.0836,-3.1412,-3.2474,-3.2256,-3.2428,-3.3186,-3.283,-3.2835,-3.2926,-3.2062,-3.1368,-3.1027,-3.0899,-3.0595,-3.0813,-3.0988,-3.1404,-3.1972,-3.268,-3.2704,-3.3288,-3.3844,-3.4192,-3.4488,-3.503,-3.577,-3.5825,-3.5531,-3.4915,-3.4295,-3.3423,-3.2221,-3.0704,-3.0696,-3.1259,-3.0577,-3.1564,-3.1573,-3.0358,-3.0018,-2.966,-2.844,-2.6616,-2.5047,-2.434,-2.4178,-2.4169,-2.4363,-2.4808,-2.5189,-2.537,-2.5376,-2.5501,-2.5899,-2.6286,-2.6373,-2.6184,-2.6315,-2.6784,-2.6916,-2.6017,-2.5956,-2.6787,-2.6905,-2.6695,-2.6792,-2.6965,-2.6811,-2.6579,-2.5431,-2.4528,-2.4221,-2.379,-2.338,-2.3203,-2.3189,-2.3505,-2.4305,-2.4648,-2.4732,-2.4088,-2.3393,-2.2277,-3.2904,-3.3355,-3.3783,-3.3986,-3.3986,-3.3986,-3.3716,-3.3235,-3.2795,-3.2028,-3.0981,-3.0529,-2.8972,-2.8397,-2.887,-2.7979,-2.7694,-2.8152,-2.7871,-2.7802,-2.8472,-2.845,-2.8989,-2.9848,-3.0066,-3.0483,-3.1109,-3.135,-3.152,-3.1789,-3.1647,-3.0934,-3.0998,-3.1375,-3.1916,-3.2176,-3.2393,-3.3069,-3.3114,-3.3185,-3.275,-3.223,-3.1847,-3.1664,-3.1527,-3.1499,-3.1603,-3.1903,-3.2312,-3.2943,-3.3683,-3.3912,-3.4086,-3.4474,-3.4562,-3.4894,-3.5386,-3.5701,-3.5545,-3.5077,-3.41,-3.3106,-3.2085,-3.0716,-2.9197,-2.9109,-2.9599,-3.0137,-3.1125,-3.1353,-3.0078,-2.9356,-2.8986,-2.798,-2.6161,-2.4601,-2.4262,-2.4047,-2.4118,-2.4189,-2.458,-2.4964,-2.5039,-2.4967,-2.5317,-2.5697,-2.5836,-2.5821,-2.5937,-2.6344,-2.6797,-2.6922,-2.6549,-2.6784,-2.7217,-2.7128,-2.6791,-2.7089,-2.728,-2.7085,-2.6613,-2.5505,-2.4747,-2.451,-2.4038,-2.3371,-2.3236,-2.3303,-2.3705,-2.4068,-2.4284,-2.4489,-2.4226,-2.3478,-2.2231,-3.3355,-3.3869,-3.3986,-3.4036,-3.4036,-3.4036,-3.3935,-3.3767,-3.3287,-3.2716,-3.2013,-3.0935,-2.9574,-2.7969,-2.8759,-2.8385,-2.775,-2.8292,-2.8174,-2.7946,-2.8263,-2.8434,-2.8981,-3.0068,-3.0295,-3.0898,-3.155,-3.1728,-3.1921,-3.2173,-3.1905,-3.1055,-3.0939,-3.1163,-3.1559,-3.1811,-3.2041,-3.2736,-3.3031,-3.296,-3.2637,-3.23,-3.2328,-3.2061,-3.1752,-3.1583,-3.1551,-3.1617,-3.1782,-3.234,-3.3361,-3.4193,-3.4706,-3.5125,-3.5315,-3.5464,-3.5974,-3.5797,-3.5562,-3.4631,-3.3544,-3.2271,-3.1029,-2.904,-2.8184,-2.8179,-2.8434,-2.8202,-2.9066,-2.9773,-2.9099,-2.9014,-2.8619,-2.6919,-2.5124,-2.4261,-2.3726,-2.3884,-2.406,-2.435,-2.4681,-2.4964,-2.5022,-2.5244,-2.5778,-2.606,-2.617,-2.6126,-2.5879,-2.63,-2.6779,-2.6779,-2.6779,-2.6779,-2.6907,-2.7086,-2.7012,-2.7342,-2.7565,-2.7394,-2.6767,-2.5619,-2.5005,-2.4876,-2.41,-2.3324,-2.3307,-2.3404,-2.3621,-2.3879,-2.403,-2.4142,-2.4042,-2.3719,-2.269]}]]